<?xml version="1.0" encoding="UTF-8"?>
<gpx version="1.1" creator="https://www.youtrack.es" xsi:schemaLocation="http://www.topografix.com/GPX/1/1 http://www.topografix.com/GPX/1/1/gpx.xsd http://www.garmin.com/xmlschemas/GpxExtensions/v3 http://www.garmin.com/xmlschemas/GpxExtensionsv3.xsd http://www.garmin.com/xmlschemas/TrackPointExtension/v1 http://www.garmin.com/xmlschemas/TrackPointExtensionv1.xsd" xmlns:gpxtpx="http://www.garmin.com/xmlschemas/TrackPointExtension/v1" xmlns:gpxx="http://www.garmin.com/xmlschemas/GpxExtensions/v3" xmlns:xsi="http://www.w3.org/2001/XMLSchema-instance">
  <metadata>
    <author>
      <name>Jokin Matxin</name>
      <email id="jokinmatxin93" domain="gmail.com"/>
    </author>
    <link href="https://www.youtrack.es">
      <text>YouTrack.es</text>
    </link>
    <time>2026-05-08T00:19:38Z</time>
  </metadata>
  <trk>
    <src>https://www.youtrack.es</src>
    <link href="https://www.youtrack.es/ruta/15736-gabiri-kortaberri-maerdi-gabiri">
      <text>YouTrack.es</text>
    </link>
    <trkseg>
      <trkpt lat="43.0512150" lon="-2.2799110">
        <ele>525.8</ele>
        <time>2020-09-08T16:07:34Z</time>
      </trkpt>
      <trkpt lat="43.0512140" lon="-2.2798940">
        <ele>525.8</ele>
        <time>2020-09-08T16:07:35Z</time>
      </trkpt>
      <trkpt lat="43.0511960" lon="-2.2798560">
        <ele>525.8</ele>
        <time>2020-09-08T16:07:36Z</time>
      </trkpt>
      <trkpt lat="43.0511690" lon="-2.2798320">
        <ele>525.8</ele>
        <time>2020-09-08T16:07:37Z</time>
      </trkpt>
      <trkpt lat="43.0511500" lon="-2.2798020">
        <ele>525.6</ele>
        <time>2020-09-08T16:07:38Z</time>
      </trkpt>
      <trkpt lat="43.0511390" lon="-2.2797650">
        <ele>525.4</ele>
        <time>2020-09-08T16:07:39Z</time>
      </trkpt>
      <trkpt lat="43.0511390" lon="-2.2797230">
        <ele>525.0</ele>
        <time>2020-09-08T16:07:40Z</time>
      </trkpt>
      <trkpt lat="43.0511380" lon="-2.2796620">
        <ele>524.6</ele>
        <time>2020-09-08T16:07:41Z</time>
      </trkpt>
      <trkpt lat="43.0511320" lon="-2.2795900">
        <ele>524.4</ele>
        <time>2020-09-08T16:07:42Z</time>
      </trkpt>
      <trkpt lat="43.0510750" lon="-2.2795990">
        <ele>523.4</ele>
        <time>2020-09-08T16:07:45Z</time>
      </trkpt>
      <trkpt lat="43.0510880" lon="-2.2797240">
        <ele>522.4</ele>
        <time>2020-09-08T16:07:47Z</time>
      </trkpt>
      <trkpt lat="43.0510350" lon="-2.2797950">
        <ele>520.8</ele>
        <time>2020-09-08T16:07:49Z</time>
      </trkpt>
      <trkpt lat="43.0509480" lon="-2.2797250">
        <ele>519.2</ele>
        <time>2020-09-08T16:07:51Z</time>
      </trkpt>
      <trkpt lat="43.0508950" lon="-2.2796760">
        <ele>521.2</ele>
        <time>2020-09-08T16:07:52Z</time>
      </trkpt>
      <trkpt lat="43.0508340" lon="-2.2796270">
        <ele>522.2</ele>
        <time>2020-09-08T16:07:53Z</time>
      </trkpt>
      <trkpt lat="43.0507730" lon="-2.2795830">
        <ele>522.6</ele>
        <time>2020-09-08T16:07:54Z</time>
      </trkpt>
      <trkpt lat="43.0505890" lon="-2.2795350">
        <ele>521.6</ele>
        <time>2020-09-08T16:07:57Z</time>
      </trkpt>
      <trkpt lat="43.0505420" lon="-2.2795200">
        <ele>520.0</ele>
        <time>2020-09-08T16:07:59Z</time>
      </trkpt>
      <trkpt lat="43.0505340" lon="-2.2795190">
        <ele>519.2</ele>
        <time>2020-09-08T16:08:00Z</time>
      </trkpt>
      <trkpt lat="43.0505260" lon="-2.2795160">
        <ele>517.4</ele>
        <time>2020-09-08T16:08:02Z</time>
      </trkpt>
      <trkpt lat="43.0505050" lon="-2.2794840">
        <ele>516.4</ele>
        <time>2020-09-08T16:08:04Z</time>
      </trkpt>
      <trkpt lat="43.0506290" lon="-2.2788510">
        <ele>515.4</ele>
        <time>2020-09-08T16:08:13Z</time>
      </trkpt>
      <trkpt lat="43.0508260" lon="-2.2783460">
        <ele>515.0</ele>
        <time>2020-09-08T16:08:19Z</time>
      </trkpt>
      <trkpt lat="43.0508720" lon="-2.2782580">
        <ele>514.8</ele>
        <time>2020-09-08T16:08:20Z</time>
      </trkpt>
      <trkpt lat="43.0509240" lon="-2.2781750">
        <ele>514.8</ele>
        <time>2020-09-08T16:08:21Z</time>
      </trkpt>
      <trkpt lat="43.0513980" lon="-2.2779990">
        <ele>513.6</ele>
        <time>2020-09-08T16:08:27Z</time>
      </trkpt>
      <trkpt lat="43.0515980" lon="-2.2780960">
        <ele>513.0</ele>
        <time>2020-09-08T16:08:29Z</time>
      </trkpt>
      <trkpt lat="43.0517070" lon="-2.2781510">
        <ele>512.8</ele>
        <time>2020-09-08T16:08:30Z</time>
      </trkpt>
      <trkpt lat="43.0519350" lon="-2.2782670">
        <ele>511.8</ele>
        <time>2020-09-08T16:08:32Z</time>
      </trkpt>
      <trkpt lat="43.0521640" lon="-2.2784040">
        <ele>510.2</ele>
        <time>2020-09-08T16:08:34Z</time>
      </trkpt>
      <trkpt lat="43.0522790" lon="-2.2784820">
        <ele>508.8</ele>
        <time>2020-09-08T16:08:35Z</time>
      </trkpt>
      <trkpt lat="43.0523960" lon="-2.2785620">
        <ele>507.4</ele>
        <time>2020-09-08T16:08:36Z</time>
      </trkpt>
      <trkpt lat="43.0525140" lon="-2.2786460">
        <ele>506.4</ele>
        <time>2020-09-08T16:08:37Z</time>
      </trkpt>
      <trkpt lat="43.0526360" lon="-2.2787270">
        <ele>505.0</ele>
        <time>2020-09-08T16:08:38Z</time>
      </trkpt>
      <trkpt lat="43.0527580" lon="-2.2787910">
        <ele>503.6</ele>
        <time>2020-09-08T16:08:39Z</time>
      </trkpt>
      <trkpt lat="43.0528910" lon="-2.2788240">
        <ele>502.0</ele>
        <time>2020-09-08T16:08:40Z</time>
      </trkpt>
      <trkpt lat="43.0530300" lon="-2.2788280">
        <ele>500.6</ele>
        <time>2020-09-08T16:08:41Z</time>
      </trkpt>
      <trkpt lat="43.0531780" lon="-2.2788330">
        <ele>499.2</ele>
        <time>2020-09-08T16:08:42Z</time>
      </trkpt>
      <trkpt lat="43.0533240" lon="-2.2788410">
        <ele>497.8</ele>
        <time>2020-09-08T16:08:43Z</time>
      </trkpt>
      <trkpt lat="43.0534720" lon="-2.2788690">
        <ele>496.6</ele>
        <time>2020-09-08T16:08:44Z</time>
      </trkpt>
      <trkpt lat="43.0536210" lon="-2.2789050">
        <ele>495.4</ele>
        <time>2020-09-08T16:08:45Z</time>
      </trkpt>
      <trkpt lat="43.0537650" lon="-2.2789240">
        <ele>494.0</ele>
        <time>2020-09-08T16:08:46Z</time>
      </trkpt>
      <trkpt lat="43.0539060" lon="-2.2789120">
        <ele>492.6</ele>
        <time>2020-09-08T16:08:47Z</time>
      </trkpt>
      <trkpt lat="43.0540540" lon="-2.2788680">
        <ele>491.2</ele>
        <time>2020-09-08T16:08:48Z</time>
      </trkpt>
      <trkpt lat="43.0542010" lon="-2.2788210">
        <ele>489.8</ele>
        <time>2020-09-08T16:08:49Z</time>
      </trkpt>
      <trkpt lat="43.0543630" lon="-2.2788240">
        <ele>488.6</ele>
        <time>2020-09-08T16:08:50Z</time>
      </trkpt>
      <trkpt lat="43.0545130" lon="-2.2788680">
        <ele>487.0</ele>
        <time>2020-09-08T16:08:51Z</time>
      </trkpt>
      <trkpt lat="43.0546350" lon="-2.2789510">
        <ele>485.6</ele>
        <time>2020-09-08T16:08:52Z</time>
      </trkpt>
      <trkpt lat="43.0547260" lon="-2.2790620">
        <ele>484.2</ele>
        <time>2020-09-08T16:08:53Z</time>
      </trkpt>
      <trkpt lat="43.0547910" lon="-2.2792210">
        <ele>482.2</ele>
        <time>2020-09-08T16:08:54Z</time>
      </trkpt>
      <trkpt lat="43.0548240" lon="-2.2794070">
        <ele>481.0</ele>
        <time>2020-09-08T16:08:55Z</time>
      </trkpt>
      <trkpt lat="43.0548490" lon="-2.2796020">
        <ele>479.4</ele>
        <time>2020-09-08T16:08:56Z</time>
      </trkpt>
      <trkpt lat="43.0548660" lon="-2.2797940">
        <ele>478.2</ele>
        <time>2020-09-08T16:08:57Z</time>
      </trkpt>
      <trkpt lat="43.0548520" lon="-2.2799940">
        <ele>477.2</ele>
        <time>2020-09-08T16:08:58Z</time>
      </trkpt>
      <trkpt lat="43.0548390" lon="-2.2801780">
        <ele>476.0</ele>
        <time>2020-09-08T16:08:59Z</time>
      </trkpt>
      <trkpt lat="43.0547800" lon="-2.2805430">
        <ele>474.0</ele>
        <time>2020-09-08T16:09:01Z</time>
      </trkpt>
      <trkpt lat="43.0547200" lon="-2.2807200">
        <ele>473.0</ele>
        <time>2020-09-08T16:09:02Z</time>
      </trkpt>
      <trkpt lat="43.0546710" lon="-2.2808900">
        <ele>472.0</ele>
        <time>2020-09-08T16:09:03Z</time>
      </trkpt>
      <trkpt lat="43.0546220" lon="-2.2810640">
        <ele>471.0</ele>
        <time>2020-09-08T16:09:04Z</time>
      </trkpt>
      <trkpt lat="43.0545960" lon="-2.2812190">
        <ele>469.8</ele>
        <time>2020-09-08T16:09:05Z</time>
      </trkpt>
      <trkpt lat="43.0545850" lon="-2.2813540">
        <ele>468.6</ele>
        <time>2020-09-08T16:09:06Z</time>
      </trkpt>
      <trkpt lat="43.0545600" lon="-2.2815310">
        <ele>467.2</ele>
        <time>2020-09-08T16:09:07Z</time>
      </trkpt>
      <trkpt lat="43.0545750" lon="-2.2816850">
        <ele>465.8</ele>
        <time>2020-09-08T16:09:08Z</time>
      </trkpt>
      <trkpt lat="43.0546400" lon="-2.2817650">
        <ele>464.4</ele>
        <time>2020-09-08T16:09:09Z</time>
      </trkpt>
      <trkpt lat="43.0547220" lon="-2.2818030">
        <ele>463.0</ele>
        <time>2020-09-08T16:09:10Z</time>
      </trkpt>
      <trkpt lat="43.0548930" lon="-2.2818550">
        <ele>461.6</ele>
        <time>2020-09-08T16:09:12Z</time>
      </trkpt>
      <trkpt lat="43.0552110" lon="-2.2820150">
        <ele>461.0</ele>
        <time>2020-09-08T16:09:15Z</time>
      </trkpt>
      <trkpt lat="43.0553180" lon="-2.2820330">
        <ele>460.8</ele>
        <time>2020-09-08T16:09:16Z</time>
      </trkpt>
      <trkpt lat="43.0554670" lon="-2.2819290">
        <ele>460.6</ele>
        <time>2020-09-08T16:09:18Z</time>
      </trkpt>
      <trkpt lat="43.0554940" lon="-2.2818020">
        <ele>459.4</ele>
        <time>2020-09-08T16:09:19Z</time>
      </trkpt>
      <trkpt lat="43.0554990" lon="-2.2816560">
        <ele>457.8</ele>
        <time>2020-09-08T16:09:20Z</time>
      </trkpt>
      <trkpt lat="43.0554810" lon="-2.2815030">
        <ele>456.2</ele>
        <time>2020-09-08T16:09:21Z</time>
      </trkpt>
      <trkpt lat="43.0554470" lon="-2.2813440">
        <ele>454.2</ele>
        <time>2020-09-08T16:09:22Z</time>
      </trkpt>
      <trkpt lat="43.0554110" lon="-2.2811830">
        <ele>453.2</ele>
        <time>2020-09-08T16:09:23Z</time>
      </trkpt>
      <trkpt lat="43.0553980" lon="-2.2810260">
        <ele>452.6</ele>
        <time>2020-09-08T16:09:24Z</time>
      </trkpt>
      <trkpt lat="43.0554490" lon="-2.2807290">
        <ele>451.6</ele>
        <time>2020-09-08T16:09:26Z</time>
      </trkpt>
      <trkpt lat="43.0555010" lon="-2.2805720">
        <ele>450.6</ele>
        <time>2020-09-08T16:09:27Z</time>
      </trkpt>
      <trkpt lat="43.0555170" lon="-2.2804050">
        <ele>448.2</ele>
        <time>2020-09-08T16:09:28Z</time>
      </trkpt>
      <trkpt lat="43.0555400" lon="-2.2802260">
        <ele>446.6</ele>
        <time>2020-09-08T16:09:29Z</time>
      </trkpt>
      <trkpt lat="43.0555710" lon="-2.2800310">
        <ele>445.4</ele>
        <time>2020-09-08T16:09:30Z</time>
      </trkpt>
      <trkpt lat="43.0556060" lon="-2.2798420">
        <ele>444.0</ele>
        <time>2020-09-08T16:09:31Z</time>
      </trkpt>
      <trkpt lat="43.0556400" lon="-2.2796520">
        <ele>442.6</ele>
        <time>2020-09-08T16:09:32Z</time>
      </trkpt>
      <trkpt lat="43.0556710" lon="-2.2794610">
        <ele>441.2</ele>
        <time>2020-09-08T16:09:33Z</time>
      </trkpt>
      <trkpt lat="43.0557370" lon="-2.2792590">
        <ele>440.2</ele>
        <time>2020-09-08T16:09:34Z</time>
      </trkpt>
      <trkpt lat="43.0558080" lon="-2.2790650">
        <ele>438.8</ele>
        <time>2020-09-08T16:09:35Z</time>
      </trkpt>
      <trkpt lat="43.0558960" lon="-2.2788840">
        <ele>437.0</ele>
        <time>2020-09-08T16:09:36Z</time>
      </trkpt>
      <trkpt lat="43.0560020" lon="-2.2787110">
        <ele>435.6</ele>
        <time>2020-09-08T16:09:37Z</time>
      </trkpt>
      <trkpt lat="43.0560920" lon="-2.2785430">
        <ele>434.2</ele>
        <time>2020-09-08T16:09:38Z</time>
      </trkpt>
      <trkpt lat="43.0561970" lon="-2.2783890">
        <ele>432.6</ele>
        <time>2020-09-08T16:09:39Z</time>
      </trkpt>
      <trkpt lat="43.0563200" lon="-2.2782560">
        <ele>430.8</ele>
        <time>2020-09-08T16:09:40Z</time>
      </trkpt>
      <trkpt lat="43.0564310" lon="-2.2781000">
        <ele>429.0</ele>
        <time>2020-09-08T16:09:41Z</time>
      </trkpt>
      <trkpt lat="43.0565340" lon="-2.2779380">
        <ele>427.4</ele>
        <time>2020-09-08T16:09:42Z</time>
      </trkpt>
      <trkpt lat="43.0566100" lon="-2.2777620">
        <ele>425.6</ele>
        <time>2020-09-08T16:09:43Z</time>
      </trkpt>
      <trkpt lat="43.0566720" lon="-2.2775760">
        <ele>423.8</ele>
        <time>2020-09-08T16:09:44Z</time>
      </trkpt>
      <trkpt lat="43.0566800" lon="-2.2773760">
        <ele>422.2</ele>
        <time>2020-09-08T16:09:45Z</time>
      </trkpt>
      <trkpt lat="43.0566230" lon="-2.2771740">
        <ele>420.8</ele>
        <time>2020-09-08T16:09:46Z</time>
      </trkpt>
      <trkpt lat="43.0565640" lon="-2.2769780">
        <ele>419.6</ele>
        <time>2020-09-08T16:09:47Z</time>
      </trkpt>
      <trkpt lat="43.0564930" lon="-2.2767800">
        <ele>418.6</ele>
        <time>2020-09-08T16:09:48Z</time>
      </trkpt>
      <trkpt lat="43.0564140" lon="-2.2765860">
        <ele>417.2</ele>
        <time>2020-09-08T16:09:49Z</time>
      </trkpt>
      <trkpt lat="43.0563320" lon="-2.2764290">
        <ele>415.8</ele>
        <time>2020-09-08T16:09:50Z</time>
      </trkpt>
      <trkpt lat="43.0562250" lon="-2.2763010">
        <ele>414.6</ele>
        <time>2020-09-08T16:09:51Z</time>
      </trkpt>
      <trkpt lat="43.0559720" lon="-2.2762570">
        <ele>412.6</ele>
        <time>2020-09-08T16:09:53Z</time>
      </trkpt>
      <trkpt lat="43.0558260" lon="-2.2762800">
        <ele>411.6</ele>
        <time>2020-09-08T16:09:54Z</time>
      </trkpt>
      <trkpt lat="43.0555790" lon="-2.2762550">
        <ele>410.0</ele>
        <time>2020-09-08T16:09:56Z</time>
      </trkpt>
      <trkpt lat="43.0552730" lon="-2.2759220">
        <ele>409.0</ele>
        <time>2020-09-08T16:09:59Z</time>
      </trkpt>
      <trkpt lat="43.0551730" lon="-2.2757740">
        <ele>408.2</ele>
        <time>2020-09-08T16:10:00Z</time>
      </trkpt>
      <trkpt lat="43.0550790" lon="-2.2756190">
        <ele>407.4</ele>
        <time>2020-09-08T16:10:01Z</time>
      </trkpt>
      <trkpt lat="43.0549830" lon="-2.2754610">
        <ele>405.6</ele>
        <time>2020-09-08T16:10:02Z</time>
      </trkpt>
      <trkpt lat="43.0547590" lon="-2.2751860">
        <ele>403.6</ele>
        <time>2020-09-08T16:10:04Z</time>
      </trkpt>
      <trkpt lat="43.0546110" lon="-2.2750980">
        <ele>402.4</ele>
        <time>2020-09-08T16:10:05Z</time>
      </trkpt>
      <trkpt lat="43.0544540" lon="-2.2750540">
        <ele>401.2</ele>
        <time>2020-09-08T16:10:06Z</time>
      </trkpt>
      <trkpt lat="43.0542950" lon="-2.2750590">
        <ele>400.0</ele>
        <time>2020-09-08T16:10:07Z</time>
      </trkpt>
      <trkpt lat="43.0541420" lon="-2.2750710">
        <ele>399.0</ele>
        <time>2020-09-08T16:10:08Z</time>
      </trkpt>
      <trkpt lat="43.0540070" lon="-2.2750540">
        <ele>398.0</ele>
        <time>2020-09-08T16:10:09Z</time>
      </trkpt>
      <trkpt lat="43.0538900" lon="-2.2749930">
        <ele>396.8</ele>
        <time>2020-09-08T16:10:10Z</time>
      </trkpt>
      <trkpt lat="43.0538010" lon="-2.2748720">
        <ele>395.0</ele>
        <time>2020-09-08T16:10:11Z</time>
      </trkpt>
      <trkpt lat="43.0537430" lon="-2.2747290">
        <ele>393.0</ele>
        <time>2020-09-08T16:10:12Z</time>
      </trkpt>
      <trkpt lat="43.0537070" lon="-2.2745680">
        <ele>391.0</ele>
        <time>2020-09-08T16:10:13Z</time>
      </trkpt>
      <trkpt lat="43.0536690" lon="-2.2744050">
        <ele>389.2</ele>
        <time>2020-09-08T16:10:14Z</time>
      </trkpt>
      <trkpt lat="43.0536080" lon="-2.2742600">
        <ele>387.2</ele>
        <time>2020-09-08T16:10:15Z</time>
      </trkpt>
      <trkpt lat="43.0535270" lon="-2.2741340">
        <ele>386.2</ele>
        <time>2020-09-08T16:10:16Z</time>
      </trkpt>
      <trkpt lat="43.0534370" lon="-2.2740310">
        <ele>385.6</ele>
        <time>2020-09-08T16:10:17Z</time>
      </trkpt>
      <trkpt lat="43.0533480" lon="-2.2739130">
        <ele>385.2</ele>
        <time>2020-09-08T16:10:18Z</time>
      </trkpt>
      <trkpt lat="43.0532730" lon="-2.2737690">
        <ele>384.8</ele>
        <time>2020-09-08T16:10:19Z</time>
      </trkpt>
      <trkpt lat="43.0532210" lon="-2.2732930">
        <ele>384.4</ele>
        <time>2020-09-08T16:10:22Z</time>
      </trkpt>
      <trkpt lat="43.0533610" lon="-2.2730380">
        <ele>383.6</ele>
        <time>2020-09-08T16:10:24Z</time>
      </trkpt>
      <trkpt lat="43.0537620" lon="-2.2728780">
        <ele>382.4</ele>
        <time>2020-09-08T16:10:27Z</time>
      </trkpt>
      <trkpt lat="43.0542110" lon="-2.2730750">
        <ele>380.6</ele>
        <time>2020-09-08T16:10:30Z</time>
      </trkpt>
      <trkpt lat="43.0543490" lon="-2.2731020">
        <ele>379.4</ele>
        <time>2020-09-08T16:10:31Z</time>
      </trkpt>
      <trkpt lat="43.0544650" lon="-2.2730830">
        <ele>377.8</ele>
        <time>2020-09-08T16:10:32Z</time>
      </trkpt>
      <trkpt lat="43.0545590" lon="-2.2730110">
        <ele>376.0</ele>
        <time>2020-09-08T16:10:33Z</time>
      </trkpt>
      <trkpt lat="43.0546040" lon="-2.2728850">
        <ele>374.2</ele>
        <time>2020-09-08T16:10:34Z</time>
      </trkpt>
      <trkpt lat="43.0545850" lon="-2.2727340">
        <ele>372.2</ele>
        <time>2020-09-08T16:10:35Z</time>
      </trkpt>
      <trkpt lat="43.0545370" lon="-2.2725810">
        <ele>368.8</ele>
        <time>2020-09-08T16:10:36Z</time>
      </trkpt>
      <trkpt lat="43.0544740" lon="-2.2724280">
        <ele>367.6</ele>
        <time>2020-09-08T16:10:37Z</time>
      </trkpt>
      <trkpt lat="43.0543630" lon="-2.2721010">
        <ele>366.0</ele>
        <time>2020-09-08T16:10:39Z</time>
      </trkpt>
      <trkpt lat="43.0543700" lon="-2.2717170">
        <ele>364.6</ele>
        <time>2020-09-08T16:10:41Z</time>
      </trkpt>
      <trkpt lat="43.0543960" lon="-2.2715370">
        <ele>363.4</ele>
        <time>2020-09-08T16:10:42Z</time>
      </trkpt>
      <trkpt lat="43.0544020" lon="-2.2713720">
        <ele>361.6</ele>
        <time>2020-09-08T16:10:43Z</time>
      </trkpt>
      <trkpt lat="43.0543710" lon="-2.2712230">
        <ele>359.6</ele>
        <time>2020-09-08T16:10:44Z</time>
      </trkpt>
      <trkpt lat="43.0543140" lon="-2.2710850">
        <ele>357.6</ele>
        <time>2020-09-08T16:10:45Z</time>
      </trkpt>
      <trkpt lat="43.0542640" lon="-2.2709360">
        <ele>356.2</ele>
        <time>2020-09-08T16:10:46Z</time>
      </trkpt>
      <trkpt lat="43.0542510" lon="-2.2707830">
        <ele>354.4</ele>
        <time>2020-09-08T16:10:47Z</time>
      </trkpt>
      <trkpt lat="43.0542900" lon="-2.2706410">
        <ele>352.6</ele>
        <time>2020-09-08T16:10:48Z</time>
      </trkpt>
      <trkpt lat="43.0543680" lon="-2.2705280">
        <ele>351.0</ele>
        <time>2020-09-08T16:10:49Z</time>
      </trkpt>
      <trkpt lat="43.0544630" lon="-2.2703990">
        <ele>349.4</ele>
        <time>2020-09-08T16:10:50Z</time>
      </trkpt>
      <trkpt lat="43.0545440" lon="-2.2702470">
        <ele>348.4</ele>
        <time>2020-09-08T16:10:51Z</time>
      </trkpt>
      <trkpt lat="43.0545830" lon="-2.2700690">
        <ele>347.0</ele>
        <time>2020-09-08T16:10:52Z</time>
      </trkpt>
      <trkpt lat="43.0545940" lon="-2.2698840">
        <ele>345.2</ele>
        <time>2020-09-08T16:10:53Z</time>
      </trkpt>
      <trkpt lat="43.0545760" lon="-2.2696880">
        <ele>343.8</ele>
        <time>2020-09-08T16:10:54Z</time>
      </trkpt>
      <trkpt lat="43.0545620" lon="-2.2694860">
        <ele>342.4</ele>
        <time>2020-09-08T16:10:55Z</time>
      </trkpt>
      <trkpt lat="43.0545630" lon="-2.2692820">
        <ele>341.0</ele>
        <time>2020-09-08T16:10:56Z</time>
      </trkpt>
      <trkpt lat="43.0545710" lon="-2.2690750">
        <ele>339.2</ele>
        <time>2020-09-08T16:10:57Z</time>
      </trkpt>
      <trkpt lat="43.0545910" lon="-2.2688730">
        <ele>337.2</ele>
        <time>2020-09-08T16:10:58Z</time>
      </trkpt>
      <trkpt lat="43.0546210" lon="-2.2686770">
        <ele>335.4</ele>
        <time>2020-09-08T16:10:59Z</time>
      </trkpt>
      <trkpt lat="43.0546570" lon="-2.2684880">
        <ele>333.6</ele>
        <time>2020-09-08T16:11:00Z</time>
      </trkpt>
      <trkpt lat="43.0546970" lon="-2.2683060">
        <ele>332.4</ele>
        <time>2020-09-08T16:11:01Z</time>
      </trkpt>
      <trkpt lat="43.0547400" lon="-2.2681250">
        <ele>331.0</ele>
        <time>2020-09-08T16:11:02Z</time>
      </trkpt>
      <trkpt lat="43.0547810" lon="-2.2679470">
        <ele>329.4</ele>
        <time>2020-09-08T16:11:03Z</time>
      </trkpt>
      <trkpt lat="43.0548130" lon="-2.2677680">
        <ele>328.0</ele>
        <time>2020-09-08T16:11:04Z</time>
      </trkpt>
      <trkpt lat="43.0548400" lon="-2.2675850">
        <ele>326.4</ele>
        <time>2020-09-08T16:11:05Z</time>
      </trkpt>
      <trkpt lat="43.0548480" lon="-2.2674020">
        <ele>325.4</ele>
        <time>2020-09-08T16:11:06Z</time>
      </trkpt>
      <trkpt lat="43.0548170" lon="-2.2670350">
        <ele>324.0</ele>
        <time>2020-09-08T16:11:08Z</time>
      </trkpt>
      <trkpt lat="43.0547130" lon="-2.2666730">
        <ele>323.4</ele>
        <time>2020-09-08T16:11:10Z</time>
      </trkpt>
      <trkpt lat="43.0546340" lon="-2.2664900">
        <ele>322.8</ele>
        <time>2020-09-08T16:11:11Z</time>
      </trkpt>
      <trkpt lat="43.0545640" lon="-2.2663100">
        <ele>322.4</ele>
        <time>2020-09-08T16:11:12Z</time>
      </trkpt>
      <trkpt lat="43.0544890" lon="-2.2661250">
        <ele>321.6</ele>
        <time>2020-09-08T16:11:13Z</time>
      </trkpt>
      <trkpt lat="43.0543740" lon="-2.2657370">
        <ele>320.2</ele>
        <time>2020-09-08T16:11:15Z</time>
      </trkpt>
      <trkpt lat="43.0543130" lon="-2.2653340">
        <ele>318.6</ele>
        <time>2020-09-08T16:11:17Z</time>
      </trkpt>
      <trkpt lat="43.0542540" lon="-2.2651430">
        <ele>317.2</ele>
        <time>2020-09-08T16:11:18Z</time>
      </trkpt>
      <trkpt lat="43.0541720" lon="-2.2649690">
        <ele>316.2</ele>
        <time>2020-09-08T16:11:19Z</time>
      </trkpt>
      <trkpt lat="43.0539680" lon="-2.2646900">
        <ele>314.2</ele>
        <time>2020-09-08T16:11:21Z</time>
      </trkpt>
      <trkpt lat="43.0538620" lon="-2.2645600">
        <ele>312.8</ele>
        <time>2020-09-08T16:11:22Z</time>
      </trkpt>
      <trkpt lat="43.0537590" lon="-2.2644270">
        <ele>311.0</ele>
        <time>2020-09-08T16:11:23Z</time>
      </trkpt>
      <trkpt lat="43.0536580" lon="-2.2642930">
        <ele>309.4</ele>
        <time>2020-09-08T16:11:24Z</time>
      </trkpt>
      <trkpt lat="43.0534600" lon="-2.2640280">
        <ele>308.0</ele>
        <time>2020-09-08T16:11:26Z</time>
      </trkpt>
      <trkpt lat="43.0532710" lon="-2.2637640">
        <ele>307.2</ele>
        <time>2020-09-08T16:11:28Z</time>
      </trkpt>
      <trkpt lat="43.0528010" lon="-2.2631900">
        <ele>306.4</ele>
        <time>2020-09-08T16:11:33Z</time>
      </trkpt>
      <trkpt lat="43.0522800" lon="-2.2627850">
        <ele>306.4</ele>
        <time>2020-09-08T16:11:38Z</time>
      </trkpt>
      <trkpt lat="43.0517440" lon="-2.2624610">
        <ele>306.8</ele>
        <time>2020-09-08T16:11:43Z</time>
      </trkpt>
      <trkpt lat="43.0514250" lon="-2.2622950">
        <ele>307.8</ele>
        <time>2020-09-08T16:11:46Z</time>
      </trkpt>
      <trkpt lat="43.0509810" lon="-2.2621640">
        <ele>307.8</ele>
        <time>2020-09-08T16:11:50Z</time>
      </trkpt>
      <trkpt lat="43.0507830" lon="-2.2620060">
        <ele>307.8</ele>
        <time>2020-09-08T16:11:52Z</time>
      </trkpt>
      <trkpt lat="43.0506800" lon="-2.2619340">
        <ele>307.8</ele>
        <time>2020-09-08T16:11:53Z</time>
      </trkpt>
      <trkpt lat="43.0501340" lon="-2.2616510">
        <ele>307.4</ele>
        <time>2020-09-08T16:11:58Z</time>
      </trkpt>
      <trkpt lat="43.0499120" lon="-2.2615420">
        <ele>306.8</ele>
        <time>2020-09-08T16:12:00Z</time>
      </trkpt>
      <trkpt lat="43.0495780" lon="-2.2613730">
        <ele>305.8</ele>
        <time>2020-09-08T16:12:03Z</time>
      </trkpt>
      <trkpt lat="43.0491360" lon="-2.2611470">
        <ele>304.8</ele>
        <time>2020-09-08T16:12:07Z</time>
      </trkpt>
      <trkpt lat="43.0485830" lon="-2.2608640">
        <ele>304.0</ele>
        <time>2020-09-08T16:12:12Z</time>
      </trkpt>
      <trkpt lat="43.0484720" lon="-2.2608060">
        <ele>304.0</ele>
        <time>2020-09-08T16:12:13Z</time>
      </trkpt>
      <trkpt lat="43.0479110" lon="-2.2605310">
        <ele>303.0</ele>
        <time>2020-09-08T16:12:18Z</time>
      </trkpt>
      <trkpt lat="43.0477990" lon="-2.2604740">
        <ele>303.0</ele>
        <time>2020-09-08T16:12:19Z</time>
      </trkpt>
      <trkpt lat="43.0474590" lon="-2.2603020">
        <ele>302.2</ele>
        <time>2020-09-08T16:12:22Z</time>
      </trkpt>
      <trkpt lat="43.0468890" lon="-2.2600140">
        <ele>301.2</ele>
        <time>2020-09-08T16:12:27Z</time>
      </trkpt>
      <trkpt lat="43.0467760" lon="-2.2599540">
        <ele>301.0</ele>
        <time>2020-09-08T16:12:28Z</time>
      </trkpt>
      <trkpt lat="43.0462120" lon="-2.2596710">
        <ele>300.6</ele>
        <time>2020-09-08T16:12:33Z</time>
      </trkpt>
      <trkpt lat="43.0457830" lon="-2.2593940">
        <ele>300.6</ele>
        <time>2020-09-08T16:12:37Z</time>
      </trkpt>
      <trkpt lat="43.0453690" lon="-2.2588110">
        <ele>300.6</ele>
        <time>2020-09-08T16:12:42Z</time>
      </trkpt>
      <trkpt lat="43.0451390" lon="-2.2584400">
        <ele>300.4</ele>
        <time>2020-09-08T16:12:45Z</time>
      </trkpt>
      <trkpt lat="43.0447650" lon="-2.2578280">
        <ele>299.8</ele>
        <time>2020-09-08T16:12:50Z</time>
      </trkpt>
      <trkpt lat="43.0443650" lon="-2.2572620">
        <ele>299.6</ele>
        <time>2020-09-08T16:12:55Z</time>
      </trkpt>
      <trkpt lat="43.0439510" lon="-2.2567510">
        <ele>299.4</ele>
        <time>2020-09-08T16:13:00Z</time>
      </trkpt>
      <trkpt lat="43.0434090" lon="-2.2562670">
        <ele>299.2</ele>
        <time>2020-09-08T16:13:06Z</time>
      </trkpt>
      <trkpt lat="43.0432260" lon="-2.2561150">
        <ele>299.0</ele>
        <time>2020-09-08T16:13:08Z</time>
      </trkpt>
      <trkpt lat="43.0429430" lon="-2.2559360">
        <ele>298.8</ele>
        <time>2020-09-08T16:13:11Z</time>
      </trkpt>
      <trkpt lat="43.0426850" lon="-2.2552770">
        <ele>298.6</ele>
        <time>2020-09-08T16:13:18Z</time>
      </trkpt>
      <trkpt lat="43.0428160" lon="-2.2544800">
        <ele>298.6</ele>
        <time>2020-09-08T16:13:24Z</time>
      </trkpt>
      <trkpt lat="43.0428550" lon="-2.2542200">
        <ele>298.4</ele>
        <time>2020-09-08T16:13:26Z</time>
      </trkpt>
      <trkpt lat="43.0428750" lon="-2.2538190">
        <ele>296.6</ele>
        <time>2020-09-08T16:13:29Z</time>
      </trkpt>
      <trkpt lat="43.0428530" lon="-2.2533120">
        <ele>295.4</ele>
        <time>2020-09-08T16:13:33Z</time>
      </trkpt>
      <trkpt lat="43.0427660" lon="-2.2529540">
        <ele>294.6</ele>
        <time>2020-09-08T16:13:36Z</time>
      </trkpt>
      <trkpt lat="43.0426860" lon="-2.2527290">
        <ele>294.4</ele>
        <time>2020-09-08T16:13:38Z</time>
      </trkpt>
      <trkpt lat="43.0424050" lon="-2.2520230">
        <ele>294.4</ele>
        <time>2020-09-08T16:13:44Z</time>
      </trkpt>
      <trkpt lat="43.0420030" lon="-2.2514330">
        <ele>296.2</ele>
        <time>2020-09-08T16:13:50Z</time>
      </trkpt>
      <trkpt lat="43.0418800" lon="-2.2512360">
        <ele>296.6</ele>
        <time>2020-09-08T16:13:52Z</time>
      </trkpt>
      <trkpt lat="43.0417820" lon="-2.2510230">
        <ele>297.0</ele>
        <time>2020-09-08T16:13:54Z</time>
      </trkpt>
      <trkpt lat="43.0417130" lon="-2.2507980">
        <ele>297.6</ele>
        <time>2020-09-08T16:13:56Z</time>
      </trkpt>
      <trkpt lat="43.0416740" lon="-2.2504350">
        <ele>298.8</ele>
        <time>2020-09-08T16:13:59Z</time>
      </trkpt>
      <trkpt lat="43.0416740" lon="-2.2503130">
        <ele>299.2</ele>
        <time>2020-09-08T16:14:00Z</time>
      </trkpt>
      <trkpt lat="43.0416930" lon="-2.2500730">
        <ele>300.6</ele>
        <time>2020-09-08T16:14:02Z</time>
      </trkpt>
      <trkpt lat="43.0417230" lon="-2.2498410">
        <ele>302.6</ele>
        <time>2020-09-08T16:14:04Z</time>
      </trkpt>
      <trkpt lat="43.0417520" lon="-2.2496120">
        <ele>303.8</ele>
        <time>2020-09-08T16:14:06Z</time>
      </trkpt>
      <trkpt lat="43.0418290" lon="-2.2490480">
        <ele>305.2</ele>
        <time>2020-09-08T16:14:11Z</time>
      </trkpt>
      <trkpt lat="43.0419410" lon="-2.2482340">
        <ele>306.0</ele>
        <time>2020-09-08T16:14:18Z</time>
      </trkpt>
      <trkpt lat="43.0420760" lon="-2.2475220">
        <ele>306.2</ele>
        <time>2020-09-08T16:14:24Z</time>
      </trkpt>
      <trkpt lat="43.0422700" lon="-2.2468020">
        <ele>305.2</ele>
        <time>2020-09-08T16:14:30Z</time>
      </trkpt>
      <trkpt lat="43.0423020" lon="-2.2466860">
        <ele>305.0</ele>
        <time>2020-09-08T16:14:31Z</time>
      </trkpt>
      <trkpt lat="43.0424950" lon="-2.2460150">
        <ele>304.6</ele>
        <time>2020-09-08T16:14:37Z</time>
      </trkpt>
      <trkpt lat="43.0425620" lon="-2.2457870">
        <ele>303.8</ele>
        <time>2020-09-08T16:14:39Z</time>
      </trkpt>
      <trkpt lat="43.0427810" lon="-2.2450820">
        <ele>303.2</ele>
        <time>2020-09-08T16:14:45Z</time>
      </trkpt>
      <trkpt lat="43.0428810" lon="-2.2448440">
        <ele>303.0</ele>
        <time>2020-09-08T16:14:47Z</time>
      </trkpt>
      <trkpt lat="43.0432420" lon="-2.2442690">
        <ele>302.2</ele>
        <time>2020-09-08T16:14:52Z</time>
      </trkpt>
      <trkpt lat="43.0434030" lon="-2.2440360">
        <ele>301.0</ele>
        <time>2020-09-08T16:14:54Z</time>
      </trkpt>
      <trkpt lat="43.0434820" lon="-2.2439160">
        <ele>300.2</ele>
        <time>2020-09-08T16:14:55Z</time>
      </trkpt>
      <trkpt lat="43.0436410" lon="-2.2436770">
        <ele>298.4</ele>
        <time>2020-09-08T16:14:57Z</time>
      </trkpt>
      <trkpt lat="43.0437220" lon="-2.2435600">
        <ele>296.8</ele>
        <time>2020-09-08T16:14:58Z</time>
      </trkpt>
      <trkpt lat="43.0438050" lon="-2.2434420">
        <ele>295.6</ele>
        <time>2020-09-08T16:14:59Z</time>
      </trkpt>
      <trkpt lat="43.0439700" lon="-2.2432030">
        <ele>294.4</ele>
        <time>2020-09-08T16:15:01Z</time>
      </trkpt>
      <trkpt lat="43.0441260" lon="-2.2429500">
        <ele>292.4</ele>
        <time>2020-09-08T16:15:03Z</time>
      </trkpt>
      <trkpt lat="43.0441940" lon="-2.2428140">
        <ele>291.2</ele>
        <time>2020-09-08T16:15:04Z</time>
      </trkpt>
      <trkpt lat="43.0443040" lon="-2.2425270">
        <ele>290.0</ele>
        <time>2020-09-08T16:15:06Z</time>
      </trkpt>
      <trkpt lat="43.0443990" lon="-2.2420850">
        <ele>289.0</ele>
        <time>2020-09-08T16:15:09Z</time>
      </trkpt>
      <trkpt lat="43.0444780" lon="-2.2416620">
        <ele>287.0</ele>
        <time>2020-09-08T16:15:12Z</time>
      </trkpt>
      <trkpt lat="43.0445080" lon="-2.2413840">
        <ele>286.0</ele>
        <time>2020-09-08T16:15:14Z</time>
      </trkpt>
      <trkpt lat="43.0445120" lon="-2.2412450">
        <ele>285.8</ele>
        <time>2020-09-08T16:15:15Z</time>
      </trkpt>
      <trkpt lat="43.0445020" lon="-2.2408380">
        <ele>285.8</ele>
        <time>2020-09-08T16:15:18Z</time>
      </trkpt>
      <trkpt lat="43.0447430" lon="-2.2402240">
        <ele>286.4</ele>
        <time>2020-09-08T16:15:23Z</time>
      </trkpt>
      <trkpt lat="43.0448840" lon="-2.2395090">
        <ele>287.4</ele>
        <time>2020-09-08T16:15:28Z</time>
      </trkpt>
      <trkpt lat="43.0449020" lon="-2.2393580">
        <ele>287.4</ele>
        <time>2020-09-08T16:15:29Z</time>
      </trkpt>
      <trkpt lat="43.0449060" lon="-2.2390500">
        <ele>287.6</ele>
        <time>2020-09-08T16:15:31Z</time>
      </trkpt>
      <trkpt lat="43.0448420" lon="-2.2382280">
        <ele>287.6</ele>
        <time>2020-09-08T16:15:36Z</time>
      </trkpt>
      <trkpt lat="43.0447670" lon="-2.2374010">
        <ele>287.2</ele>
        <time>2020-09-08T16:15:41Z</time>
      </trkpt>
      <trkpt lat="43.0447490" lon="-2.2372360">
        <ele>286.4</ele>
        <time>2020-09-08T16:15:42Z</time>
      </trkpt>
      <trkpt lat="43.0447140" lon="-2.2367500">
        <ele>285.4</ele>
        <time>2020-09-08T16:15:45Z</time>
      </trkpt>
      <trkpt lat="43.0447320" lon="-2.2364320">
        <ele>284.2</ele>
        <time>2020-09-08T16:15:47Z</time>
      </trkpt>
      <trkpt lat="43.0447580" lon="-2.2362790">
        <ele>284.2</ele>
        <time>2020-09-08T16:15:48Z</time>
      </trkpt>
      <trkpt lat="43.0450390" lon="-2.2355850">
        <ele>283.6</ele>
        <time>2020-09-08T16:15:53Z</time>
      </trkpt>
      <trkpt lat="43.0451850" lon="-2.2353440">
        <ele>283.4</ele>
        <time>2020-09-08T16:15:55Z</time>
      </trkpt>
      <trkpt lat="43.0454760" lon="-2.2348720">
        <ele>282.4</ele>
        <time>2020-09-08T16:15:59Z</time>
      </trkpt>
      <trkpt lat="43.0456880" lon="-2.2345220">
        <ele>281.6</ele>
        <time>2020-09-08T16:16:02Z</time>
      </trkpt>
      <trkpt lat="43.0460400" lon="-2.2339560">
        <ele>281.2</ele>
        <time>2020-09-08T16:16:07Z</time>
      </trkpt>
      <trkpt lat="43.0464130" lon="-2.2334190">
        <ele>281.0</ele>
        <time>2020-09-08T16:16:12Z</time>
      </trkpt>
      <trkpt lat="43.0467640" lon="-2.2330550">
        <ele>281.2</ele>
        <time>2020-09-08T16:16:16Z</time>
      </trkpt>
      <trkpt lat="43.0472090" lon="-2.2325950">
        <ele>281.0</ele>
        <time>2020-09-08T16:16:21Z</time>
      </trkpt>
      <trkpt lat="43.0476540" lon="-2.2321380">
        <ele>281.0</ele>
        <time>2020-09-08T16:16:26Z</time>
      </trkpt>
      <trkpt lat="43.0481510" lon="-2.2317920">
        <ele>280.8</ele>
        <time>2020-09-08T16:16:31Z</time>
      </trkpt>
      <trkpt lat="43.0483420" lon="-2.2316430">
        <ele>280.6</ele>
        <time>2020-09-08T16:16:33Z</time>
      </trkpt>
      <trkpt lat="43.0484320" lon="-2.2315580">
        <ele>280.2</ele>
        <time>2020-09-08T16:16:34Z</time>
      </trkpt>
      <trkpt lat="43.0488220" lon="-2.2310820">
        <ele>279.6</ele>
        <time>2020-09-08T16:16:39Z</time>
      </trkpt>
      <trkpt lat="43.0488880" lon="-2.2309860">
        <ele>279.4</ele>
        <time>2020-09-08T16:16:40Z</time>
      </trkpt>
      <trkpt lat="43.0492490" lon="-2.2303730">
        <ele>279.4</ele>
        <time>2020-09-08T16:16:46Z</time>
      </trkpt>
      <trkpt lat="43.0493730" lon="-2.2300300">
        <ele>279.4</ele>
        <time>2020-09-08T16:16:49Z</time>
      </trkpt>
      <trkpt lat="43.0495230" lon="-2.2292820">
        <ele>280.0</ele>
        <time>2020-09-08T16:16:55Z</time>
      </trkpt>
      <trkpt lat="43.0496450" lon="-2.2285300">
        <ele>280.8</ele>
        <time>2020-09-08T16:17:01Z</time>
      </trkpt>
      <trkpt lat="43.0498510" lon="-2.2279390">
        <ele>281.8</ele>
        <time>2020-09-08T16:17:06Z</time>
      </trkpt>
      <trkpt lat="43.0501800" lon="-2.2272240">
        <ele>281.8</ele>
        <time>2020-09-08T16:17:12Z</time>
      </trkpt>
      <trkpt lat="43.0504650" lon="-2.2266130">
        <ele>280.8</ele>
        <time>2020-09-08T16:17:17Z</time>
      </trkpt>
      <trkpt lat="43.0508110" lon="-2.2258920">
        <ele>280.0</ele>
        <time>2020-09-08T16:17:23Z</time>
      </trkpt>
      <trkpt lat="43.0508870" lon="-2.2257880">
        <ele>280.0</ele>
        <time>2020-09-08T16:17:24Z</time>
      </trkpt>
      <trkpt lat="43.0513180" lon="-2.2253230">
        <ele>279.4</ele>
        <time>2020-09-08T16:17:29Z</time>
      </trkpt>
      <trkpt lat="43.0514910" lon="-2.2251360">
        <ele>279.0</ele>
        <time>2020-09-08T16:17:31Z</time>
      </trkpt>
      <trkpt lat="43.0519200" lon="-2.2246500">
        <ele>278.2</ele>
        <time>2020-09-08T16:17:36Z</time>
      </trkpt>
      <trkpt lat="43.0520810" lon="-2.2244420">
        <ele>277.2</ele>
        <time>2020-09-08T16:17:38Z</time>
      </trkpt>
      <trkpt lat="43.0523070" lon="-2.2241190">
        <ele>276.0</ele>
        <time>2020-09-08T16:17:41Z</time>
      </trkpt>
      <trkpt lat="43.0527140" lon="-2.2234400">
        <ele>275.8</ele>
        <time>2020-09-08T16:17:47Z</time>
      </trkpt>
      <trkpt lat="43.0529460" lon="-2.2227800">
        <ele>275.6</ele>
        <time>2020-09-08T16:17:52Z</time>
      </trkpt>
      <trkpt lat="43.0529900" lon="-2.2224880">
        <ele>275.4</ele>
        <time>2020-09-08T16:17:54Z</time>
      </trkpt>
      <trkpt lat="43.0530110" lon="-2.2220400">
        <ele>275.2</ele>
        <time>2020-09-08T16:17:57Z</time>
      </trkpt>
      <trkpt lat="43.0528720" lon="-2.2213190">
        <ele>274.8</ele>
        <time>2020-09-08T16:18:02Z</time>
      </trkpt>
      <trkpt lat="43.0528190" lon="-2.2211890">
        <ele>274.8</ele>
        <time>2020-09-08T16:18:03Z</time>
      </trkpt>
      <trkpt lat="43.0527610" lon="-2.2210620">
        <ele>274.4</ele>
        <time>2020-09-08T16:18:04Z</time>
      </trkpt>
      <trkpt lat="43.0526410" lon="-2.2208120">
        <ele>273.8</ele>
        <time>2020-09-08T16:18:06Z</time>
      </trkpt>
      <trkpt lat="43.0523610" lon="-2.2203590">
        <ele>273.4</ele>
        <time>2020-09-08T16:18:10Z</time>
      </trkpt>
      <trkpt lat="43.0520850" lon="-2.2201210">
        <ele>273.0</ele>
        <time>2020-09-08T16:18:13Z</time>
      </trkpt>
      <trkpt lat="43.0518800" lon="-2.2200270">
        <ele>272.4</ele>
        <time>2020-09-08T16:18:15Z</time>
      </trkpt>
      <trkpt lat="43.0515640" lon="-2.2199370">
        <ele>272.2</ele>
        <time>2020-09-08T16:18:18Z</time>
      </trkpt>
      <trkpt lat="43.0509640" lon="-2.2196650">
        <ele>271.8</ele>
        <time>2020-09-08T16:18:24Z</time>
      </trkpt>
      <trkpt lat="43.0508760" lon="-2.2195830">
        <ele>271.8</ele>
        <time>2020-09-08T16:18:25Z</time>
      </trkpt>
      <trkpt lat="43.0507090" lon="-2.2193890">
        <ele>271.6</ele>
        <time>2020-09-08T16:18:27Z</time>
      </trkpt>
      <trkpt lat="43.0503120" lon="-2.2188690">
        <ele>270.8</ele>
        <time>2020-09-08T16:18:32Z</time>
      </trkpt>
      <trkpt lat="43.0499980" lon="-2.2184580">
        <ele>270.6</ele>
        <time>2020-09-08T16:18:36Z</time>
      </trkpt>
      <trkpt lat="43.0496610" lon="-2.2181000">
        <ele>269.6</ele>
        <time>2020-09-08T16:18:40Z</time>
      </trkpt>
      <trkpt lat="43.0491110" lon="-2.2177150">
        <ele>269.0</ele>
        <time>2020-09-08T16:18:46Z</time>
      </trkpt>
      <trkpt lat="43.0487280" lon="-2.2175710">
        <ele>268.8</ele>
        <time>2020-09-08T16:18:50Z</time>
      </trkpt>
      <trkpt lat="43.0481500" lon="-2.2174450">
        <ele>269.2</ele>
        <time>2020-09-08T16:18:56Z</time>
      </trkpt>
      <trkpt lat="43.0475860" lon="-2.2172760">
        <ele>269.2</ele>
        <time>2020-09-08T16:19:02Z</time>
      </trkpt>
      <trkpt lat="43.0471390" lon="-2.2169920">
        <ele>269.2</ele>
        <time>2020-09-08T16:19:07Z</time>
      </trkpt>
      <trkpt lat="43.0466960" lon="-2.2164600">
        <ele>269.0</ele>
        <time>2020-09-08T16:19:13Z</time>
      </trkpt>
      <trkpt lat="43.0465750" lon="-2.2162500">
        <ele>268.8</ele>
        <time>2020-09-08T16:19:15Z</time>
      </trkpt>
      <trkpt lat="43.0462720" lon="-2.2157540">
        <ele>267.8</ele>
        <time>2020-09-08T16:19:20Z</time>
      </trkpt>
      <trkpt lat="43.0461300" lon="-2.2156060">
        <ele>267.6</ele>
        <time>2020-09-08T16:19:22Z</time>
      </trkpt>
      <trkpt lat="43.0458030" lon="-2.2156520">
        <ele>267.4</ele>
        <time>2020-09-08T16:19:26Z</time>
      </trkpt>
      <trkpt lat="43.0452640" lon="-2.2159850">
        <ele>268.0</ele>
        <time>2020-09-08T16:19:34Z</time>
      </trkpt>
      <trkpt lat="43.0450810" lon="-2.2160770">
        <ele>269.8</ele>
        <time>2020-09-08T16:19:37Z</time>
      </trkpt>
      <trkpt lat="43.0449620" lon="-2.2161210">
        <ele>270.8</ele>
        <time>2020-09-08T16:19:39Z</time>
      </trkpt>
      <trkpt lat="43.0447920" lon="-2.2161590">
        <ele>272.0</ele>
        <time>2020-09-08T16:19:42Z</time>
      </trkpt>
      <trkpt lat="43.0445750" lon="-2.2162080">
        <ele>273.2</ele>
        <time>2020-09-08T16:19:46Z</time>
      </trkpt>
      <trkpt lat="43.0444670" lon="-2.2162230">
        <ele>274.4</ele>
        <time>2020-09-08T16:19:48Z</time>
      </trkpt>
      <trkpt lat="43.0444140" lon="-2.2162200">
        <ele>274.6</ele>
        <time>2020-09-08T16:19:49Z</time>
      </trkpt>
      <trkpt lat="43.0438710" lon="-2.2162940">
        <ele>275.0</ele>
        <time>2020-09-08T16:19:56Z</time>
      </trkpt>
      <trkpt lat="43.0433050" lon="-2.2163680">
        <ele>273.8</ele>
        <time>2020-09-08T16:20:02Z</time>
      </trkpt>
      <trkpt lat="43.0431030" lon="-2.2163970">
        <ele>272.6</ele>
        <time>2020-09-08T16:20:04Z</time>
      </trkpt>
      <trkpt lat="43.0429020" lon="-2.2164250">
        <ele>271.4</ele>
        <time>2020-09-08T16:20:06Z</time>
      </trkpt>
      <trkpt lat="43.0427160" lon="-2.2164480">
        <ele>270.6</ele>
        <time>2020-09-08T16:20:08Z</time>
      </trkpt>
      <trkpt lat="43.0424560" lon="-2.2164730">
        <ele>269.4</ele>
        <time>2020-09-08T16:20:11Z</time>
      </trkpt>
      <trkpt lat="43.0423020" lon="-2.2165020">
        <ele>268.4</ele>
        <time>2020-09-08T16:20:13Z</time>
      </trkpt>
      <trkpt lat="43.0417240" lon="-2.2165850">
        <ele>267.8</ele>
        <time>2020-09-08T16:20:21Z</time>
      </trkpt>
      <trkpt lat="43.0411780" lon="-2.2166600">
        <ele>268.8</ele>
        <time>2020-09-08T16:20:28Z</time>
      </trkpt>
      <trkpt lat="43.0405830" lon="-2.2167440">
        <ele>269.8</ele>
        <time>2020-09-08T16:20:36Z</time>
      </trkpt>
      <trkpt lat="43.0400730" lon="-2.2168180">
        <ele>270.0</ele>
        <time>2020-09-08T16:20:43Z</time>
      </trkpt>
      <trkpt lat="43.0396960" lon="-2.2169110">
        <ele>271.2</ele>
        <time>2020-09-08T16:20:48Z</time>
      </trkpt>
      <trkpt lat="43.0391390" lon="-2.2170870">
        <ele>272.2</ele>
        <time>2020-09-08T16:20:56Z</time>
      </trkpt>
      <trkpt lat="43.0389220" lon="-2.2171480">
        <ele>272.8</ele>
        <time>2020-09-08T16:21:00Z</time>
      </trkpt>
      <trkpt lat="43.0387710" lon="-2.2171490">
        <ele>274.0</ele>
        <time>2020-09-08T16:21:03Z</time>
      </trkpt>
      <trkpt lat="43.0386790" lon="-2.2171130">
        <ele>275.4</ele>
        <time>2020-09-08T16:21:05Z</time>
      </trkpt>
      <trkpt lat="43.0385990" lon="-2.2170420">
        <ele>276.6</ele>
        <time>2020-09-08T16:21:07Z</time>
      </trkpt>
      <trkpt lat="43.0385290" lon="-2.2169490">
        <ele>277.2</ele>
        <time>2020-09-08T16:21:09Z</time>
      </trkpt>
      <trkpt lat="43.0384940" lon="-2.2168990">
        <ele>277.8</ele>
        <time>2020-09-08T16:21:10Z</time>
      </trkpt>
      <trkpt lat="43.0383540" lon="-2.2166940">
        <ele>279.2</ele>
        <time>2020-09-08T16:21:14Z</time>
      </trkpt>
      <trkpt lat="43.0381470" lon="-2.2165790">
        <ele>280.2</ele>
        <time>2020-09-08T16:21:18Z</time>
      </trkpt>
      <trkpt lat="43.0377910" lon="-2.2162670">
        <ele>280.8</ele>
        <time>2020-09-08T16:21:28Z</time>
      </trkpt>
      <trkpt lat="43.0377340" lon="-2.2162930">
        <ele>280.8</ele>
        <time>2020-09-08T16:21:29Z</time>
      </trkpt>
      <trkpt lat="43.0373820" lon="-2.2164270">
        <ele>282.0</ele>
        <time>2020-09-08T16:21:35Z</time>
      </trkpt>
      <trkpt lat="43.0368410" lon="-2.2165840">
        <ele>283.0</ele>
        <time>2020-09-08T16:21:45Z</time>
      </trkpt>
      <trkpt lat="43.0367290" lon="-2.2166270">
        <ele>283.4</ele>
        <time>2020-09-08T16:21:47Z</time>
      </trkpt>
      <trkpt lat="43.0362520" lon="-2.2168070">
        <ele>283.8</ele>
        <time>2020-09-08T16:21:56Z</time>
      </trkpt>
      <trkpt lat="43.0359780" lon="-2.2168800">
        <ele>283.8</ele>
        <time>2020-09-08T16:22:01Z</time>
      </trkpt>
      <trkpt lat="43.0356410" lon="-2.2170150">
        <ele>284.0</ele>
        <time>2020-09-08T16:22:07Z</time>
      </trkpt>
      <trkpt lat="43.0355240" lon="-2.2170430">
        <ele>284.0</ele>
        <time>2020-09-08T16:22:09Z</time>
      </trkpt>
      <trkpt lat="43.0354500" lon="-2.2174380">
        <ele>283.8</ele>
        <time>2020-09-08T16:22:14Z</time>
      </trkpt>
      <trkpt lat="43.0354640" lon="-2.2175840">
        <ele>283.6</ele>
        <time>2020-09-08T16:22:16Z</time>
      </trkpt>
      <trkpt lat="43.0354070" lon="-2.2176990">
        <ele>283.0</ele>
        <time>2020-09-08T16:22:18Z</time>
      </trkpt>
      <trkpt lat="43.0353060" lon="-2.2177830">
        <ele>281.2</ele>
        <time>2020-09-08T16:22:20Z</time>
      </trkpt>
      <trkpt lat="43.0351780" lon="-2.2178260">
        <ele>280.2</ele>
        <time>2020-09-08T16:22:22Z</time>
      </trkpt>
      <trkpt lat="43.0349780" lon="-2.2178890">
        <ele>279.0</ele>
        <time>2020-09-08T16:22:25Z</time>
      </trkpt>
      <trkpt lat="43.0346350" lon="-2.2179970">
        <ele>278.0</ele>
        <time>2020-09-08T16:22:30Z</time>
      </trkpt>
      <trkpt lat="43.0341590" lon="-2.2181450">
        <ele>277.4</ele>
        <time>2020-09-08T16:22:37Z</time>
      </trkpt>
      <trkpt lat="43.0335630" lon="-2.2183200">
        <ele>277.0</ele>
        <time>2020-09-08T16:22:46Z</time>
      </trkpt>
      <trkpt lat="43.0329810" lon="-2.2184950">
        <ele>277.4</ele>
        <time>2020-09-08T16:22:55Z</time>
      </trkpt>
      <trkpt lat="43.0324520" lon="-2.2186570">
        <ele>277.8</ele>
        <time>2020-09-08T16:23:03Z</time>
      </trkpt>
      <trkpt lat="43.0319260" lon="-2.2188250">
        <ele>278.8</ele>
        <time>2020-09-08T16:23:11Z</time>
      </trkpt>
      <trkpt lat="43.0313930" lon="-2.2190040">
        <ele>279.2</ele>
        <time>2020-09-08T16:23:19Z</time>
      </trkpt>
      <trkpt lat="43.0308050" lon="-2.2191810">
        <ele>279.8</ele>
        <time>2020-09-08T16:23:28Z</time>
      </trkpt>
      <trkpt lat="43.0304870" lon="-2.2192620">
        <ele>279.8</ele>
        <time>2020-09-08T16:23:33Z</time>
      </trkpt>
      <trkpt lat="43.0302330" lon="-2.2191380">
        <ele>280.0</ele>
        <time>2020-09-08T16:23:37Z</time>
      </trkpt>
      <trkpt lat="43.0298660" lon="-2.2188300">
        <ele>280.0</ele>
        <time>2020-09-08T16:23:43Z</time>
      </trkpt>
      <trkpt lat="43.0296000" lon="-2.2188290">
        <ele>279.8</ele>
        <time>2020-09-08T16:23:47Z</time>
      </trkpt>
      <trkpt lat="43.0290230" lon="-2.2190310">
        <ele>280.6</ele>
        <time>2020-09-08T16:23:56Z</time>
      </trkpt>
      <trkpt lat="43.0285770" lon="-2.2191960">
        <ele>281.8</ele>
        <time>2020-09-08T16:24:03Z</time>
      </trkpt>
      <trkpt lat="43.0280450" lon="-2.2195080">
        <ele>282.6</ele>
        <time>2020-09-08T16:24:12Z</time>
      </trkpt>
      <trkpt lat="43.0275740" lon="-2.2198030">
        <ele>283.2</ele>
        <time>2020-09-08T16:24:20Z</time>
      </trkpt>
      <trkpt lat="43.0272140" lon="-2.2200200">
        <ele>284.6</ele>
        <time>2020-09-08T16:24:26Z</time>
      </trkpt>
      <trkpt lat="43.0266990" lon="-2.2203710">
        <ele>285.0</ele>
        <time>2020-09-08T16:24:35Z</time>
      </trkpt>
      <trkpt lat="43.0264580" lon="-2.2205980">
        <ele>286.0</ele>
        <time>2020-09-08T16:24:40Z</time>
      </trkpt>
      <trkpt lat="43.0263770" lon="-2.2207090">
        <ele>286.4</ele>
        <time>2020-09-08T16:24:42Z</time>
      </trkpt>
      <trkpt lat="43.0262870" lon="-2.2209920">
        <ele>287.0</ele>
        <time>2020-09-08T16:24:46Z</time>
      </trkpt>
      <trkpt lat="43.0258130" lon="-2.2208720">
        <ele>288.2</ele>
        <time>2020-09-08T16:24:55Z</time>
      </trkpt>
      <trkpt lat="43.0256110" lon="-2.2211950">
        <ele>288.4</ele>
        <time>2020-09-08T16:25:00Z</time>
      </trkpt>
      <trkpt lat="43.0255920" lon="-2.2212870">
        <ele>288.4</ele>
        <time>2020-09-08T16:25:01Z</time>
      </trkpt>
      <trkpt lat="43.0254070" lon="-2.2217020">
        <ele>287.8</ele>
        <time>2020-09-08T16:25:06Z</time>
      </trkpt>
      <trkpt lat="43.0250460" lon="-2.2223180">
        <ele>287.4</ele>
        <time>2020-09-08T16:25:14Z</time>
      </trkpt>
      <trkpt lat="43.0247810" lon="-2.2229880">
        <ele>287.2</ele>
        <time>2020-09-08T16:25:22Z</time>
      </trkpt>
      <trkpt lat="43.0245700" lon="-2.2237040">
        <ele>287.6</ele>
        <time>2020-09-08T16:25:31Z</time>
      </trkpt>
      <trkpt lat="43.0242840" lon="-2.2242680">
        <ele>289.8</ele>
        <time>2020-09-08T16:25:39Z</time>
      </trkpt>
      <trkpt lat="43.0239420" lon="-2.2248650">
        <ele>290.2</ele>
        <time>2020-09-08T16:25:48Z</time>
      </trkpt>
      <trkpt lat="43.0236480" lon="-2.2253480">
        <ele>291.4</ele>
        <time>2020-09-08T16:25:56Z</time>
      </trkpt>
      <trkpt lat="43.0236170" lon="-2.2254100">
        <ele>291.6</ele>
        <time>2020-09-08T16:25:57Z</time>
      </trkpt>
      <trkpt lat="43.0234790" lon="-2.2256470">
        <ele>292.4</ele>
        <time>2020-09-08T16:26:01Z</time>
      </trkpt>
      <trkpt lat="43.0232810" lon="-2.2260200">
        <ele>294.0</ele>
        <time>2020-09-08T16:26:07Z</time>
      </trkpt>
      <trkpt lat="43.0232070" lon="-2.2263900">
        <ele>295.4</ele>
        <time>2020-09-08T16:26:12Z</time>
      </trkpt>
      <trkpt lat="43.0232050" lon="-2.2265470">
        <ele>295.8</ele>
        <time>2020-09-08T16:26:14Z</time>
      </trkpt>
      <trkpt lat="43.0232190" lon="-2.2268610">
        <ele>296.8</ele>
        <time>2020-09-08T16:26:18Z</time>
      </trkpt>
      <trkpt lat="43.0232340" lon="-2.2271690">
        <ele>298.0</ele>
        <time>2020-09-08T16:26:22Z</time>
      </trkpt>
      <trkpt lat="43.0232550" lon="-2.2275350">
        <ele>299.2</ele>
        <time>2020-09-08T16:26:27Z</time>
      </trkpt>
      <trkpt lat="43.0232680" lon="-2.2279430">
        <ele>300.4</ele>
        <time>2020-09-08T16:26:33Z</time>
      </trkpt>
      <trkpt lat="43.0233170" lon="-2.2282950">
        <ele>301.8</ele>
        <time>2020-09-08T16:26:38Z</time>
      </trkpt>
      <trkpt lat="43.0233390" lon="-2.2285940">
        <ele>303.0</ele>
        <time>2020-09-08T16:26:42Z</time>
      </trkpt>
      <trkpt lat="43.0233600" lon="-2.2293970">
        <ele>303.6</ele>
        <time>2020-09-08T16:26:51Z</time>
      </trkpt>
      <trkpt lat="43.0232630" lon="-2.2301000">
        <ele>302.8</ele>
        <time>2020-09-08T16:26:57Z</time>
      </trkpt>
      <trkpt lat="43.0231950" lon="-2.2303630">
        <ele>302.6</ele>
        <time>2020-09-08T16:26:59Z</time>
      </trkpt>
      <trkpt lat="43.0231240" lon="-2.2306510">
        <ele>301.4</ele>
        <time>2020-09-08T16:27:01Z</time>
      </trkpt>
      <trkpt lat="43.0230690" lon="-2.2309610">
        <ele>300.2</ele>
        <time>2020-09-08T16:27:03Z</time>
      </trkpt>
      <trkpt lat="43.0230550" lon="-2.2311210">
        <ele>299.2</ele>
        <time>2020-09-08T16:27:04Z</time>
      </trkpt>
      <trkpt lat="43.0230500" lon="-2.2312820">
        <ele>298.8</ele>
        <time>2020-09-08T16:27:05Z</time>
      </trkpt>
      <trkpt lat="43.0230580" lon="-2.2316000">
        <ele>297.4</ele>
        <time>2020-09-08T16:27:07Z</time>
      </trkpt>
      <trkpt lat="43.0230650" lon="-2.2317550">
        <ele>296.4</ele>
        <time>2020-09-08T16:27:08Z</time>
      </trkpt>
      <trkpt lat="43.0230770" lon="-2.2320590">
        <ele>294.6</ele>
        <time>2020-09-08T16:27:10Z</time>
      </trkpt>
      <trkpt lat="43.0230840" lon="-2.2322070">
        <ele>293.6</ele>
        <time>2020-09-08T16:27:11Z</time>
      </trkpt>
      <trkpt lat="43.0230950" lon="-2.2324940">
        <ele>292.4</ele>
        <time>2020-09-08T16:27:13Z</time>
      </trkpt>
      <trkpt lat="43.0230960" lon="-2.2332680">
        <ele>291.8</ele>
        <time>2020-09-08T16:27:19Z</time>
      </trkpt>
      <trkpt lat="43.0230690" lon="-2.2333880">
        <ele>291.8</ele>
        <time>2020-09-08T16:27:20Z</time>
      </trkpt>
      <trkpt lat="43.0230410" lon="-2.2335040">
        <ele>291.6</ele>
        <time>2020-09-08T16:27:21Z</time>
      </trkpt>
      <trkpt lat="43.0228790" lon="-2.2339370">
        <ele>291.6</ele>
        <time>2020-09-08T16:27:25Z</time>
      </trkpt>
      <trkpt lat="43.0226050" lon="-2.2346790">
        <ele>291.6</ele>
        <time>2020-09-08T16:27:32Z</time>
      </trkpt>
      <trkpt lat="43.0224620" lon="-2.2354420">
        <ele>291.6</ele>
        <time>2020-09-08T16:27:40Z</time>
      </trkpt>
      <trkpt lat="43.0224620" lon="-2.2355310">
        <ele>291.6</ele>
        <time>2020-09-08T16:27:41Z</time>
      </trkpt>
      <trkpt lat="43.0225070" lon="-2.2359650">
        <ele>292.8</ele>
        <time>2020-09-08T16:27:46Z</time>
      </trkpt>
      <trkpt lat="43.0224930" lon="-2.2360530">
        <ele>293.4</ele>
        <time>2020-09-08T16:27:47Z</time>
      </trkpt>
      <trkpt lat="43.0223840" lon="-2.2362820">
        <ele>294.0</ele>
        <time>2020-09-08T16:27:50Z</time>
      </trkpt>
      <trkpt lat="43.0221060" lon="-2.2369850">
        <ele>294.2</ele>
        <time>2020-09-08T16:27:58Z</time>
      </trkpt>
      <trkpt lat="43.0219440" lon="-2.2377200">
        <ele>293.8</ele>
        <time>2020-09-08T16:28:06Z</time>
      </trkpt>
      <trkpt lat="43.0217590" lon="-2.2384640">
        <ele>295.2</ele>
        <time>2020-09-08T16:28:14Z</time>
      </trkpt>
      <trkpt lat="43.0216040" lon="-2.2389020">
        <ele>296.2</ele>
        <time>2020-09-08T16:28:19Z</time>
      </trkpt>
      <trkpt lat="43.0212500" lon="-2.2395610">
        <ele>297.0</ele>
        <time>2020-09-08T16:28:28Z</time>
      </trkpt>
      <trkpt lat="43.0210980" lon="-2.2398140">
        <ele>297.8</ele>
        <time>2020-09-08T16:28:32Z</time>
      </trkpt>
      <trkpt lat="43.0209580" lon="-2.2400600">
        <ele>299.0</ele>
        <time>2020-09-08T16:28:36Z</time>
      </trkpt>
      <trkpt lat="43.0208300" lon="-2.2403150">
        <ele>300.4</ele>
        <time>2020-09-08T16:28:40Z</time>
      </trkpt>
      <trkpt lat="43.0207140" lon="-2.2405740">
        <ele>301.4</ele>
        <time>2020-09-08T16:28:44Z</time>
      </trkpt>
      <trkpt lat="43.0206150" lon="-2.2408200">
        <ele>302.8</ele>
        <time>2020-09-08T16:28:48Z</time>
      </trkpt>
      <trkpt lat="43.0205420" lon="-2.2410100">
        <ele>304.0</ele>
        <time>2020-09-08T16:28:51Z</time>
      </trkpt>
      <trkpt lat="43.0204720" lon="-2.2411960">
        <ele>305.2</ele>
        <time>2020-09-08T16:28:54Z</time>
      </trkpt>
      <trkpt lat="43.0203560" lon="-2.2414900">
        <ele>306.8</ele>
        <time>2020-09-08T16:28:59Z</time>
      </trkpt>
      <trkpt lat="43.0202570" lon="-2.2417060">
        <ele>308.2</ele>
        <time>2020-09-08T16:29:03Z</time>
      </trkpt>
      <trkpt lat="43.0201560" lon="-2.2419210">
        <ele>309.4</ele>
        <time>2020-09-08T16:29:07Z</time>
      </trkpt>
      <trkpt lat="43.0200770" lon="-2.2420840">
        <ele>310.4</ele>
        <time>2020-09-08T16:29:10Z</time>
      </trkpt>
      <trkpt lat="43.0200020" lon="-2.2422490">
        <ele>311.8</ele>
        <time>2020-09-08T16:29:13Z</time>
      </trkpt>
      <trkpt lat="43.0199400" lon="-2.2424250">
        <ele>312.8</ele>
        <time>2020-09-08T16:29:16Z</time>
      </trkpt>
      <trkpt lat="43.0198730" lon="-2.2427260">
        <ele>314.2</ele>
        <time>2020-09-08T16:29:21Z</time>
      </trkpt>
      <trkpt lat="43.0198440" lon="-2.2429750">
        <ele>315.6</ele>
        <time>2020-09-08T16:29:25Z</time>
      </trkpt>
      <trkpt lat="43.0198400" lon="-2.2431010">
        <ele>316.2</ele>
        <time>2020-09-08T16:29:27Z</time>
      </trkpt>
      <trkpt lat="43.0198510" lon="-2.2432270">
        <ele>317.0</ele>
        <time>2020-09-08T16:29:29Z</time>
      </trkpt>
      <trkpt lat="43.0199000" lon="-2.2434180">
        <ele>317.4</ele>
        <time>2020-09-08T16:29:32Z</time>
      </trkpt>
      <trkpt lat="43.0199170" lon="-2.2434870">
        <ele>317.6</ele>
        <time>2020-09-08T16:29:33Z</time>
      </trkpt>
      <trkpt lat="43.0199170" lon="-2.2436330">
        <ele>318.0</ele>
        <time>2020-09-08T16:29:35Z</time>
      </trkpt>
      <trkpt lat="43.0197840" lon="-2.2438640">
        <ele>318.6</ele>
        <time>2020-09-08T16:29:39Z</time>
      </trkpt>
      <trkpt lat="43.0196500" lon="-2.2440310">
        <ele>318.6</ele>
        <time>2020-09-08T16:29:42Z</time>
      </trkpt>
      <trkpt lat="43.0192930" lon="-2.2446630">
        <ele>319.0</ele>
        <time>2020-09-08T16:29:52Z</time>
      </trkpt>
      <trkpt lat="43.0191470" lon="-2.2449690">
        <ele>319.6</ele>
        <time>2020-09-08T16:29:57Z</time>
      </trkpt>
      <trkpt lat="43.0190460" lon="-2.2452060">
        <ele>320.8</ele>
        <time>2020-09-08T16:30:01Z</time>
      </trkpt>
      <trkpt lat="43.0189550" lon="-2.2454440">
        <ele>322.2</ele>
        <time>2020-09-08T16:30:05Z</time>
      </trkpt>
      <trkpt lat="43.0189060" lon="-2.2455620">
        <ele>323.2</ele>
        <time>2020-09-08T16:30:07Z</time>
      </trkpt>
      <trkpt lat="43.0188230" lon="-2.2457330">
        <ele>324.4</ele>
        <time>2020-09-08T16:30:10Z</time>
      </trkpt>
      <trkpt lat="43.0186800" lon="-2.2459490">
        <ele>325.6</ele>
        <time>2020-09-08T16:30:14Z</time>
      </trkpt>
      <trkpt lat="43.0182300" lon="-2.2464440">
        <ele>326.8</ele>
        <time>2020-09-08T16:30:24Z</time>
      </trkpt>
      <trkpt lat="43.0177870" lon="-2.2469310">
        <ele>326.8</ele>
        <time>2020-09-08T16:30:33Z</time>
      </trkpt>
      <trkpt lat="43.0173640" lon="-2.2474120">
        <ele>326.6</ele>
        <time>2020-09-08T16:30:41Z</time>
      </trkpt>
      <trkpt lat="43.0169210" lon="-2.2479230">
        <ele>326.0</ele>
        <time>2020-09-08T16:30:49Z</time>
      </trkpt>
      <trkpt lat="43.0164920" lon="-2.2484170">
        <ele>326.0</ele>
        <time>2020-09-08T16:30:57Z</time>
      </trkpt>
      <trkpt lat="43.0160630" lon="-2.2489090">
        <ele>326.8</ele>
        <time>2020-09-08T16:31:05Z</time>
      </trkpt>
      <trkpt lat="43.0156220" lon="-2.2493470">
        <ele>326.8</ele>
        <time>2020-09-08T16:31:12Z</time>
      </trkpt>
      <trkpt lat="43.0151790" lon="-2.2496890">
        <ele>325.8</ele>
        <time>2020-09-08T16:31:17Z</time>
      </trkpt>
      <trkpt lat="43.0149890" lon="-2.2498600">
        <ele>325.0</ele>
        <time>2020-09-08T16:31:19Z</time>
      </trkpt>
      <trkpt lat="43.0149140" lon="-2.2499820">
        <ele>324.4</ele>
        <time>2020-09-08T16:31:20Z</time>
      </trkpt>
      <trkpt lat="43.0148340" lon="-2.2502640">
        <ele>322.8</ele>
        <time>2020-09-08T16:31:22Z</time>
      </trkpt>
      <trkpt lat="43.0148180" lon="-2.2504070">
        <ele>321.6</ele>
        <time>2020-09-08T16:31:23Z</time>
      </trkpt>
      <trkpt lat="43.0147910" lon="-2.2505430">
        <ele>320.6</ele>
        <time>2020-09-08T16:31:24Z</time>
      </trkpt>
      <trkpt lat="43.0147410" lon="-2.2506660">
        <ele>319.2</ele>
        <time>2020-09-08T16:31:25Z</time>
      </trkpt>
      <trkpt lat="43.0146800" lon="-2.2507690">
        <ele>317.2</ele>
        <time>2020-09-08T16:31:26Z</time>
      </trkpt>
      <trkpt lat="43.0146130" lon="-2.2508680">
        <ele>316.2</ele>
        <time>2020-09-08T16:31:27Z</time>
      </trkpt>
      <trkpt lat="43.0144200" lon="-2.2511630">
        <ele>315.0</ele>
        <time>2020-09-08T16:31:30Z</time>
      </trkpt>
      <trkpt lat="43.0139550" lon="-2.2516510">
        <ele>314.4</ele>
        <time>2020-09-08T16:31:36Z</time>
      </trkpt>
      <trkpt lat="43.0137830" lon="-2.2517940">
        <ele>314.0</ele>
        <time>2020-09-08T16:31:38Z</time>
      </trkpt>
      <trkpt lat="43.0133520" lon="-2.2520870">
        <ele>312.8</ele>
        <time>2020-09-08T16:31:43Z</time>
      </trkpt>
      <trkpt lat="43.0128190" lon="-2.2524300">
        <ele>312.4</ele>
        <time>2020-09-08T16:31:50Z</time>
      </trkpt>
      <trkpt lat="43.0122630" lon="-2.2527880">
        <ele>313.4</ele>
        <time>2020-09-08T16:31:58Z</time>
      </trkpt>
      <trkpt lat="43.0117290" lon="-2.2531810">
        <ele>314.2</ele>
        <time>2020-09-08T16:32:06Z</time>
      </trkpt>
      <trkpt lat="43.0116100" lon="-2.2533080">
        <ele>314.4</ele>
        <time>2020-09-08T16:32:08Z</time>
      </trkpt>
      <trkpt lat="43.0112350" lon="-2.2539260">
        <ele>315.0</ele>
        <time>2020-09-08T16:32:16Z</time>
      </trkpt>
      <trkpt lat="43.0110480" lon="-2.2543500">
        <ele>315.8</ele>
        <time>2020-09-08T16:32:21Z</time>
      </trkpt>
      <trkpt lat="43.0106900" lon="-2.2549680">
        <ele>316.8</ele>
        <time>2020-09-08T16:32:29Z</time>
      </trkpt>
      <trkpt lat="43.0106340" lon="-2.2550280">
        <ele>317.0</ele>
        <time>2020-09-08T16:32:30Z</time>
      </trkpt>
      <trkpt lat="43.0101180" lon="-2.2553380">
        <ele>317.2</ele>
        <time>2020-09-08T16:32:38Z</time>
      </trkpt>
      <trkpt lat="43.0095490" lon="-2.2554080">
        <ele>317.8</ele>
        <time>2020-09-08T16:32:46Z</time>
      </trkpt>
      <trkpt lat="43.0091840" lon="-2.2554580">
        <ele>318.4</ele>
        <time>2020-09-08T16:32:51Z</time>
      </trkpt>
      <trkpt lat="43.0089740" lon="-2.2555560">
        <ele>318.6</ele>
        <time>2020-09-08T16:32:54Z</time>
      </trkpt>
      <trkpt lat="43.0086860" lon="-2.2558520">
        <ele>319.2</ele>
        <time>2020-09-08T16:32:59Z</time>
      </trkpt>
      <trkpt lat="43.0085900" lon="-2.2559950">
        <ele>319.2</ele>
        <time>2020-09-08T16:33:01Z</time>
      </trkpt>
      <trkpt lat="43.0084580" lon="-2.2563360">
        <ele>319.4</ele>
        <time>2020-09-08T16:33:05Z</time>
      </trkpt>
      <trkpt lat="43.0083870" lon="-2.2568090">
        <ele>320.0</ele>
        <time>2020-09-08T16:33:10Z</time>
      </trkpt>
      <trkpt lat="43.0083970" lon="-2.2575740">
        <ele>320.8</ele>
        <time>2020-09-08T16:33:18Z</time>
      </trkpt>
      <trkpt lat="43.0083770" lon="-2.2579450">
        <ele>321.2</ele>
        <time>2020-09-08T16:33:22Z</time>
      </trkpt>
      <trkpt lat="43.0082480" lon="-2.2584820">
        <ele>322.4</ele>
        <time>2020-09-08T16:33:28Z</time>
      </trkpt>
      <trkpt lat="43.0081830" lon="-2.2586460">
        <ele>322.8</ele>
        <time>2020-09-08T16:33:30Z</time>
      </trkpt>
      <trkpt lat="43.0077940" lon="-2.2591810">
        <ele>323.6</ele>
        <time>2020-09-08T16:33:38Z</time>
      </trkpt>
      <trkpt lat="43.0077390" lon="-2.2592400">
        <ele>323.6</ele>
        <time>2020-09-08T16:33:39Z</time>
      </trkpt>
      <trkpt lat="43.0072900" lon="-2.2596970">
        <ele>324.2</ele>
        <time>2020-09-08T16:33:47Z</time>
      </trkpt>
      <trkpt lat="43.0068500" lon="-2.2601570">
        <ele>324.6</ele>
        <time>2020-09-08T16:33:55Z</time>
      </trkpt>
      <trkpt lat="43.0066260" lon="-2.2604060">
        <ele>325.0</ele>
        <time>2020-09-08T16:33:59Z</time>
      </trkpt>
      <trkpt lat="43.0061900" lon="-2.2609440">
        <ele>325.6</ele>
        <time>2020-09-08T16:34:07Z</time>
      </trkpt>
      <trkpt lat="43.0057940" lon="-2.2615140">
        <ele>326.2</ele>
        <time>2020-09-08T16:34:15Z</time>
      </trkpt>
      <trkpt lat="43.0056820" lon="-2.2617650">
        <ele>326.6</ele>
        <time>2020-09-08T16:34:18Z</time>
      </trkpt>
      <trkpt lat="43.0056170" lon="-2.2621410">
        <ele>327.2</ele>
        <time>2020-09-08T16:34:22Z</time>
      </trkpt>
      <trkpt lat="43.0052620" lon="-2.2624110">
        <ele>327.8</ele>
        <time>2020-09-08T16:34:28Z</time>
      </trkpt>
      <trkpt lat="43.0051140" lon="-2.2624780">
        <ele>327.8</ele>
        <time>2020-09-08T16:34:30Z</time>
      </trkpt>
      <trkpt lat="43.0048340" lon="-2.2628200">
        <ele>327.4</ele>
        <time>2020-09-08T16:34:35Z</time>
      </trkpt>
      <trkpt lat="43.0045040" lon="-2.2634760">
        <ele>327.6</ele>
        <time>2020-09-08T16:34:43Z</time>
      </trkpt>
      <trkpt lat="43.0041950" lon="-2.2640920">
        <ele>328.4</ele>
        <time>2020-09-08T16:34:51Z</time>
      </trkpt>
      <trkpt lat="43.0038870" lon="-2.2646950">
        <ele>329.4</ele>
        <time>2020-09-08T16:34:59Z</time>
      </trkpt>
      <trkpt lat="43.0038500" lon="-2.2647690">
        <ele>329.4</ele>
        <time>2020-09-08T16:35:00Z</time>
      </trkpt>
      <trkpt lat="43.0035090" lon="-2.2654060">
        <ele>329.8</ele>
        <time>2020-09-08T16:35:09Z</time>
      </trkpt>
      <trkpt lat="43.0033200" lon="-2.2657390">
        <ele>331.0</ele>
        <time>2020-09-08T16:35:14Z</time>
      </trkpt>
      <trkpt lat="43.0031290" lon="-2.2660710">
        <ele>332.0</ele>
        <time>2020-09-08T16:35:19Z</time>
      </trkpt>
      <trkpt lat="43.0027730" lon="-2.2666660">
        <ele>333.2</ele>
        <time>2020-09-08T16:35:28Z</time>
      </trkpt>
      <trkpt lat="43.0026890" lon="-2.2667930">
        <ele>333.4</ele>
        <time>2020-09-08T16:35:30Z</time>
      </trkpt>
      <trkpt lat="43.0024450" lon="-2.2670410">
        <ele>333.4</ele>
        <time>2020-09-08T16:35:35Z</time>
      </trkpt>
      <trkpt lat="43.0021650" lon="-2.2671490">
        <ele>333.8</ele>
        <time>2020-09-08T16:35:40Z</time>
      </trkpt>
      <trkpt lat="43.0020480" lon="-2.2671530">
        <ele>334.0</ele>
        <time>2020-09-08T16:35:42Z</time>
      </trkpt>
      <trkpt lat="43.0019320" lon="-2.2671320">
        <ele>334.4</ele>
        <time>2020-09-08T16:35:44Z</time>
      </trkpt>
      <trkpt lat="43.0015370" lon="-2.2670100">
        <ele>335.8</ele>
        <time>2020-09-08T16:35:51Z</time>
      </trkpt>
      <trkpt lat="43.0012360" lon="-2.2670080">
        <ele>337.0</ele>
        <time>2020-09-08T16:35:56Z</time>
      </trkpt>
      <trkpt lat="43.0008370" lon="-2.2673440">
        <ele>337.8</ele>
        <time>2020-09-08T16:36:04Z</time>
      </trkpt>
      <trkpt lat="43.0007740" lon="-2.2673700">
        <ele>337.8</ele>
        <time>2020-09-08T16:36:05Z</time>
      </trkpt>
      <trkpt lat="43.0004630" lon="-2.2676960">
        <ele>338.0</ele>
        <time>2020-09-08T16:36:11Z</time>
      </trkpt>
      <trkpt lat="43.0000930" lon="-2.2683160">
        <ele>338.2</ele>
        <time>2020-09-08T16:36:20Z</time>
      </trkpt>
      <trkpt lat="42.9997990" lon="-2.2687770">
        <ele>338.4</ele>
        <time>2020-09-08T16:36:27Z</time>
      </trkpt>
      <trkpt lat="42.9993230" lon="-2.2692280">
        <ele>338.8</ele>
        <time>2020-09-08T16:36:36Z</time>
      </trkpt>
      <trkpt lat="42.9987650" lon="-2.2694820">
        <ele>339.0</ele>
        <time>2020-09-08T16:36:45Z</time>
      </trkpt>
      <trkpt lat="42.9981910" lon="-2.2697500">
        <ele>339.4</ele>
        <time>2020-09-08T16:36:54Z</time>
      </trkpt>
      <trkpt lat="42.9976890" lon="-2.2701620">
        <ele>339.6</ele>
        <time>2020-09-08T16:37:03Z</time>
      </trkpt>
      <trkpt lat="42.9974240" lon="-2.2704010">
        <ele>340.4</ele>
        <time>2020-09-08T16:37:08Z</time>
      </trkpt>
      <trkpt lat="42.9969560" lon="-2.2708240">
        <ele>341.6</ele>
        <time>2020-09-08T16:37:17Z</time>
      </trkpt>
      <trkpt lat="42.9966720" lon="-2.2710890">
        <ele>342.8</ele>
        <time>2020-09-08T16:37:23Z</time>
      </trkpt>
      <trkpt lat="42.9964880" lon="-2.2712600">
        <ele>344.0</ele>
        <time>2020-09-08T16:37:27Z</time>
      </trkpt>
      <trkpt lat="42.9962370" lon="-2.2715540">
        <ele>345.4</ele>
        <time>2020-09-08T16:37:33Z</time>
      </trkpt>
      <trkpt lat="42.9960150" lon="-2.2718560">
        <ele>249.0</ele>
        <time>2020-09-08T16:37:39Z</time>
      </trkpt>
      <trkpt lat="42.9958590" lon="-2.2720350">
        <ele>347.6</ele>
        <time>2020-09-08T16:37:43Z</time>
      </trkpt>
      <trkpt lat="42.9955470" lon="-2.2722850">
        <ele>349.0</ele>
        <time>2020-09-08T16:37:50Z</time>
      </trkpt>
      <trkpt lat="42.9953100" lon="-2.2723910">
        <ele>350.2</ele>
        <time>2020-09-08T16:37:55Z</time>
      </trkpt>
      <trkpt lat="42.9950280" lon="-2.2724640">
        <ele>351.6</ele>
        <time>2020-09-08T16:38:01Z</time>
      </trkpt>
      <trkpt lat="42.9948480" lon="-2.2725180">
        <ele>352.6</ele>
        <time>2020-09-08T16:38:05Z</time>
      </trkpt>
      <trkpt lat="42.9947600" lon="-2.2725620">
        <ele>353.4</ele>
        <time>2020-09-08T16:38:07Z</time>
      </trkpt>
      <trkpt lat="42.9946840" lon="-2.2726370">
        <ele>354.4</ele>
        <time>2020-09-08T16:38:09Z</time>
      </trkpt>
      <trkpt lat="42.9946210" lon="-2.2727450">
        <ele>355.2</ele>
        <time>2020-09-08T16:38:11Z</time>
      </trkpt>
      <trkpt lat="42.9945870" lon="-2.2727950">
        <ele>355.4</ele>
        <time>2020-09-08T16:38:12Z</time>
      </trkpt>
      <trkpt lat="42.9943510" lon="-2.2729430">
        <ele>356.6</ele>
        <time>2020-09-08T16:38:17Z</time>
      </trkpt>
      <trkpt lat="42.9937940" lon="-2.2731690">
        <ele>356.8</ele>
        <time>2020-09-08T16:38:27Z</time>
      </trkpt>
      <trkpt lat="42.9932570" lon="-2.2733150">
        <ele>357.4</ele>
        <time>2020-09-08T16:38:37Z</time>
      </trkpt>
      <trkpt lat="42.9931220" lon="-2.2733500">
        <ele>357.8</ele>
        <time>2020-09-08T16:38:40Z</time>
      </trkpt>
      <trkpt lat="42.9929840" lon="-2.2733730">
        <ele>358.8</ele>
        <time>2020-09-08T16:38:44Z</time>
      </trkpt>
      <trkpt lat="42.9929760" lon="-2.2733570">
        <ele>359.2</ele>
        <time>2020-09-08T16:38:45Z</time>
      </trkpt>
      <trkpt lat="42.9931160" lon="-2.2733210">
        <ele>359.8</ele>
        <time>2020-09-08T16:38:49Z</time>
      </trkpt>
      <trkpt lat="42.9932300" lon="-2.2732980">
        <ele>359.8</ele>
        <time>2020-09-08T16:38:51Z</time>
      </trkpt>
      <trkpt lat="42.9937910" lon="-2.2731480">
        <ele>359.6</ele>
        <time>2020-09-08T16:38:59Z</time>
      </trkpt>
      <trkpt lat="42.9939530" lon="-2.2730930">
        <ele>358.8</ele>
        <time>2020-09-08T16:39:01Z</time>
      </trkpt>
      <trkpt lat="42.9940350" lon="-2.2730510">
        <ele>358.4</ele>
        <time>2020-09-08T16:39:02Z</time>
      </trkpt>
      <trkpt lat="42.9941690" lon="-2.2729080">
        <ele>357.2</ele>
        <time>2020-09-08T16:39:04Z</time>
      </trkpt>
      <trkpt lat="42.9943180" lon="-2.2725800">
        <ele>356.0</ele>
        <time>2020-09-08T16:39:07Z</time>
      </trkpt>
      <trkpt lat="42.9943600" lon="-2.2724630">
        <ele>355.8</ele>
        <time>2020-09-08T16:39:08Z</time>
      </trkpt>
      <trkpt lat="42.9943220" lon="-2.2719320">
        <ele>355.0</ele>
        <time>2020-09-08T16:39:12Z</time>
      </trkpt>
      <trkpt lat="42.9940270" lon="-2.2715370">
        <ele>354.2</ele>
        <time>2020-09-08T16:39:16Z</time>
      </trkpt>
      <trkpt lat="42.9938630" lon="-2.2713720">
        <ele>354.0</ele>
        <time>2020-09-08T16:39:18Z</time>
      </trkpt>
      <trkpt lat="42.9934870" lon="-2.2707900">
        <ele>354.4</ele>
        <time>2020-09-08T16:39:24Z</time>
      </trkpt>
      <trkpt lat="42.9933460" lon="-2.2706430">
        <ele>355.2</ele>
        <time>2020-09-08T16:39:26Z</time>
      </trkpt>
      <trkpt lat="42.9932110" lon="-2.2705110">
        <ele>356.4</ele>
        <time>2020-09-08T16:39:28Z</time>
      </trkpt>
      <trkpt lat="42.9930750" lon="-2.2704090">
        <ele>357.6</ele>
        <time>2020-09-08T16:39:30Z</time>
      </trkpt>
      <trkpt lat="42.9929360" lon="-2.2702980">
        <ele>358.6</ele>
        <time>2020-09-08T16:39:32Z</time>
      </trkpt>
      <trkpt lat="42.9927920" lon="-2.2700860">
        <ele>360.2</ele>
        <time>2020-09-08T16:39:35Z</time>
      </trkpt>
      <trkpt lat="42.9927940" lon="-2.2699260">
        <ele>361.4</ele>
        <time>2020-09-08T16:39:37Z</time>
      </trkpt>
      <trkpt lat="42.9928690" lon="-2.2697770">
        <ele>362.4</ele>
        <time>2020-09-08T16:39:39Z</time>
      </trkpt>
      <trkpt lat="42.9929160" lon="-2.2697040">
        <ele>363.0</ele>
        <time>2020-09-08T16:39:40Z</time>
      </trkpt>
      <trkpt lat="42.9929620" lon="-2.2696270">
        <ele>363.8</ele>
        <time>2020-09-08T16:39:41Z</time>
      </trkpt>
      <trkpt lat="42.9929990" lon="-2.2695460">
        <ele>364.6</ele>
        <time>2020-09-08T16:39:42Z</time>
      </trkpt>
      <trkpt lat="42.9930310" lon="-2.2694610">
        <ele>365.4</ele>
        <time>2020-09-08T16:39:43Z</time>
      </trkpt>
      <trkpt lat="42.9930520" lon="-2.2693730">
        <ele>366.2</ele>
        <time>2020-09-08T16:39:44Z</time>
      </trkpt>
      <trkpt lat="42.9930710" lon="-2.2692870">
        <ele>367.0</ele>
        <time>2020-09-08T16:39:45Z</time>
      </trkpt>
      <trkpt lat="42.9931010" lon="-2.2691180">
        <ele>368.8</ele>
        <time>2020-09-08T16:39:47Z</time>
      </trkpt>
      <trkpt lat="42.9930980" lon="-2.2690390">
        <ele>369.2</ele>
        <time>2020-09-08T16:39:48Z</time>
      </trkpt>
      <trkpt lat="42.9930460" lon="-2.2689160">
        <ele>369.8</ele>
        <time>2020-09-08T16:39:50Z</time>
      </trkpt>
      <trkpt lat="42.9928950" lon="-2.2688660">
        <ele>372.4</ele>
        <time>2020-09-08T16:39:53Z</time>
      </trkpt>
      <trkpt lat="42.9927940" lon="-2.2688220">
        <ele>373.4</ele>
        <time>2020-09-08T16:39:55Z</time>
      </trkpt>
      <trkpt lat="42.9926290" lon="-2.2687060">
        <ele>374.4</ele>
        <time>2020-09-08T16:39:58Z</time>
      </trkpt>
      <trkpt lat="42.9923950" lon="-2.2685060">
        <ele>375.6</ele>
        <time>2020-09-08T16:40:02Z</time>
      </trkpt>
      <trkpt lat="42.9920860" lon="-2.2682030">
        <ele>377.0</ele>
        <time>2020-09-08T16:40:07Z</time>
      </trkpt>
      <trkpt lat="42.9919030" lon="-2.2680260">
        <ele>378.4</ele>
        <time>2020-09-08T16:40:10Z</time>
      </trkpt>
      <trkpt lat="42.9917970" lon="-2.2678800">
        <ele>379.6</ele>
        <time>2020-09-08T16:40:12Z</time>
      </trkpt>
      <trkpt lat="42.9916490" lon="-2.2676550">
        <ele>380.8</ele>
        <time>2020-09-08T16:40:15Z</time>
      </trkpt>
      <trkpt lat="42.9915920" lon="-2.2675970">
        <ele>381.2</ele>
        <time>2020-09-08T16:40:16Z</time>
      </trkpt>
      <trkpt lat="42.9913970" lon="-2.2675430">
        <ele>382.0</ele>
        <time>2020-09-08T16:40:19Z</time>
      </trkpt>
      <trkpt lat="42.9913350" lon="-2.2675360">
        <ele>382.2</ele>
        <time>2020-09-08T16:40:20Z</time>
      </trkpt>
      <trkpt lat="42.9911400" lon="-2.2675200">
        <ele>382.8</ele>
        <time>2020-09-08T16:40:23Z</time>
      </trkpt>
      <trkpt lat="42.9910750" lon="-2.2675050">
        <ele>383.0</ele>
        <time>2020-09-08T16:40:24Z</time>
      </trkpt>
      <trkpt lat="42.9908050" lon="-2.2674310">
        <ele>384.6</ele>
        <time>2020-09-08T16:40:28Z</time>
      </trkpt>
      <trkpt lat="42.9906060" lon="-2.2673770">
        <ele>385.8</ele>
        <time>2020-09-08T16:40:31Z</time>
      </trkpt>
      <trkpt lat="42.9904150" lon="-2.2673390">
        <ele>386.6</ele>
        <time>2020-09-08T16:40:34Z</time>
      </trkpt>
      <trkpt lat="42.9903510" lon="-2.2673620">
        <ele>387.0</ele>
        <time>2020-09-08T16:40:35Z</time>
      </trkpt>
      <trkpt lat="42.9902610" lon="-2.2675710">
        <ele>388.2</ele>
        <time>2020-09-08T16:40:38Z</time>
      </trkpt>
      <trkpt lat="42.9904960" lon="-2.2678420">
        <ele>389.4</ele>
        <time>2020-09-08T16:40:43Z</time>
      </trkpt>
      <trkpt lat="42.9905550" lon="-2.2678820">
        <ele>389.4</ele>
        <time>2020-09-08T16:40:44Z</time>
      </trkpt>
      <trkpt lat="42.9907200" lon="-2.2680260">
        <ele>390.2</ele>
        <time>2020-09-08T16:40:47Z</time>
      </trkpt>
      <trkpt lat="42.9907650" lon="-2.2680860">
        <ele>390.6</ele>
        <time>2020-09-08T16:40:48Z</time>
      </trkpt>
      <trkpt lat="42.9908760" lon="-2.2682860">
        <ele>391.6</ele>
        <time>2020-09-08T16:40:51Z</time>
      </trkpt>
      <trkpt lat="42.9909030" lon="-2.2683570">
        <ele>392.0</ele>
        <time>2020-09-08T16:40:52Z</time>
      </trkpt>
      <trkpt lat="42.9910160" lon="-2.2685530">
        <ele>393.4</ele>
        <time>2020-09-08T16:40:55Z</time>
      </trkpt>
      <trkpt lat="42.9910610" lon="-2.2686090">
        <ele>394.0</ele>
        <time>2020-09-08T16:40:56Z</time>
      </trkpt>
      <trkpt lat="42.9911040" lon="-2.2686630">
        <ele>394.4</ele>
        <time>2020-09-08T16:40:57Z</time>
      </trkpt>
      <trkpt lat="42.9912330" lon="-2.2688220">
        <ele>396.0</ele>
        <time>2020-09-08T16:41:00Z</time>
      </trkpt>
      <trkpt lat="42.9913500" lon="-2.2689930">
        <ele>398.0</ele>
        <time>2020-09-08T16:41:03Z</time>
      </trkpt>
      <trkpt lat="42.9914260" lon="-2.2691060">
        <ele>399.2</ele>
        <time>2020-09-08T16:41:05Z</time>
      </trkpt>
      <trkpt lat="42.9915010" lon="-2.2692200">
        <ele>400.4</ele>
        <time>2020-09-08T16:41:07Z</time>
      </trkpt>
      <trkpt lat="42.9915840" lon="-2.2693330">
        <ele>401.4</ele>
        <time>2020-09-08T16:41:09Z</time>
      </trkpt>
      <trkpt lat="42.9917200" lon="-2.2694900">
        <ele>402.0</ele>
        <time>2020-09-08T16:41:12Z</time>
      </trkpt>
      <trkpt lat="42.9918050" lon="-2.2696030">
        <ele>402.8</ele>
        <time>2020-09-08T16:41:14Z</time>
      </trkpt>
      <trkpt lat="42.9917970" lon="-2.2698090">
        <ele>404.0</ele>
        <time>2020-09-08T16:41:17Z</time>
      </trkpt>
      <trkpt lat="42.9916230" lon="-2.2698540">
        <ele>405.2</ele>
        <time>2020-09-08T16:41:21Z</time>
      </trkpt>
      <trkpt lat="42.9915460" lon="-2.2697920">
        <ele>405.8</ele>
        <time>2020-09-08T16:41:23Z</time>
      </trkpt>
      <trkpt lat="42.9914740" lon="-2.2696970">
        <ele>406.4</ele>
        <time>2020-09-08T16:41:25Z</time>
      </trkpt>
      <trkpt lat="42.9913960" lon="-2.2696000">
        <ele>408.0</ele>
        <time>2020-09-08T16:41:27Z</time>
      </trkpt>
      <trkpt lat="42.9913050" lon="-2.2695060">
        <ele>409.4</ele>
        <time>2020-09-08T16:41:29Z</time>
      </trkpt>
      <trkpt lat="42.9912010" lon="-2.2694230">
        <ele>410.6</ele>
        <time>2020-09-08T16:41:31Z</time>
      </trkpt>
      <trkpt lat="42.9909910" lon="-2.2693120">
        <ele>411.8</ele>
        <time>2020-09-08T16:41:35Z</time>
      </trkpt>
      <trkpt lat="42.9908360" lon="-2.2692690">
        <ele>413.4</ele>
        <time>2020-09-08T16:41:38Z</time>
      </trkpt>
      <trkpt lat="42.9907340" lon="-2.2692410">
        <ele>414.4</ele>
        <time>2020-09-08T16:41:40Z</time>
      </trkpt>
      <trkpt lat="42.9906840" lon="-2.2692200">
        <ele>414.8</ele>
        <time>2020-09-08T16:41:41Z</time>
      </trkpt>
      <trkpt lat="42.9905880" lon="-2.2691780">
        <ele>415.6</ele>
        <time>2020-09-08T16:41:43Z</time>
      </trkpt>
      <trkpt lat="42.9905430" lon="-2.2691490">
        <ele>415.8</ele>
        <time>2020-09-08T16:41:44Z</time>
      </trkpt>
      <trkpt lat="42.9904540" lon="-2.2690760">
        <ele>416.6</ele>
        <time>2020-09-08T16:41:46Z</time>
      </trkpt>
      <trkpt lat="42.9904090" lon="-2.2690340">
        <ele>417.0</ele>
        <time>2020-09-08T16:41:47Z</time>
      </trkpt>
      <trkpt lat="42.9902720" lon="-2.2689150">
        <ele>418.4</ele>
        <time>2020-09-08T16:41:50Z</time>
      </trkpt>
      <trkpt lat="42.9901800" lon="-2.2688330">
        <ele>419.6</ele>
        <time>2020-09-08T16:41:52Z</time>
      </trkpt>
      <trkpt lat="42.9899930" lon="-2.2686840">
        <ele>421.0</ele>
        <time>2020-09-08T16:41:56Z</time>
      </trkpt>
      <trkpt lat="42.9898510" lon="-2.2685860">
        <ele>422.4</ele>
        <time>2020-09-08T16:41:59Z</time>
      </trkpt>
      <trkpt lat="42.9897150" lon="-2.2684710">
        <ele>423.4</ele>
        <time>2020-09-08T16:42:02Z</time>
      </trkpt>
      <trkpt lat="42.9896150" lon="-2.2683000">
        <ele>425.0</ele>
        <time>2020-09-08T16:42:05Z</time>
      </trkpt>
      <trkpt lat="42.9895430" lon="-2.2681220">
        <ele>426.4</ele>
        <time>2020-09-08T16:42:08Z</time>
      </trkpt>
      <trkpt lat="42.9894740" lon="-2.2679440">
        <ele>427.4</ele>
        <time>2020-09-08T16:42:11Z</time>
      </trkpt>
      <trkpt lat="42.9894520" lon="-2.2678860">
        <ele>427.8</ele>
        <time>2020-09-08T16:42:12Z</time>
      </trkpt>
      <trkpt lat="42.9894130" lon="-2.2677710">
        <ele>428.6</ele>
        <time>2020-09-08T16:42:14Z</time>
      </trkpt>
      <trkpt lat="42.9893720" lon="-2.2676600">
        <ele>429.6</ele>
        <time>2020-09-08T16:42:16Z</time>
      </trkpt>
      <trkpt lat="42.9893420" lon="-2.2676070">
        <ele>430.0</ele>
        <time>2020-09-08T16:42:17Z</time>
      </trkpt>
      <trkpt lat="42.9893070" lon="-2.2675560">
        <ele>430.6</ele>
        <time>2020-09-08T16:42:18Z</time>
      </trkpt>
      <trkpt lat="42.9892320" lon="-2.2674800">
        <ele>431.4</ele>
        <time>2020-09-08T16:42:20Z</time>
      </trkpt>
      <trkpt lat="42.9891940" lon="-2.2674520">
        <ele>432.0</ele>
        <time>2020-09-08T16:42:21Z</time>
      </trkpt>
      <trkpt lat="42.9891070" lon="-2.2674260">
        <ele>433.0</ele>
        <time>2020-09-08T16:42:23Z</time>
      </trkpt>
      <trkpt lat="42.9890210" lon="-2.2674310">
        <ele>434.0</ele>
        <time>2020-09-08T16:42:25Z</time>
      </trkpt>
      <trkpt lat="42.9889780" lon="-2.2674350">
        <ele>434.2</ele>
        <time>2020-09-08T16:42:26Z</time>
      </trkpt>
      <trkpt lat="42.9889320" lon="-2.2674410">
        <ele>434.6</ele>
        <time>2020-09-08T16:42:27Z</time>
      </trkpt>
      <trkpt lat="42.9888520" lon="-2.2674560">
        <ele>435.6</ele>
        <time>2020-09-08T16:42:29Z</time>
      </trkpt>
      <trkpt lat="42.9887210" lon="-2.2674520">
        <ele>436.6</ele>
        <time>2020-09-08T16:42:32Z</time>
      </trkpt>
      <trkpt lat="42.9886110" lon="-2.2674010">
        <ele>438.0</ele>
        <time>2020-09-08T16:42:35Z</time>
      </trkpt>
      <trkpt lat="42.9885390" lon="-2.2673480">
        <ele>438.8</ele>
        <time>2020-09-08T16:42:37Z</time>
      </trkpt>
      <trkpt lat="42.9884990" lon="-2.2673180">
        <ele>439.2</ele>
        <time>2020-09-08T16:42:38Z</time>
      </trkpt>
      <trkpt lat="42.9883810" lon="-2.2672330">
        <ele>440.6</ele>
        <time>2020-09-08T16:42:41Z</time>
      </trkpt>
      <trkpt lat="42.9883060" lon="-2.2671630">
        <ele>441.6</ele>
        <time>2020-09-08T16:42:43Z</time>
      </trkpt>
      <trkpt lat="42.9882650" lon="-2.2671310">
        <ele>442.0</ele>
        <time>2020-09-08T16:42:44Z</time>
      </trkpt>
      <trkpt lat="42.9881880" lon="-2.2670680">
        <ele>443.4</ele>
        <time>2020-09-08T16:42:46Z</time>
      </trkpt>
      <trkpt lat="42.9880650" lon="-2.2669670">
        <ele>444.6</ele>
        <time>2020-09-08T16:42:49Z</time>
      </trkpt>
      <trkpt lat="42.9879510" lon="-2.2668660">
        <ele>445.6</ele>
        <time>2020-09-08T16:42:52Z</time>
      </trkpt>
      <trkpt lat="42.9878450" lon="-2.2667520">
        <ele>447.0</ele>
        <time>2020-09-08T16:42:55Z</time>
      </trkpt>
      <trkpt lat="42.9877370" lon="-2.2666310">
        <ele>448.0</ele>
        <time>2020-09-08T16:42:58Z</time>
      </trkpt>
      <trkpt lat="42.9876290" lon="-2.2665050">
        <ele>449.2</ele>
        <time>2020-09-08T16:43:01Z</time>
      </trkpt>
      <trkpt lat="42.9875210" lon="-2.2663720">
        <ele>450.2</ele>
        <time>2020-09-08T16:43:04Z</time>
      </trkpt>
      <trkpt lat="42.9874090" lon="-2.2662400">
        <ele>451.4</ele>
        <time>2020-09-08T16:43:07Z</time>
      </trkpt>
      <trkpt lat="42.9872750" lon="-2.2660470">
        <ele>453.0</ele>
        <time>2020-09-08T16:43:11Z</time>
      </trkpt>
      <trkpt lat="42.9871890" lon="-2.2658720">
        <ele>454.2</ele>
        <time>2020-09-08T16:43:14Z</time>
      </trkpt>
      <trkpt lat="42.9871450" lon="-2.2657510">
        <ele>455.0</ele>
        <time>2020-09-08T16:43:16Z</time>
      </trkpt>
      <trkpt lat="42.9871350" lon="-2.2656810">
        <ele>455.4</ele>
        <time>2020-09-08T16:43:17Z</time>
      </trkpt>
      <trkpt lat="42.9871600" lon="-2.2654750">
        <ele>456.8</ele>
        <time>2020-09-08T16:43:20Z</time>
      </trkpt>
      <trkpt lat="42.9871770" lon="-2.2654090">
        <ele>457.0</ele>
        <time>2020-09-08T16:43:21Z</time>
      </trkpt>
      <trkpt lat="42.9871930" lon="-2.2653370">
        <ele>457.6</ele>
        <time>2020-09-08T16:43:22Z</time>
      </trkpt>
      <trkpt lat="42.9871990" lon="-2.2652650">
        <ele>458.0</ele>
        <time>2020-09-08T16:43:23Z</time>
      </trkpt>
      <trkpt lat="42.9871760" lon="-2.2650500">
        <ele>459.0</ele>
        <time>2020-09-08T16:43:26Z</time>
      </trkpt>
      <trkpt lat="42.9871660" lon="-2.2649870">
        <ele>459.2</ele>
        <time>2020-09-08T16:43:27Z</time>
      </trkpt>
      <trkpt lat="42.9871170" lon="-2.2647310">
        <ele>460.4</ele>
        <time>2020-09-08T16:43:31Z</time>
      </trkpt>
      <trkpt lat="42.9870720" lon="-2.2645460">
        <ele>461.6</ele>
        <time>2020-09-08T16:43:34Z</time>
      </trkpt>
      <trkpt lat="42.9870400" lon="-2.2644200">
        <ele>462.4</ele>
        <time>2020-09-08T16:43:36Z</time>
      </trkpt>
      <trkpt lat="42.9870370" lon="-2.2643500">
        <ele>463.0</ele>
        <time>2020-09-08T16:43:37Z</time>
      </trkpt>
      <trkpt lat="42.9870480" lon="-2.2642110">
        <ele>464.0</ele>
        <time>2020-09-08T16:43:39Z</time>
      </trkpt>
      <trkpt lat="42.9870550" lon="-2.2641370">
        <ele>464.4</ele>
        <time>2020-09-08T16:43:40Z</time>
      </trkpt>
      <trkpt lat="42.9870620" lon="-2.2640600">
        <ele>464.8</ele>
        <time>2020-09-08T16:43:41Z</time>
      </trkpt>
      <trkpt lat="42.9870670" lon="-2.2639830">
        <ele>465.2</ele>
        <time>2020-09-08T16:43:42Z</time>
      </trkpt>
      <trkpt lat="42.9870700" lon="-2.2637490">
        <ele>466.0</ele>
        <time>2020-09-08T16:43:45Z</time>
      </trkpt>
      <trkpt lat="42.9870610" lon="-2.2636720">
        <ele>466.4</ele>
        <time>2020-09-08T16:43:46Z</time>
      </trkpt>
      <trkpt lat="42.9869470" lon="-2.2633950">
        <ele>467.8</ele>
        <time>2020-09-08T16:43:50Z</time>
      </trkpt>
      <trkpt lat="42.9869020" lon="-2.2633260">
        <ele>468.2</ele>
        <time>2020-09-08T16:43:51Z</time>
      </trkpt>
      <trkpt lat="42.9868070" lon="-2.2631880">
        <ele>469.0</ele>
        <time>2020-09-08T16:43:53Z</time>
      </trkpt>
      <trkpt lat="42.9864910" lon="-2.2627800">
        <ele>469.6</ele>
        <time>2020-09-08T16:43:59Z</time>
      </trkpt>
      <trkpt lat="42.9860320" lon="-2.2625320">
        <ele>469.8</ele>
        <time>2020-09-08T16:44:06Z</time>
      </trkpt>
      <trkpt lat="42.9859670" lon="-2.2622070">
        <ele>470.4</ele>
        <time>2020-09-08T16:44:11Z</time>
      </trkpt>
      <trkpt lat="42.9861300" lon="-2.2621180">
        <ele>470.8</ele>
        <time>2020-09-08T16:44:14Z</time>
      </trkpt>
      <trkpt lat="42.9862980" lon="-2.2620800">
        <ele>471.4</ele>
        <time>2020-09-08T16:44:17Z</time>
      </trkpt>
      <trkpt lat="42.9864090" lon="-2.2620710">
        <ele>472.6</ele>
        <time>2020-09-08T16:44:19Z</time>
      </trkpt>
      <trkpt lat="42.9865170" lon="-2.2620780">
        <ele>474.2</ele>
        <time>2020-09-08T16:44:21Z</time>
      </trkpt>
      <trkpt lat="42.9866710" lon="-2.2621390">
        <ele>475.4</ele>
        <time>2020-09-08T16:44:24Z</time>
      </trkpt>
      <trkpt lat="42.9867200" lon="-2.2621690">
        <ele>475.4</ele>
        <time>2020-09-08T16:44:25Z</time>
      </trkpt>
      <trkpt lat="42.9868680" lon="-2.2622700">
        <ele>476.6</ele>
        <time>2020-09-08T16:44:28Z</time>
      </trkpt>
      <trkpt lat="42.9869190" lon="-2.2623050">
        <ele>477.6</ele>
        <time>2020-09-08T16:44:29Z</time>
      </trkpt>
      <trkpt lat="42.9869750" lon="-2.2623250">
        <ele>477.8</ele>
        <time>2020-09-08T16:44:30Z</time>
      </trkpt>
      <trkpt lat="42.9870770" lon="-2.2621920">
        <ele>478.8</ele>
        <time>2020-09-08T16:44:33Z</time>
      </trkpt>
      <trkpt lat="42.9869980" lon="-2.2620140">
        <ele>480.4</ele>
        <time>2020-09-08T16:44:36Z</time>
      </trkpt>
      <trkpt lat="42.9868540" lon="-2.2619110">
        <ele>481.4</ele>
        <time>2020-09-08T16:44:39Z</time>
      </trkpt>
      <trkpt lat="42.9867580" lon="-2.2618540">
        <ele>482.2</ele>
        <time>2020-09-08T16:44:41Z</time>
      </trkpt>
      <trkpt lat="42.9867030" lon="-2.2618310">
        <ele>482.6</ele>
        <time>2020-09-08T16:44:42Z</time>
      </trkpt>
      <trkpt lat="42.9865380" lon="-2.2617540">
        <ele>484.0</ele>
        <time>2020-09-08T16:44:45Z</time>
      </trkpt>
      <trkpt lat="42.9863120" lon="-2.2616680">
        <ele>484.6</ele>
        <time>2020-09-08T16:44:49Z</time>
      </trkpt>
      <trkpt lat="42.9861980" lon="-2.2616550">
        <ele>485.2</ele>
        <time>2020-09-08T16:44:51Z</time>
      </trkpt>
      <trkpt lat="42.9859700" lon="-2.2616460">
        <ele>486.4</ele>
        <time>2020-09-08T16:44:55Z</time>
      </trkpt>
      <trkpt lat="42.9857670" lon="-2.2615160">
        <ele>488.0</ele>
        <time>2020-09-08T16:44:59Z</time>
      </trkpt>
      <trkpt lat="42.9856310" lon="-2.2613920">
        <ele>489.0</ele>
        <time>2020-09-08T16:45:02Z</time>
      </trkpt>
      <trkpt lat="42.9855870" lon="-2.2613590">
        <ele>490.0</ele>
        <time>2020-09-08T16:45:03Z</time>
      </trkpt>
      <trkpt lat="42.9854550" lon="-2.2612870">
        <ele>491.6</ele>
        <time>2020-09-08T16:45:06Z</time>
      </trkpt>
      <trkpt lat="42.9853290" lon="-2.2612020">
        <ele>492.8</ele>
        <time>2020-09-08T16:45:09Z</time>
      </trkpt>
      <trkpt lat="42.9852470" lon="-2.2611370">
        <ele>493.8</ele>
        <time>2020-09-08T16:45:11Z</time>
      </trkpt>
      <trkpt lat="42.9852080" lon="-2.2611000">
        <ele>494.2</ele>
        <time>2020-09-08T16:45:12Z</time>
      </trkpt>
      <trkpt lat="42.9850980" lon="-2.2609660">
        <ele>495.8</ele>
        <time>2020-09-08T16:45:15Z</time>
      </trkpt>
      <trkpt lat="42.9850320" lon="-2.2608680">
        <ele>496.8</ele>
        <time>2020-09-08T16:45:17Z</time>
      </trkpt>
      <trkpt lat="42.9849650" lon="-2.2607690">
        <ele>498.0</ele>
        <time>2020-09-08T16:45:19Z</time>
      </trkpt>
      <trkpt lat="42.9848620" lon="-2.2606250">
        <ele>499.2</ele>
        <time>2020-09-08T16:45:22Z</time>
      </trkpt>
      <trkpt lat="42.9848220" lon="-2.2605840">
        <ele>499.8</ele>
        <time>2020-09-08T16:45:23Z</time>
      </trkpt>
      <trkpt lat="42.9847410" lon="-2.2605140">
        <ele>500.4</ele>
        <time>2020-09-08T16:45:25Z</time>
      </trkpt>
      <trkpt lat="42.9846530" lon="-2.2604570">
        <ele>501.2</ele>
        <time>2020-09-08T16:45:27Z</time>
      </trkpt>
      <trkpt lat="42.9846060" lon="-2.2604340">
        <ele>501.6</ele>
        <time>2020-09-08T16:45:28Z</time>
      </trkpt>
      <trkpt lat="42.9844600" lon="-2.2603800">
        <ele>503.2</ele>
        <time>2020-09-08T16:45:31Z</time>
      </trkpt>
      <trkpt lat="42.9843150" lon="-2.2603190">
        <ele>504.2</ele>
        <time>2020-09-08T16:45:34Z</time>
      </trkpt>
      <trkpt lat="42.9841190" lon="-2.2602410">
        <ele>505.8</ele>
        <time>2020-09-08T16:45:38Z</time>
      </trkpt>
      <trkpt lat="42.9839860" lon="-2.2601620">
        <ele>507.0</ele>
        <time>2020-09-08T16:45:41Z</time>
      </trkpt>
      <trkpt lat="42.9839500" lon="-2.2601140">
        <ele>507.2</ele>
        <time>2020-09-08T16:45:42Z</time>
      </trkpt>
      <trkpt lat="42.9838660" lon="-2.2599660">
        <ele>508.4</ele>
        <time>2020-09-08T16:45:45Z</time>
      </trkpt>
      <trkpt lat="42.9837870" lon="-2.2597920">
        <ele>509.6</ele>
        <time>2020-09-08T16:45:48Z</time>
      </trkpt>
      <trkpt lat="42.9837060" lon="-2.2596310">
        <ele>510.8</ele>
        <time>2020-09-08T16:45:51Z</time>
      </trkpt>
      <trkpt lat="42.9836280" lon="-2.2594620">
        <ele>511.8</ele>
        <time>2020-09-08T16:45:54Z</time>
      </trkpt>
      <trkpt lat="42.9835780" lon="-2.2593450">
        <ele>512.6</ele>
        <time>2020-09-08T16:45:56Z</time>
      </trkpt>
      <trkpt lat="42.9835630" lon="-2.2592800">
        <ele>513.0</ele>
        <time>2020-09-08T16:45:57Z</time>
      </trkpt>
      <trkpt lat="42.9835220" lon="-2.2590860">
        <ele>514.0</ele>
        <time>2020-09-08T16:46:00Z</time>
      </trkpt>
      <trkpt lat="42.9835100" lon="-2.2590200">
        <ele>514.4</ele>
        <time>2020-09-08T16:46:01Z</time>
      </trkpt>
      <trkpt lat="42.9834910" lon="-2.2589590">
        <ele>514.8</ele>
        <time>2020-09-08T16:46:02Z</time>
      </trkpt>
      <trkpt lat="42.9834240" lon="-2.2588650">
        <ele>515.8</ele>
        <time>2020-09-08T16:46:04Z</time>
      </trkpt>
      <trkpt lat="42.9832840" lon="-2.2587940">
        <ele>517.0</ele>
        <time>2020-09-08T16:46:07Z</time>
      </trkpt>
      <trkpt lat="42.9831870" lon="-2.2587500">
        <ele>517.6</ele>
        <time>2020-09-08T16:46:09Z</time>
      </trkpt>
      <trkpt lat="42.9831390" lon="-2.2587160">
        <ele>518.0</ele>
        <time>2020-09-08T16:46:10Z</time>
      </trkpt>
      <trkpt lat="42.9830080" lon="-2.2585980">
        <ele>519.8</ele>
        <time>2020-09-08T16:46:13Z</time>
      </trkpt>
      <trkpt lat="42.9829240" lon="-2.2583890">
        <ele>521.0</ele>
        <time>2020-09-08T16:46:17Z</time>
      </trkpt>
      <trkpt lat="42.9829210" lon="-2.2583270">
        <ele>521.2</ele>
        <time>2020-09-08T16:46:18Z</time>
      </trkpt>
      <trkpt lat="42.9829250" lon="-2.2582700">
        <ele>521.6</ele>
        <time>2020-09-08T16:46:19Z</time>
      </trkpt>
      <trkpt lat="42.9829360" lon="-2.2581390">
        <ele>522.0</ele>
        <time>2020-09-08T16:46:21Z</time>
      </trkpt>
      <trkpt lat="42.9829580" lon="-2.2579400">
        <ele>523.2</ele>
        <time>2020-09-08T16:46:24Z</time>
      </trkpt>
      <trkpt lat="42.9829610" lon="-2.2578720">
        <ele>523.8</ele>
        <time>2020-09-08T16:46:25Z</time>
      </trkpt>
      <trkpt lat="42.9829380" lon="-2.2577370">
        <ele>524.6</ele>
        <time>2020-09-08T16:46:27Z</time>
      </trkpt>
      <trkpt lat="42.9828720" lon="-2.2575720">
        <ele>525.6</ele>
        <time>2020-09-08T16:46:30Z</time>
      </trkpt>
      <trkpt lat="42.9828100" lon="-2.2574750">
        <ele>526.4</ele>
        <time>2020-09-08T16:46:32Z</time>
      </trkpt>
      <trkpt lat="42.9827740" lon="-2.2574400">
        <ele>526.8</ele>
        <time>2020-09-08T16:46:33Z</time>
      </trkpt>
      <trkpt lat="42.9826560" lon="-2.2574230">
        <ele>528.0</ele>
        <time>2020-09-08T16:46:36Z</time>
      </trkpt>
      <trkpt lat="42.9826200" lon="-2.2574430">
        <ele>528.4</ele>
        <time>2020-09-08T16:46:37Z</time>
      </trkpt>
      <trkpt lat="42.9825550" lon="-2.2574860">
        <ele>529.4</ele>
        <time>2020-09-08T16:46:39Z</time>
      </trkpt>
      <trkpt lat="42.9824750" lon="-2.2575520">
        <ele>530.0</ele>
        <time>2020-09-08T16:46:41Z</time>
      </trkpt>
      <trkpt lat="42.9824350" lon="-2.2576010">
        <ele>530.6</ele>
        <time>2020-09-08T16:46:42Z</time>
      </trkpt>
      <trkpt lat="42.9823550" lon="-2.2576900">
        <ele>531.2</ele>
        <time>2020-09-08T16:46:44Z</time>
      </trkpt>
      <trkpt lat="42.9822710" lon="-2.2577650">
        <ele>531.8</ele>
        <time>2020-09-08T16:46:46Z</time>
      </trkpt>
      <trkpt lat="42.9822360" lon="-2.2577970">
        <ele>532.8</ele>
        <time>2020-09-08T16:46:47Z</time>
      </trkpt>
      <trkpt lat="42.9821920" lon="-2.2578360">
        <ele>533.4</ele>
        <time>2020-09-08T16:46:48Z</time>
      </trkpt>
      <trkpt lat="42.9820610" lon="-2.2578870">
        <ele>534.4</ele>
        <time>2020-09-08T16:46:51Z</time>
      </trkpt>
      <trkpt lat="42.9819220" lon="-2.2578840">
        <ele>535.6</ele>
        <time>2020-09-08T16:46:54Z</time>
      </trkpt>
      <trkpt lat="42.9817750" lon="-2.2578520">
        <ele>537.0</ele>
        <time>2020-09-08T16:46:57Z</time>
      </trkpt>
      <trkpt lat="42.9815890" lon="-2.2577910">
        <ele>538.0</ele>
        <time>2020-09-08T16:47:01Z</time>
      </trkpt>
      <trkpt lat="42.9815440" lon="-2.2577720">
        <ele>538.2</ele>
        <time>2020-09-08T16:47:02Z</time>
      </trkpt>
      <trkpt lat="42.9814930" lon="-2.2577580">
        <ele>538.6</ele>
        <time>2020-09-08T16:47:03Z</time>
      </trkpt>
      <trkpt lat="42.9813630" lon="-2.2577260">
        <ele>539.4</ele>
        <time>2020-09-08T16:47:06Z</time>
      </trkpt>
      <trkpt lat="42.9812700" lon="-2.2577140">
        <ele>540.4</ele>
        <time>2020-09-08T16:47:08Z</time>
      </trkpt>
      <trkpt lat="42.9812280" lon="-2.2577140">
        <ele>540.8</ele>
        <time>2020-09-08T16:47:09Z</time>
      </trkpt>
      <trkpt lat="42.9810900" lon="-2.2577370">
        <ele>542.0</ele>
        <time>2020-09-08T16:47:12Z</time>
      </trkpt>
      <trkpt lat="42.9810400" lon="-2.2577340">
        <ele>542.4</ele>
        <time>2020-09-08T16:47:13Z</time>
      </trkpt>
      <trkpt lat="42.9809340" lon="-2.2577160">
        <ele>543.2</ele>
        <time>2020-09-08T16:47:15Z</time>
      </trkpt>
      <trkpt lat="42.9808750" lon="-2.2576950">
        <ele>543.6</ele>
        <time>2020-09-08T16:47:16Z</time>
      </trkpt>
      <trkpt lat="42.9807740" lon="-2.2576410">
        <ele>544.4</ele>
        <time>2020-09-08T16:47:18Z</time>
      </trkpt>
      <trkpt lat="42.9806880" lon="-2.2575670">
        <ele>545.4</ele>
        <time>2020-09-08T16:47:20Z</time>
      </trkpt>
      <trkpt lat="42.9806460" lon="-2.2575300">
        <ele>545.8</ele>
        <time>2020-09-08T16:47:21Z</time>
      </trkpt>
      <trkpt lat="42.9805470" lon="-2.2574750">
        <ele>547.2</ele>
        <time>2020-09-08T16:47:23Z</time>
      </trkpt>
      <trkpt lat="42.9805010" lon="-2.2574420">
        <ele>547.4</ele>
        <time>2020-09-08T16:47:24Z</time>
      </trkpt>
      <trkpt lat="42.9804060" lon="-2.2573920">
        <ele>548.4</ele>
        <time>2020-09-08T16:47:26Z</time>
      </trkpt>
      <trkpt lat="42.9802650" lon="-2.2573140">
        <ele>549.6</ele>
        <time>2020-09-08T16:47:29Z</time>
      </trkpt>
      <trkpt lat="42.9801280" lon="-2.2572500">
        <ele>550.8</ele>
        <time>2020-09-08T16:47:32Z</time>
      </trkpt>
      <trkpt lat="42.9799850" lon="-2.2571840">
        <ele>552.0</ele>
        <time>2020-09-08T16:47:35Z</time>
      </trkpt>
      <trkpt lat="42.9798360" lon="-2.2571250">
        <ele>553.2</ele>
        <time>2020-09-08T16:47:38Z</time>
      </trkpt>
      <trkpt lat="42.9796440" lon="-2.2570560">
        <ele>554.4</ele>
        <time>2020-09-08T16:47:42Z</time>
      </trkpt>
      <trkpt lat="42.9795450" lon="-2.2570360">
        <ele>554.8</ele>
        <time>2020-09-08T16:47:44Z</time>
      </trkpt>
      <trkpt lat="42.9794470" lon="-2.2570320">
        <ele>555.6</ele>
        <time>2020-09-08T16:47:46Z</time>
      </trkpt>
      <trkpt lat="42.9793040" lon="-2.2570250">
        <ele>556.8</ele>
        <time>2020-09-08T16:47:49Z</time>
      </trkpt>
      <trkpt lat="42.9791620" lon="-2.2570300">
        <ele>557.8</ele>
        <time>2020-09-08T16:47:52Z</time>
      </trkpt>
      <trkpt lat="42.9790680" lon="-2.2570490">
        <ele>559.0</ele>
        <time>2020-09-08T16:47:54Z</time>
      </trkpt>
      <trkpt lat="42.9789780" lon="-2.2571030">
        <ele>559.8</ele>
        <time>2020-09-08T16:47:56Z</time>
      </trkpt>
      <trkpt lat="42.9789370" lon="-2.2571470">
        <ele>560.2</ele>
        <time>2020-09-08T16:47:57Z</time>
      </trkpt>
      <trkpt lat="42.9788670" lon="-2.2572370">
        <ele>560.8</ele>
        <time>2020-09-08T16:47:59Z</time>
      </trkpt>
      <trkpt lat="42.9787980" lon="-2.2573280">
        <ele>561.4</ele>
        <time>2020-09-08T16:48:01Z</time>
      </trkpt>
      <trkpt lat="42.9786770" lon="-2.2574320">
        <ele>562.4</ele>
        <time>2020-09-08T16:48:04Z</time>
      </trkpt>
      <trkpt lat="42.9785410" lon="-2.2575020">
        <ele>563.6</ele>
        <time>2020-09-08T16:48:07Z</time>
      </trkpt>
      <trkpt lat="42.9784510" lon="-2.2575490">
        <ele>564.6</ele>
        <time>2020-09-08T16:48:09Z</time>
      </trkpt>
      <trkpt lat="42.9784050" lon="-2.2575660">
        <ele>565.0</ele>
        <time>2020-09-08T16:48:10Z</time>
      </trkpt>
      <trkpt lat="42.9782890" lon="-2.2576050">
        <ele>566.0</ele>
        <time>2020-09-08T16:48:13Z</time>
      </trkpt>
      <trkpt lat="42.9781890" lon="-2.2576590">
        <ele>567.2</ele>
        <time>2020-09-08T16:48:17Z</time>
      </trkpt>
      <trkpt lat="42.9781810" lon="-2.2576650">
        <ele>567.8</ele>
        <time>2020-09-08T16:48:19Z</time>
      </trkpt>
      <trkpt lat="42.9781820" lon="-2.2576630">
        <ele>568.2</ele>
        <time>2020-09-08T16:48:20Z</time>
      </trkpt>
      <trkpt lat="42.9781820" lon="-2.2576590">
        <ele>569.8</ele>
        <time>2020-09-08T16:48:29Z</time>
      </trkpt>
      <trkpt lat="42.9782260" lon="-2.2576300">
        <ele>570.0</ele>
        <time>2020-09-08T16:48:33Z</time>
      </trkpt>
      <trkpt lat="42.9783030" lon="-2.2575920">
        <ele>570.0</ele>
        <time>2020-09-08T16:48:36Z</time>
      </trkpt>
      <trkpt lat="42.9786540" lon="-2.2574520">
        <ele>569.0</ele>
        <time>2020-09-08T16:48:44Z</time>
      </trkpt>
      <trkpt lat="42.9788080" lon="-2.2572670">
        <ele>568.0</ele>
        <time>2020-09-08T16:48:47Z</time>
      </trkpt>
      <trkpt lat="42.9790180" lon="-2.2570740">
        <ele>567.0</ele>
        <time>2020-09-08T16:48:50Z</time>
      </trkpt>
      <trkpt lat="42.9793210" lon="-2.2570470">
        <ele>565.8</ele>
        <time>2020-09-08T16:48:53Z</time>
      </trkpt>
      <trkpt lat="42.9794270" lon="-2.2570560">
        <ele>565.2</ele>
        <time>2020-09-08T16:48:54Z</time>
      </trkpt>
      <trkpt lat="42.9795340" lon="-2.2570710">
        <ele>564.4</ele>
        <time>2020-09-08T16:48:55Z</time>
      </trkpt>
      <trkpt lat="42.9797500" lon="-2.2571340">
        <ele>563.0</ele>
        <time>2020-09-08T16:48:57Z</time>
      </trkpt>
      <trkpt lat="42.9799680" lon="-2.2572220">
        <ele>561.4</ele>
        <time>2020-09-08T16:48:59Z</time>
      </trkpt>
      <trkpt lat="42.9801900" lon="-2.2573230">
        <ele>559.4</ele>
        <time>2020-09-08T16:49:01Z</time>
      </trkpt>
      <trkpt lat="42.9803030" lon="-2.2573740">
        <ele>558.4</ele>
        <time>2020-09-08T16:49:02Z</time>
      </trkpt>
      <trkpt lat="42.9805290" lon="-2.2574950">
        <ele>556.6</ele>
        <time>2020-09-08T16:49:04Z</time>
      </trkpt>
      <trkpt lat="42.9806340" lon="-2.2575850">
        <ele>554.6</ele>
        <time>2020-09-08T16:49:05Z</time>
      </trkpt>
      <trkpt lat="42.9808310" lon="-2.2577520">
        <ele>552.6</ele>
        <time>2020-09-08T16:49:07Z</time>
      </trkpt>
      <trkpt lat="42.9810280" lon="-2.2577730">
        <ele>551.0</ele>
        <time>2020-09-08T16:49:09Z</time>
      </trkpt>
      <trkpt lat="42.9812320" lon="-2.2577700">
        <ele>548.8</ele>
        <time>2020-09-08T16:49:11Z</time>
      </trkpt>
      <trkpt lat="42.9813450" lon="-2.2577870">
        <ele>547.6</ele>
        <time>2020-09-08T16:49:12Z</time>
      </trkpt>
      <trkpt lat="42.9814600" lon="-2.2578120">
        <ele>546.4</ele>
        <time>2020-09-08T16:49:13Z</time>
      </trkpt>
      <trkpt lat="42.9816880" lon="-2.2578790">
        <ele>545.2</ele>
        <time>2020-09-08T16:49:15Z</time>
      </trkpt>
      <trkpt lat="42.9819110" lon="-2.2579290">
        <ele>544.0</ele>
        <time>2020-09-08T16:49:17Z</time>
      </trkpt>
      <trkpt lat="42.9820110" lon="-2.2579180">
        <ele>543.0</ele>
        <time>2020-09-08T16:49:18Z</time>
      </trkpt>
      <trkpt lat="42.9821060" lon="-2.2578800">
        <ele>541.8</ele>
        <time>2020-09-08T16:49:19Z</time>
      </trkpt>
      <trkpt lat="42.9821930" lon="-2.2578190">
        <ele>540.6</ele>
        <time>2020-09-08T16:49:20Z</time>
      </trkpt>
      <trkpt lat="42.9822730" lon="-2.2577450">
        <ele>539.6</ele>
        <time>2020-09-08T16:49:21Z</time>
      </trkpt>
      <trkpt lat="42.9823480" lon="-2.2576590">
        <ele>538.2</ele>
        <time>2020-09-08T16:49:22Z</time>
      </trkpt>
      <trkpt lat="42.9824190" lon="-2.2575670">
        <ele>537.0</ele>
        <time>2020-09-08T16:49:23Z</time>
      </trkpt>
      <trkpt lat="42.9826470" lon="-2.2573670">
        <ele>535.6</ele>
        <time>2020-09-08T16:49:26Z</time>
      </trkpt>
      <trkpt lat="42.9829070" lon="-2.2574910">
        <ele>533.8</ele>
        <time>2020-09-08T16:49:29Z</time>
      </trkpt>
      <trkpt lat="42.9830000" lon="-2.2577440">
        <ele>532.0</ele>
        <time>2020-09-08T16:49:31Z</time>
      </trkpt>
      <trkpt lat="42.9829590" lon="-2.2582050">
        <ele>530.6</ele>
        <time>2020-09-08T16:49:34Z</time>
      </trkpt>
      <trkpt lat="42.9829590" lon="-2.2583360">
        <ele>530.0</ele>
        <time>2020-09-08T16:49:35Z</time>
      </trkpt>
      <trkpt lat="42.9829990" lon="-2.2584460">
        <ele>529.2</ele>
        <time>2020-09-08T16:49:36Z</time>
      </trkpt>
      <trkpt lat="42.9831300" lon="-2.2586250">
        <ele>527.2</ele>
        <time>2020-09-08T16:49:38Z</time>
      </trkpt>
      <trkpt lat="42.9832100" lon="-2.2586850">
        <ele>526.2</ele>
        <time>2020-09-08T16:49:39Z</time>
      </trkpt>
      <trkpt lat="42.9833010" lon="-2.2587190">
        <ele>524.0</ele>
        <time>2020-09-08T16:49:40Z</time>
      </trkpt>
      <trkpt lat="42.9834670" lon="-2.2588330">
        <ele>522.8</ele>
        <time>2020-09-08T16:49:42Z</time>
      </trkpt>
      <trkpt lat="42.9836150" lon="-2.2591850">
        <ele>521.4</ele>
        <time>2020-09-08T16:49:45Z</time>
      </trkpt>
      <trkpt lat="42.9837140" lon="-2.2594420">
        <ele>520.0</ele>
        <time>2020-09-08T16:49:47Z</time>
      </trkpt>
      <trkpt lat="42.9837750" lon="-2.2595630">
        <ele>519.4</ele>
        <time>2020-09-08T16:49:48Z</time>
      </trkpt>
      <trkpt lat="42.9838380" lon="-2.2596810">
        <ele>518.8</ele>
        <time>2020-09-08T16:49:49Z</time>
      </trkpt>
      <trkpt lat="42.9838920" lon="-2.2598140">
        <ele>518.0</ele>
        <time>2020-09-08T16:49:50Z</time>
      </trkpt>
      <trkpt lat="42.9839390" lon="-2.2599450">
        <ele>517.0</ele>
        <time>2020-09-08T16:49:51Z</time>
      </trkpt>
      <trkpt lat="42.9839890" lon="-2.2600540">
        <ele>516.2</ele>
        <time>2020-09-08T16:49:52Z</time>
      </trkpt>
      <trkpt lat="42.9840490" lon="-2.2601490">
        <ele>515.2</ele>
        <time>2020-09-08T16:49:53Z</time>
      </trkpt>
      <trkpt lat="42.9842170" lon="-2.2602660">
        <ele>513.2</ele>
        <time>2020-09-08T16:49:55Z</time>
      </trkpt>
      <trkpt lat="42.9843120" lon="-2.2603090">
        <ele>512.0</ele>
        <time>2020-09-08T16:49:56Z</time>
      </trkpt>
      <trkpt lat="42.9844070" lon="-2.2603530">
        <ele>510.8</ele>
        <time>2020-09-08T16:49:57Z</time>
      </trkpt>
      <trkpt lat="42.9845060" lon="-2.2603980">
        <ele>509.6</ele>
        <time>2020-09-08T16:49:58Z</time>
      </trkpt>
      <trkpt lat="42.9847120" lon="-2.2604900">
        <ele>508.2</ele>
        <time>2020-09-08T16:50:00Z</time>
      </trkpt>
      <trkpt lat="42.9848120" lon="-2.2605590">
        <ele>507.8</ele>
        <time>2020-09-08T16:50:01Z</time>
      </trkpt>
      <trkpt lat="42.9849950" lon="-2.2607560">
        <ele>506.8</ele>
        <time>2020-09-08T16:50:03Z</time>
      </trkpt>
      <trkpt lat="42.9850790" lon="-2.2608810">
        <ele>505.8</ele>
        <time>2020-09-08T16:50:04Z</time>
      </trkpt>
      <trkpt lat="42.9852530" lon="-2.2611200">
        <ele>504.6</ele>
        <time>2020-09-08T16:50:06Z</time>
      </trkpt>
      <trkpt lat="42.9854660" lon="-2.2613030">
        <ele>503.6</ele>
        <time>2020-09-08T16:50:08Z</time>
      </trkpt>
      <trkpt lat="42.9857050" lon="-2.2614510">
        <ele>501.6</ele>
        <time>2020-09-08T16:50:10Z</time>
      </trkpt>
      <trkpt lat="42.9858080" lon="-2.2615480">
        <ele>500.4</ele>
        <time>2020-09-08T16:50:11Z</time>
      </trkpt>
      <trkpt lat="42.9859020" lon="-2.2616320">
        <ele>499.2</ele>
        <time>2020-09-08T16:50:12Z</time>
      </trkpt>
      <trkpt lat="42.9859990" lon="-2.2616810">
        <ele>497.8</ele>
        <time>2020-09-08T16:50:13Z</time>
      </trkpt>
      <trkpt lat="42.9861050" lon="-2.2617000">
        <ele>494.8</ele>
        <time>2020-09-08T16:50:14Z</time>
      </trkpt>
      <trkpt lat="42.9862140" lon="-2.2617000">
        <ele>493.4</ele>
        <time>2020-09-08T16:50:15Z</time>
      </trkpt>
      <trkpt lat="42.9863230" lon="-2.2617100">
        <ele>492.2</ele>
        <time>2020-09-08T16:50:16Z</time>
      </trkpt>
      <trkpt lat="42.9864350" lon="-2.2617380">
        <ele>491.0</ele>
        <time>2020-09-08T16:50:17Z</time>
      </trkpt>
      <trkpt lat="42.9865470" lon="-2.2617850">
        <ele>489.6</ele>
        <time>2020-09-08T16:50:18Z</time>
      </trkpt>
      <trkpt lat="42.9867710" lon="-2.2618970">
        <ele>488.4</ele>
        <time>2020-09-08T16:50:20Z</time>
      </trkpt>
      <trkpt lat="42.9869610" lon="-2.2620000">
        <ele>486.8</ele>
        <time>2020-09-08T16:50:22Z</time>
      </trkpt>
      <trkpt lat="42.9871020" lon="-2.2620750">
        <ele>484.8</ele>
        <time>2020-09-08T16:50:24Z</time>
      </trkpt>
      <trkpt lat="42.9871490" lon="-2.2621360">
        <ele>483.6</ele>
        <time>2020-09-08T16:50:25Z</time>
      </trkpt>
      <trkpt lat="42.9871340" lon="-2.2623060">
        <ele>482.6</ele>
        <time>2020-09-08T16:50:27Z</time>
      </trkpt>
      <trkpt lat="42.9868740" lon="-2.2622790">
        <ele>481.6</ele>
        <time>2020-09-08T16:50:31Z</time>
      </trkpt>
      <trkpt lat="42.9868080" lon="-2.2622170">
        <ele>481.2</ele>
        <time>2020-09-08T16:50:32Z</time>
      </trkpt>
      <trkpt lat="42.9867370" lon="-2.2621640">
        <ele>481.0</ele>
        <time>2020-09-08T16:50:33Z</time>
      </trkpt>
      <trkpt lat="42.9864800" lon="-2.2620710">
        <ele>480.2</ele>
        <time>2020-09-08T16:50:36Z</time>
      </trkpt>
      <trkpt lat="42.9862880" lon="-2.2620870">
        <ele>479.4</ele>
        <time>2020-09-08T16:50:38Z</time>
      </trkpt>
      <trkpt lat="42.9861910" lon="-2.2621110">
        <ele>479.0</ele>
        <time>2020-09-08T16:50:39Z</time>
      </trkpt>
      <trkpt lat="42.9860980" lon="-2.2621450">
        <ele>478.4</ele>
        <time>2020-09-08T16:50:40Z</time>
      </trkpt>
      <trkpt lat="42.9860200" lon="-2.2621940">
        <ele>477.8</ele>
        <time>2020-09-08T16:50:41Z</time>
      </trkpt>
      <trkpt lat="42.9859560" lon="-2.2623600">
        <ele>476.2</ele>
        <time>2020-09-08T16:50:43Z</time>
      </trkpt>
      <trkpt lat="42.9860200" lon="-2.2625130">
        <ele>474.8</ele>
        <time>2020-09-08T16:50:45Z</time>
      </trkpt>
      <trkpt lat="42.9861540" lon="-2.2625810">
        <ele>473.2</ele>
        <time>2020-09-08T16:50:47Z</time>
      </trkpt>
      <trkpt lat="42.9862280" lon="-2.2626060">
        <ele>472.6</ele>
        <time>2020-09-08T16:50:48Z</time>
      </trkpt>
      <trkpt lat="42.9863060" lon="-2.2626360">
        <ele>472.0</ele>
        <time>2020-09-08T16:50:49Z</time>
      </trkpt>
      <trkpt lat="42.9864600" lon="-2.2627080">
        <ele>471.6</ele>
        <time>2020-09-08T16:50:51Z</time>
      </trkpt>
      <trkpt lat="42.9867170" lon="-2.2629570">
        <ele>471.0</ele>
        <time>2020-09-08T16:50:55Z</time>
      </trkpt>
      <trkpt lat="42.9868810" lon="-2.2631760">
        <ele>469.6</ele>
        <time>2020-09-08T16:50:58Z</time>
      </trkpt>
      <trkpt lat="42.9870870" lon="-2.2634560">
        <ele>469.2</ele>
        <time>2020-09-08T16:51:02Z</time>
      </trkpt>
      <trkpt lat="42.9871300" lon="-2.2638330">
        <ele>468.8</ele>
        <time>2020-09-08T16:51:06Z</time>
      </trkpt>
      <trkpt lat="42.9870890" lon="-2.2643150">
        <ele>468.6</ele>
        <time>2020-09-08T16:51:10Z</time>
      </trkpt>
      <trkpt lat="42.9871110" lon="-2.2644390">
        <ele>468.6</ele>
        <time>2020-09-08T16:51:11Z</time>
      </trkpt>
      <trkpt lat="42.9871890" lon="-2.2648280">
        <ele>468.0</ele>
        <time>2020-09-08T16:51:14Z</time>
      </trkpt>
      <trkpt lat="42.9872170" lon="-2.2649500">
        <ele>467.0</ele>
        <time>2020-09-08T16:51:15Z</time>
      </trkpt>
      <trkpt lat="42.9872620" lon="-2.2651870">
        <ele>465.6</ele>
        <time>2020-09-08T16:51:17Z</time>
      </trkpt>
      <trkpt lat="42.9872190" lon="-2.2653990">
        <ele>464.4</ele>
        <time>2020-09-08T16:51:19Z</time>
      </trkpt>
      <trkpt lat="42.9872000" lon="-2.2656400">
        <ele>463.0</ele>
        <time>2020-09-08T16:51:21Z</time>
      </trkpt>
      <trkpt lat="42.9872230" lon="-2.2657630">
        <ele>462.0</ele>
        <time>2020-09-08T16:51:22Z</time>
      </trkpt>
      <trkpt lat="42.9872600" lon="-2.2658860">
        <ele>460.4</ele>
        <time>2020-09-08T16:51:23Z</time>
      </trkpt>
      <trkpt lat="42.9874470" lon="-2.2662190">
        <ele>459.0</ele>
        <time>2020-09-08T16:51:26Z</time>
      </trkpt>
      <trkpt lat="42.9876090" lon="-2.2664240">
        <ele>457.6</ele>
        <time>2020-09-08T16:51:28Z</time>
      </trkpt>
      <trkpt lat="42.9877770" lon="-2.2666470">
        <ele>456.4</ele>
        <time>2020-09-08T16:51:30Z</time>
      </trkpt>
      <trkpt lat="42.9879640" lon="-2.2668590">
        <ele>455.4</ele>
        <time>2020-09-08T16:51:32Z</time>
      </trkpt>
      <trkpt lat="42.9881750" lon="-2.2670490">
        <ele>453.6</ele>
        <time>2020-09-08T16:51:34Z</time>
      </trkpt>
      <trkpt lat="42.9883920" lon="-2.2672430">
        <ele>451.4</ele>
        <time>2020-09-08T16:51:36Z</time>
      </trkpt>
      <trkpt lat="42.9885950" lon="-2.2674070">
        <ele>449.2</ele>
        <time>2020-09-08T16:51:38Z</time>
      </trkpt>
      <trkpt lat="42.9886980" lon="-2.2674590">
        <ele>447.8</ele>
        <time>2020-09-08T16:51:39Z</time>
      </trkpt>
      <trkpt lat="42.9888070" lon="-2.2674680">
        <ele>446.6</ele>
        <time>2020-09-08T16:51:40Z</time>
      </trkpt>
      <trkpt lat="42.9889180" lon="-2.2674470">
        <ele>445.2</ele>
        <time>2020-09-08T16:51:41Z</time>
      </trkpt>
      <trkpt lat="42.9891220" lon="-2.2674200">
        <ele>443.2</ele>
        <time>2020-09-08T16:51:43Z</time>
      </trkpt>
      <trkpt lat="42.9892040" lon="-2.2674490">
        <ele>441.8</ele>
        <time>2020-09-08T16:51:44Z</time>
      </trkpt>
      <trkpt lat="42.9892920" lon="-2.2675020">
        <ele>440.8</ele>
        <time>2020-09-08T16:51:45Z</time>
      </trkpt>
      <trkpt lat="42.9894300" lon="-2.2676970">
        <ele>439.6</ele>
        <time>2020-09-08T16:51:47Z</time>
      </trkpt>
      <trkpt lat="42.9895480" lon="-2.2679400">
        <ele>437.8</ele>
        <time>2020-09-08T16:51:49Z</time>
      </trkpt>
      <trkpt lat="42.9896000" lon="-2.2680680">
        <ele>436.8</ele>
        <time>2020-09-08T16:51:50Z</time>
      </trkpt>
      <trkpt lat="42.9896480" lon="-2.2682000">
        <ele>435.6</ele>
        <time>2020-09-08T16:51:51Z</time>
      </trkpt>
      <trkpt lat="42.9897040" lon="-2.2683200">
        <ele>434.8</ele>
        <time>2020-09-08T16:51:52Z</time>
      </trkpt>
      <trkpt lat="42.9897780" lon="-2.2684190">
        <ele>433.8</ele>
        <time>2020-09-08T16:51:53Z</time>
      </trkpt>
      <trkpt lat="42.9898620" lon="-2.2685060">
        <ele>432.8</ele>
        <time>2020-09-08T16:51:54Z</time>
      </trkpt>
      <trkpt lat="42.9899510" lon="-2.2685890">
        <ele>431.8</ele>
        <time>2020-09-08T16:51:55Z</time>
      </trkpt>
      <trkpt lat="42.9900430" lon="-2.2686670">
        <ele>430.4</ele>
        <time>2020-09-08T16:51:56Z</time>
      </trkpt>
      <trkpt lat="42.9901390" lon="-2.2687470">
        <ele>428.0</ele>
        <time>2020-09-08T16:51:57Z</time>
      </trkpt>
      <trkpt lat="42.9903330" lon="-2.2689130">
        <ele>426.4</ele>
        <time>2020-09-08T16:51:59Z</time>
      </trkpt>
      <trkpt lat="42.9905220" lon="-2.2690900">
        <ele>424.6</ele>
        <time>2020-09-08T16:52:01Z</time>
      </trkpt>
      <trkpt lat="42.9906220" lon="-2.2691600">
        <ele>423.0</ele>
        <time>2020-09-08T16:52:02Z</time>
      </trkpt>
      <trkpt lat="42.9907290" lon="-2.2692090">
        <ele>422.0</ele>
        <time>2020-09-08T16:52:03Z</time>
      </trkpt>
      <trkpt lat="42.9909640" lon="-2.2692740">
        <ele>420.4</ele>
        <time>2020-09-08T16:52:05Z</time>
      </trkpt>
      <trkpt lat="42.9910840" lon="-2.2693140">
        <ele>419.4</ele>
        <time>2020-09-08T16:52:06Z</time>
      </trkpt>
      <trkpt lat="42.9912040" lon="-2.2693680">
        <ele>418.4</ele>
        <time>2020-09-08T16:52:07Z</time>
      </trkpt>
      <trkpt lat="42.9913150" lon="-2.2694430">
        <ele>417.4</ele>
        <time>2020-09-08T16:52:08Z</time>
      </trkpt>
      <trkpt lat="42.9914160" lon="-2.2695340">
        <ele>416.2</ele>
        <time>2020-09-08T16:52:09Z</time>
      </trkpt>
      <trkpt lat="42.9915650" lon="-2.2697290">
        <ele>414.8</ele>
        <time>2020-09-08T16:52:11Z</time>
      </trkpt>
      <trkpt lat="42.9916880" lon="-2.2698660">
        <ele>412.8</ele>
        <time>2020-09-08T16:52:13Z</time>
      </trkpt>
      <trkpt lat="42.9917410" lon="-2.2698580">
        <ele>411.4</ele>
        <time>2020-09-08T16:52:14Z</time>
      </trkpt>
      <trkpt lat="42.9917850" lon="-2.2698010">
        <ele>409.8</ele>
        <time>2020-09-08T16:52:15Z</time>
      </trkpt>
      <trkpt lat="42.9917900" lon="-2.2696280">
        <ele>408.4</ele>
        <time>2020-09-08T16:52:17Z</time>
      </trkpt>
      <trkpt lat="42.9916310" lon="-2.2693810">
        <ele>407.8</ele>
        <time>2020-09-08T16:52:20Z</time>
      </trkpt>
      <trkpt lat="42.9915690" lon="-2.2693090">
        <ele>407.6</ele>
        <time>2020-09-08T16:52:21Z</time>
      </trkpt>
      <trkpt lat="42.9915060" lon="-2.2692280">
        <ele>407.2</ele>
        <time>2020-09-08T16:52:22Z</time>
      </trkpt>
      <trkpt lat="42.9912500" lon="-2.2688640">
        <ele>406.2</ele>
        <time>2020-09-08T16:52:26Z</time>
      </trkpt>
      <trkpt lat="42.9911030" lon="-2.2686730">
        <ele>405.0</ele>
        <time>2020-09-08T16:52:28Z</time>
      </trkpt>
      <trkpt lat="42.9909360" lon="-2.2684660">
        <ele>404.2</ele>
        <time>2020-09-08T16:52:30Z</time>
      </trkpt>
      <trkpt lat="42.9908690" lon="-2.2683400">
        <ele>403.8</ele>
        <time>2020-09-08T16:52:31Z</time>
      </trkpt>
      <trkpt lat="42.9908110" lon="-2.2682060">
        <ele>402.8</ele>
        <time>2020-09-08T16:52:32Z</time>
      </trkpt>
      <trkpt lat="42.9907440" lon="-2.2680860">
        <ele>402.2</ele>
        <time>2020-09-08T16:52:33Z</time>
      </trkpt>
      <trkpt lat="42.9906600" lon="-2.2679810">
        <ele>402.0</ele>
        <time>2020-09-08T16:52:34Z</time>
      </trkpt>
      <trkpt lat="42.9904660" lon="-2.2678240">
        <ele>399.8</ele>
        <time>2020-09-08T16:52:36Z</time>
      </trkpt>
      <trkpt lat="42.9903750" lon="-2.2677670">
        <ele>398.4</ele>
        <time>2020-09-08T16:52:37Z</time>
      </trkpt>
      <trkpt lat="42.9903000" lon="-2.2677080">
        <ele>397.0</ele>
        <time>2020-09-08T16:52:38Z</time>
      </trkpt>
      <trkpt lat="42.9902410" lon="-2.2676370">
        <ele>395.8</ele>
        <time>2020-09-08T16:52:39Z</time>
      </trkpt>
      <trkpt lat="42.9902080" lon="-2.2674680">
        <ele>394.4</ele>
        <time>2020-09-08T16:52:41Z</time>
      </trkpt>
      <trkpt lat="42.9902460" lon="-2.2673950">
        <ele>393.2</ele>
        <time>2020-09-08T16:52:42Z</time>
      </trkpt>
      <trkpt lat="42.9903700" lon="-2.2673490">
        <ele>391.8</ele>
        <time>2020-09-08T16:52:44Z</time>
      </trkpt>
      <trkpt lat="42.9904340" lon="-2.2673530">
        <ele>391.4</ele>
        <time>2020-09-08T16:52:45Z</time>
      </trkpt>
      <trkpt lat="42.9906320" lon="-2.2673850">
        <ele>390.4</ele>
        <time>2020-09-08T16:52:48Z</time>
      </trkpt>
      <trkpt lat="42.9909700" lon="-2.2674560">
        <ele>389.2</ele>
        <time>2020-09-08T16:52:52Z</time>
      </trkpt>
      <trkpt lat="42.9912640" lon="-2.2674740">
        <ele>388.0</ele>
        <time>2020-09-08T16:52:55Z</time>
      </trkpt>
      <trkpt lat="42.9914620" lon="-2.2674760">
        <ele>387.0</ele>
        <time>2020-09-08T16:52:57Z</time>
      </trkpt>
      <trkpt lat="42.9917540" lon="-2.2677120">
        <ele>386.0</ele>
        <time>2020-09-08T16:53:00Z</time>
      </trkpt>
      <trkpt lat="42.9918270" lon="-2.2678390">
        <ele>385.4</ele>
        <time>2020-09-08T16:53:01Z</time>
      </trkpt>
      <trkpt lat="42.9919840" lon="-2.2680490">
        <ele>384.8</ele>
        <time>2020-09-08T16:53:03Z</time>
      </trkpt>
      <trkpt lat="42.9922320" lon="-2.2683090">
        <ele>383.8</ele>
        <time>2020-09-08T16:53:06Z</time>
      </trkpt>
      <trkpt lat="42.9923940" lon="-2.2684880">
        <ele>382.2</ele>
        <time>2020-09-08T16:53:08Z</time>
      </trkpt>
      <trkpt lat="42.9925630" lon="-2.2686420">
        <ele>380.6</ele>
        <time>2020-09-08T16:53:10Z</time>
      </trkpt>
      <trkpt lat="42.9927420" lon="-2.2687630">
        <ele>379.4</ele>
        <time>2020-09-08T16:53:12Z</time>
      </trkpt>
      <trkpt lat="42.9929130" lon="-2.2687930">
        <ele>378.2</ele>
        <time>2020-09-08T16:53:14Z</time>
      </trkpt>
      <trkpt lat="42.9930670" lon="-2.2687720">
        <ele>376.4</ele>
        <time>2020-09-08T16:53:16Z</time>
      </trkpt>
      <trkpt lat="42.9931870" lon="-2.2688970">
        <ele>375.4</ele>
        <time>2020-09-08T16:53:18Z</time>
      </trkpt>
      <trkpt lat="42.9930890" lon="-2.2695010">
        <ele>374.6</ele>
        <time>2020-09-08T16:53:23Z</time>
      </trkpt>
      <trkpt lat="42.9930340" lon="-2.2696350">
        <ele>374.6</ele>
        <time>2020-09-08T16:53:24Z</time>
      </trkpt>
      <trkpt lat="42.9929690" lon="-2.2697520">
        <ele>374.4</ele>
        <time>2020-09-08T16:53:25Z</time>
      </trkpt>
      <trkpt lat="42.9928740" lon="-2.2699880">
        <ele>373.4</ele>
        <time>2020-09-08T16:53:27Z</time>
      </trkpt>
      <trkpt lat="42.9929200" lon="-2.2702120">
        <ele>371.8</ele>
        <time>2020-09-08T16:53:29Z</time>
      </trkpt>
      <trkpt lat="42.9929850" lon="-2.2703000">
        <ele>370.8</ele>
        <time>2020-09-08T16:53:30Z</time>
      </trkpt>
      <trkpt lat="42.9930700" lon="-2.2703680">
        <ele>369.4</ele>
        <time>2020-09-08T16:53:31Z</time>
      </trkpt>
      <trkpt lat="42.9931530" lon="-2.2704430">
        <ele>368.0</ele>
        <time>2020-09-08T16:53:32Z</time>
      </trkpt>
      <trkpt lat="42.9932370" lon="-2.2705190">
        <ele>366.8</ele>
        <time>2020-09-08T16:53:33Z</time>
      </trkpt>
      <trkpt lat="42.9934040" lon="-2.2706640">
        <ele>365.6</ele>
        <time>2020-09-08T16:53:35Z</time>
      </trkpt>
      <trkpt lat="42.9935630" lon="-2.2707960">
        <ele>364.8</ele>
        <time>2020-09-08T16:53:37Z</time>
      </trkpt>
      <trkpt lat="42.9936210" lon="-2.2708890">
        <ele>364.2</ele>
        <time>2020-09-08T16:53:38Z</time>
      </trkpt>
      <trkpt lat="42.9937300" lon="-2.2710790">
        <ele>362.4</ele>
        <time>2020-09-08T16:53:40Z</time>
      </trkpt>
      <trkpt lat="42.9937780" lon="-2.2711770">
        <ele>360.8</ele>
        <time>2020-09-08T16:53:41Z</time>
      </trkpt>
      <trkpt lat="42.9938290" lon="-2.2712700">
        <ele>360.2</ele>
        <time>2020-09-08T16:53:42Z</time>
      </trkpt>
      <trkpt lat="42.9939520" lon="-2.2714310">
        <ele>359.2</ele>
        <time>2020-09-08T16:53:44Z</time>
      </trkpt>
      <trkpt lat="42.9941680" lon="-2.2716420">
        <ele>357.8</ele>
        <time>2020-09-08T16:53:47Z</time>
      </trkpt>
      <trkpt lat="42.9943080" lon="-2.2717840">
        <ele>357.0</ele>
        <time>2020-09-08T16:53:49Z</time>
      </trkpt>
      <trkpt lat="42.9943620" lon="-2.2718680">
        <ele>356.6</ele>
        <time>2020-09-08T16:53:50Z</time>
      </trkpt>
      <trkpt lat="42.9944600" lon="-2.2721090">
        <ele>355.8</ele>
        <time>2020-09-08T16:53:54Z</time>
      </trkpt>
      <trkpt lat="42.9944640" lon="-2.2721120">
        <ele>355.6</ele>
        <time>2020-09-08T16:53:56Z</time>
      </trkpt>
      <trkpt lat="42.9944630" lon="-2.2721140">
        <ele>185.6</ele>
        <time>2020-09-08T16:55:52Z</time>
      </trkpt>
      <trkpt lat="42.9944630" lon="-2.2721320">
        <ele>185.8</ele>
        <time>2020-09-08T16:55:53Z</time>
      </trkpt>
      <trkpt lat="42.9944640" lon="-2.2721500">
        <ele>185.6</ele>
        <time>2020-09-08T16:55:54Z</time>
      </trkpt>
      <trkpt lat="42.9944650" lon="-2.2721720">
        <ele>185.4</ele>
        <time>2020-09-08T16:55:55Z</time>
      </trkpt>
      <trkpt lat="42.9944680" lon="-2.2722030">
        <ele>185.6</ele>
        <time>2020-09-08T16:55:56Z</time>
      </trkpt>
      <trkpt lat="42.9944750" lon="-2.2722390">
        <ele>185.6</ele>
        <time>2020-09-08T16:55:57Z</time>
      </trkpt>
      <trkpt lat="42.9944830" lon="-2.2722760">
        <ele>185.6</ele>
        <time>2020-09-08T16:55:58Z</time>
      </trkpt>
      <trkpt lat="42.9944880" lon="-2.2723170">
        <ele>185.4</ele>
        <time>2020-09-08T16:55:59Z</time>
      </trkpt>
      <trkpt lat="42.9944980" lon="-2.2723650">
        <ele>185.4</ele>
        <time>2020-09-08T16:56:00Z</time>
      </trkpt>
      <trkpt lat="42.9948150" lon="-2.2724800">
        <ele>183.8</ele>
        <time>2020-09-08T16:56:07Z</time>
      </trkpt>
      <trkpt lat="42.9948770" lon="-2.2724660">
        <ele>183.6</ele>
        <time>2020-09-08T16:56:08Z</time>
      </trkpt>
      <trkpt lat="42.9954640" lon="-2.2722830">
        <ele>183.8</ele>
        <time>2020-09-08T16:56:16Z</time>
      </trkpt>
      <trkpt lat="42.9957080" lon="-2.2721330">
        <ele>182.6</ele>
        <time>2020-09-08T16:56:19Z</time>
      </trkpt>
      <trkpt lat="42.9958630" lon="-2.2719870">
        <ele>181.4</ele>
        <time>2020-09-08T16:56:21Z</time>
      </trkpt>
      <trkpt lat="42.9960060" lon="-2.2718130">
        <ele>180.4</ele>
        <time>2020-09-08T16:56:23Z</time>
      </trkpt>
      <trkpt lat="42.9961450" lon="-2.2716280">
        <ele>179.0</ele>
        <time>2020-09-08T16:56:25Z</time>
      </trkpt>
      <trkpt lat="42.9962800" lon="-2.2714420">
        <ele>177.8</ele>
        <time>2020-09-08T16:56:27Z</time>
      </trkpt>
      <trkpt lat="42.9964280" lon="-2.2712660">
        <ele>176.6</ele>
        <time>2020-09-08T16:56:29Z</time>
      </trkpt>
      <trkpt lat="42.9965890" lon="-2.2711030">
        <ele>175.6</ele>
        <time>2020-09-08T16:56:31Z</time>
      </trkpt>
      <trkpt lat="42.9968420" lon="-2.2708740">
        <ele>174.4</ele>
        <time>2020-09-08T16:56:34Z</time>
      </trkpt>
      <trkpt lat="42.9970970" lon="-2.2706430">
        <ele>173.4</ele>
        <time>2020-09-08T16:56:37Z</time>
      </trkpt>
      <trkpt lat="42.9973550" lon="-2.2704100">
        <ele>172.0</ele>
        <time>2020-09-08T16:56:40Z</time>
      </trkpt>
      <trkpt lat="42.9976080" lon="-2.2701790">
        <ele>170.8</ele>
        <time>2020-09-08T16:56:43Z</time>
      </trkpt>
      <trkpt lat="42.9977720" lon="-2.2700270">
        <ele>169.6</ele>
        <time>2020-09-08T16:56:45Z</time>
      </trkpt>
      <trkpt lat="42.9980160" lon="-2.2698160">
        <ele>168.4</ele>
        <time>2020-09-08T16:56:48Z</time>
      </trkpt>
      <trkpt lat="42.9985140" lon="-2.2695170">
        <ele>167.4</ele>
        <time>2020-09-08T16:56:54Z</time>
      </trkpt>
      <trkpt lat="42.9985970" lon="-2.2694840">
        <ele>167.2</ele>
        <time>2020-09-08T16:56:55Z</time>
      </trkpt>
      <trkpt lat="42.9991580" lon="-2.2692560">
        <ele>166.6</ele>
        <time>2020-09-08T16:57:02Z</time>
      </trkpt>
      <trkpt lat="42.9996570" lon="-2.2688750">
        <ele>166.4</ele>
        <time>2020-09-08T16:57:09Z</time>
      </trkpt>
      <trkpt lat="43.0000540" lon="-2.2683210">
        <ele>166.6</ele>
        <time>2020-09-08T16:57:16Z</time>
      </trkpt>
      <trkpt lat="43.0004070" lon="-2.2677380">
        <ele>166.8</ele>
        <time>2020-09-08T16:57:23Z</time>
      </trkpt>
      <trkpt lat="43.0007080" lon="-2.2672450">
        <ele>166.8</ele>
        <time>2020-09-08T16:57:29Z</time>
      </trkpt>
      <trkpt lat="43.0010730" lon="-2.2668300">
        <ele>166.4</ele>
        <time>2020-09-08T16:57:36Z</time>
      </trkpt>
      <trkpt lat="43.0011480" lon="-2.2668430">
        <ele>166.4</ele>
        <time>2020-09-08T16:57:37Z</time>
      </trkpt>
      <trkpt lat="43.0012990" lon="-2.2668640">
        <ele>166.2</ele>
        <time>2020-09-08T16:57:39Z</time>
      </trkpt>
      <trkpt lat="43.0018560" lon="-2.2670310">
        <ele>165.8</ele>
        <time>2020-09-08T16:57:46Z</time>
      </trkpt>
      <trkpt lat="43.0021210" lon="-2.2670900">
        <ele>165.4</ele>
        <time>2020-09-08T16:57:49Z</time>
      </trkpt>
      <trkpt lat="43.0023090" lon="-2.2670600">
        <ele>165.0</ele>
        <time>2020-09-08T16:57:51Z</time>
      </trkpt>
      <trkpt lat="43.0026360" lon="-2.2667970">
        <ele>164.0</ele>
        <time>2020-09-08T16:57:55Z</time>
      </trkpt>
      <trkpt lat="43.0027660" lon="-2.2666030">
        <ele>163.2</ele>
        <time>2020-09-08T16:57:57Z</time>
      </trkpt>
      <trkpt lat="43.0028280" lon="-2.2665020">
        <ele>162.6</ele>
        <time>2020-09-08T16:57:58Z</time>
      </trkpt>
      <trkpt lat="43.0029470" lon="-2.2663020">
        <ele>161.6</ele>
        <time>2020-09-08T16:58:00Z</time>
      </trkpt>
      <trkpt lat="43.0032880" lon="-2.2656960">
        <ele>160.8</ele>
        <time>2020-09-08T16:58:06Z</time>
      </trkpt>
      <trkpt lat="43.0035680" lon="-2.2651900">
        <ele>160.6</ele>
        <time>2020-09-08T16:58:11Z</time>
      </trkpt>
      <trkpt lat="43.0038990" lon="-2.2645650">
        <ele>160.0</ele>
        <time>2020-09-08T16:58:17Z</time>
      </trkpt>
      <trkpt lat="43.0040630" lon="-2.2642460">
        <ele>159.6</ele>
        <time>2020-09-08T16:58:20Z</time>
      </trkpt>
      <trkpt lat="43.0043770" lon="-2.2636090">
        <ele>158.8</ele>
        <time>2020-09-08T16:58:26Z</time>
      </trkpt>
      <trkpt lat="43.0044810" lon="-2.2633990">
        <ele>158.4</ele>
        <time>2020-09-08T16:58:28Z</time>
      </trkpt>
      <trkpt lat="43.0047840" lon="-2.2627780">
        <ele>157.4</ele>
        <time>2020-09-08T16:58:34Z</time>
      </trkpt>
      <trkpt lat="43.0048370" lon="-2.2626790">
        <ele>157.2</ele>
        <time>2020-09-08T16:58:35Z</time>
      </trkpt>
      <trkpt lat="43.0051450" lon="-2.2622670">
        <ele>155.8</ele>
        <time>2020-09-08T16:58:40Z</time>
      </trkpt>
      <trkpt lat="43.0052070" lon="-2.2621960">
        <ele>155.4</ele>
        <time>2020-09-08T16:58:41Z</time>
      </trkpt>
      <trkpt lat="43.0053520" lon="-2.2619400">
        <ele>155.0</ele>
        <time>2020-09-08T16:58:44Z</time>
      </trkpt>
      <trkpt lat="43.0056320" lon="-2.2615740">
        <ele>154.8</ele>
        <time>2020-09-08T16:58:49Z</time>
      </trkpt>
      <trkpt lat="43.0060080" lon="-2.2610570">
        <ele>154.6</ele>
        <time>2020-09-08T16:58:56Z</time>
      </trkpt>
      <trkpt lat="43.0063980" lon="-2.2605570">
        <ele>154.4</ele>
        <time>2020-09-08T16:59:03Z</time>
      </trkpt>
      <trkpt lat="43.0068620" lon="-2.2600300">
        <ele>154.2</ele>
        <time>2020-09-08T16:59:11Z</time>
      </trkpt>
      <trkpt lat="43.0072960" lon="-2.2595850">
        <ele>154.2</ele>
        <time>2020-09-08T16:59:18Z</time>
      </trkpt>
      <trkpt lat="43.0076070" lon="-2.2592550">
        <ele>153.8</ele>
        <time>2020-09-08T16:59:23Z</time>
      </trkpt>
      <trkpt lat="43.0080350" lon="-2.2587780">
        <ele>152.8</ele>
        <time>2020-09-08T16:59:30Z</time>
      </trkpt>
      <trkpt lat="43.0083120" lon="-2.2581320">
        <ele>152.0</ele>
        <time>2020-09-08T16:59:37Z</time>
      </trkpt>
      <trkpt lat="43.0083490" lon="-2.2579260">
        <ele>151.6</ele>
        <time>2020-09-08T16:59:39Z</time>
      </trkpt>
      <trkpt lat="43.0083620" lon="-2.2572100">
        <ele>150.4</ele>
        <time>2020-09-08T16:59:46Z</time>
      </trkpt>
      <trkpt lat="43.0084040" lon="-2.2564070">
        <ele>150.0</ele>
        <time>2020-09-08T16:59:54Z</time>
      </trkpt>
      <trkpt lat="43.0087110" lon="-2.2557080">
        <ele>149.6</ele>
        <time>2020-09-08T17:00:02Z</time>
      </trkpt>
      <trkpt lat="43.0089560" lon="-2.2554700">
        <ele>149.4</ele>
        <time>2020-09-08T17:00:06Z</time>
      </trkpt>
      <trkpt lat="43.0093950" lon="-2.2553130">
        <ele>148.2</ele>
        <time>2020-09-08T17:00:12Z</time>
      </trkpt>
      <trkpt lat="43.0099390" lon="-2.2552680">
        <ele>147.4</ele>
        <time>2020-09-08T17:00:19Z</time>
      </trkpt>
      <trkpt lat="43.0100960" lon="-2.2552390">
        <ele>147.2</ele>
        <time>2020-09-08T17:00:21Z</time>
      </trkpt>
      <trkpt lat="43.0106000" lon="-2.2549550">
        <ele>146.2</ele>
        <time>2020-09-08T17:00:28Z</time>
      </trkpt>
      <trkpt lat="43.0106620" lon="-2.2548890">
        <ele>146.0</ele>
        <time>2020-09-08T17:00:29Z</time>
      </trkpt>
      <trkpt lat="43.0110050" lon="-2.2543080">
        <ele>145.2</ele>
        <time>2020-09-08T17:00:36Z</time>
      </trkpt>
      <trkpt lat="43.0110880" lon="-2.2541290">
        <ele>145.0</ele>
        <time>2020-09-08T17:00:38Z</time>
      </trkpt>
      <trkpt lat="43.0113900" lon="-2.2535150">
        <ele>144.6</ele>
        <time>2020-09-08T17:00:45Z</time>
      </trkpt>
      <trkpt lat="43.0118000" lon="-2.2530190">
        <ele>144.2</ele>
        <time>2020-09-08T17:00:52Z</time>
      </trkpt>
      <trkpt lat="43.0120040" lon="-2.2528540">
        <ele>144.0</ele>
        <time>2020-09-08T17:00:55Z</time>
      </trkpt>
      <trkpt lat="43.0123600" lon="-2.2526170">
        <ele>143.0</ele>
        <time>2020-09-08T17:01:00Z</time>
      </trkpt>
      <trkpt lat="43.0129130" lon="-2.2522640">
        <ele>142.4</ele>
        <time>2020-09-08T17:01:08Z</time>
      </trkpt>
      <trkpt lat="43.0134620" lon="-2.2519190">
        <ele>142.0</ele>
        <time>2020-09-08T17:01:16Z</time>
      </trkpt>
      <trkpt lat="43.0138610" lon="-2.2516330">
        <ele>141.8</ele>
        <time>2020-09-08T17:01:22Z</time>
      </trkpt>
      <trkpt lat="43.0143280" lon="-2.2511690">
        <ele>141.6</ele>
        <time>2020-09-08T17:01:31Z</time>
      </trkpt>
      <trkpt lat="43.0144420" lon="-2.2509910">
        <ele>141.8</ele>
        <time>2020-09-08T17:01:34Z</time>
      </trkpt>
      <trkpt lat="43.0145140" lon="-2.2507810">
        <ele>142.8</ele>
        <time>2020-09-08T17:01:37Z</time>
      </trkpt>
      <trkpt lat="43.0145240" lon="-2.2505460">
        <ele>143.8</ele>
        <time>2020-09-08T17:01:40Z</time>
      </trkpt>
      <trkpt lat="43.0145350" lon="-2.2503920">
        <ele>144.6</ele>
        <time>2020-09-08T17:01:42Z</time>
      </trkpt>
      <trkpt lat="43.0145980" lon="-2.2502600">
        <ele>144.8</ele>
        <time>2020-09-08T17:01:44Z</time>
      </trkpt>
      <trkpt lat="43.0146900" lon="-2.2501540">
        <ele>145.2</ele>
        <time>2020-09-08T17:01:46Z</time>
      </trkpt>
      <trkpt lat="43.0148190" lon="-2.2499780">
        <ele>145.6</ele>
        <time>2020-09-08T17:01:49Z</time>
      </trkpt>
      <trkpt lat="43.0149600" lon="-2.2497450">
        <ele>145.8</ele>
        <time>2020-09-08T17:01:53Z</time>
      </trkpt>
      <trkpt lat="43.0151220" lon="-2.2496130">
        <ele>145.8</ele>
        <time>2020-09-08T17:01:57Z</time>
      </trkpt>
      <trkpt lat="43.0153480" lon="-2.2494680">
        <ele>147.2</ele>
        <time>2020-09-08T17:02:03Z</time>
      </trkpt>
      <trkpt lat="43.0154500" lon="-2.2493890">
        <ele>148.6</ele>
        <time>2020-09-08T17:02:06Z</time>
      </trkpt>
      <trkpt lat="43.0155970" lon="-2.2492820">
        <ele>149.6</ele>
        <time>2020-09-08T17:02:10Z</time>
      </trkpt>
      <trkpt lat="43.0157010" lon="-2.2491940">
        <ele>151.2</ele>
        <time>2020-09-08T17:02:13Z</time>
      </trkpt>
      <trkpt lat="43.0158020" lon="-2.2491050">
        <ele>152.2</ele>
        <time>2020-09-08T17:02:16Z</time>
      </trkpt>
      <trkpt lat="43.0159400" lon="-2.2489710">
        <ele>153.2</ele>
        <time>2020-09-08T17:02:20Z</time>
      </trkpt>
      <trkpt lat="43.0159750" lon="-2.2489360">
        <ele>153.4</ele>
        <time>2020-09-08T17:02:21Z</time>
      </trkpt>
      <trkpt lat="43.0161530" lon="-2.2487340">
        <ele>154.4</ele>
        <time>2020-09-08T17:02:26Z</time>
      </trkpt>
      <trkpt lat="43.0165640" lon="-2.2482530">
        <ele>155.0</ele>
        <time>2020-09-08T17:02:36Z</time>
      </trkpt>
      <trkpt lat="43.0170100" lon="-2.2477270">
        <ele>154.4</ele>
        <time>2020-09-08T17:02:46Z</time>
      </trkpt>
      <trkpt lat="43.0174220" lon="-2.2472530">
        <ele>154.2</ele>
        <time>2020-09-08T17:02:55Z</time>
      </trkpt>
      <trkpt lat="43.0178420" lon="-2.2467680">
        <ele>154.2</ele>
        <time>2020-09-08T17:03:04Z</time>
      </trkpt>
      <trkpt lat="43.0182760" lon="-2.2462910">
        <ele>154.4</ele>
        <time>2020-09-08T17:03:13Z</time>
      </trkpt>
      <trkpt lat="43.0187210" lon="-2.2457710">
        <ele>155.4</ele>
        <time>2020-09-08T17:03:22Z</time>
      </trkpt>
      <trkpt lat="43.0190410" lon="-2.2450650">
        <ele>154.4</ele>
        <time>2020-09-08T17:03:30Z</time>
      </trkpt>
      <trkpt lat="43.0192230" lon="-2.2446640">
        <ele>153.0</ele>
        <time>2020-09-08T17:03:34Z</time>
      </trkpt>
      <trkpt lat="43.0193900" lon="-2.2443540">
        <ele>151.8</ele>
        <time>2020-09-08T17:03:37Z</time>
      </trkpt>
      <trkpt lat="43.0195520" lon="-2.2440160">
        <ele>150.6</ele>
        <time>2020-09-08T17:03:40Z</time>
      </trkpt>
      <trkpt lat="43.0195900" lon="-2.2437570">
        <ele>149.4</ele>
        <time>2020-09-08T17:03:42Z</time>
      </trkpt>
      <trkpt lat="43.0195970" lon="-2.2435110">
        <ele>148.2</ele>
        <time>2020-09-08T17:03:44Z</time>
      </trkpt>
      <trkpt lat="43.0196710" lon="-2.2432930">
        <ele>147.0</ele>
        <time>2020-09-08T17:03:46Z</time>
      </trkpt>
      <trkpt lat="43.0197500" lon="-2.2430700">
        <ele>146.4</ele>
        <time>2020-09-08T17:03:48Z</time>
      </trkpt>
      <trkpt lat="43.0198160" lon="-2.2427060">
        <ele>146.0</ele>
        <time>2020-09-08T17:03:51Z</time>
      </trkpt>
      <trkpt lat="43.0200440" lon="-2.2419830">
        <ele>145.0</ele>
        <time>2020-09-08T17:03:57Z</time>
      </trkpt>
      <trkpt lat="43.0201010" lon="-2.2418640">
        <ele>144.8</ele>
        <time>2020-09-08T17:03:58Z</time>
      </trkpt>
      <trkpt lat="43.0202170" lon="-2.2416220">
        <ele>143.2</ele>
        <time>2020-09-08T17:04:00Z</time>
      </trkpt>
      <trkpt lat="43.0203270" lon="-2.2413630">
        <ele>141.6</ele>
        <time>2020-09-08T17:04:02Z</time>
      </trkpt>
      <trkpt lat="43.0204320" lon="-2.2410970">
        <ele>139.8</ele>
        <time>2020-09-08T17:04:04Z</time>
      </trkpt>
      <trkpt lat="43.0204850" lon="-2.2409630">
        <ele>138.8</ele>
        <time>2020-09-08T17:04:05Z</time>
      </trkpt>
      <trkpt lat="43.0205940" lon="-2.2406930">
        <ele>136.8</ele>
        <time>2020-09-08T17:04:07Z</time>
      </trkpt>
      <trkpt lat="43.0207040" lon="-2.2404250">
        <ele>135.0</ele>
        <time>2020-09-08T17:04:09Z</time>
      </trkpt>
      <trkpt lat="43.0208150" lon="-2.2401620">
        <ele>133.2</ele>
        <time>2020-09-08T17:04:11Z</time>
      </trkpt>
      <trkpt lat="43.0210030" lon="-2.2397850">
        <ele>131.8</ele>
        <time>2020-09-08T17:04:14Z</time>
      </trkpt>
      <trkpt lat="43.0210710" lon="-2.2396610">
        <ele>130.6</ele>
        <time>2020-09-08T17:04:15Z</time>
      </trkpt>
      <trkpt lat="43.0211420" lon="-2.2395390">
        <ele>129.4</ele>
        <time>2020-09-08T17:04:16Z</time>
      </trkpt>
      <trkpt lat="43.0212150" lon="-2.2394170">
        <ele>128.4</ele>
        <time>2020-09-08T17:04:17Z</time>
      </trkpt>
      <trkpt lat="43.0214310" lon="-2.2390390">
        <ele>127.2</ele>
        <time>2020-09-08T17:04:20Z</time>
      </trkpt>
      <trkpt lat="43.0216180" lon="-2.2386400">
        <ele>126.0</ele>
        <time>2020-09-08T17:04:23Z</time>
      </trkpt>
      <trkpt lat="43.0217540" lon="-2.2382370">
        <ele>124.6</ele>
        <time>2020-09-08T17:04:26Z</time>
      </trkpt>
      <trkpt lat="43.0218200" lon="-2.2379780">
        <ele>123.6</ele>
        <time>2020-09-08T17:04:28Z</time>
      </trkpt>
      <trkpt lat="43.0219020" lon="-2.2376100">
        <ele>122.2</ele>
        <time>2020-09-08T17:04:31Z</time>
      </trkpt>
      <trkpt lat="43.0220730" lon="-2.2368280">
        <ele>121.4</ele>
        <time>2020-09-08T17:04:38Z</time>
      </trkpt>
      <trkpt lat="43.0221850" lon="-2.2363280">
        <ele>121.6</ele>
        <time>2020-09-08T17:04:43Z</time>
      </trkpt>
      <trkpt lat="43.0221700" lon="-2.2359590">
        <ele>121.8</ele>
        <time>2020-09-08T17:04:47Z</time>
      </trkpt>
      <trkpt lat="43.0222870" lon="-2.2356550">
        <ele>122.2</ele>
        <time>2020-09-08T17:04:51Z</time>
      </trkpt>
      <trkpt lat="43.0223250" lon="-2.2355820">
        <ele>122.2</ele>
        <time>2020-09-08T17:04:52Z</time>
      </trkpt>
      <trkpt lat="43.0224190" lon="-2.2352170">
        <ele>122.2</ele>
        <time>2020-09-08T17:04:56Z</time>
      </trkpt>
      <trkpt lat="43.0225950" lon="-2.2345020">
        <ele>122.0</ele>
        <time>2020-09-08T17:05:03Z</time>
      </trkpt>
      <trkpt lat="43.0226970" lon="-2.2342160">
        <ele>121.2</ele>
        <time>2020-09-08T17:05:06Z</time>
      </trkpt>
      <trkpt lat="43.0227300" lon="-2.2341250">
        <ele>120.8</ele>
        <time>2020-09-08T17:05:07Z</time>
      </trkpt>
      <trkpt lat="43.0229860" lon="-2.2334310">
        <ele>120.6</ele>
        <time>2020-09-08T17:05:15Z</time>
      </trkpt>
      <trkpt lat="43.0230510" lon="-2.2327060">
        <ele>120.6</ele>
        <time>2020-09-08T17:05:23Z</time>
      </trkpt>
      <trkpt lat="43.0230060" lon="-2.2318740">
        <ele>120.2</ele>
        <time>2020-09-08T17:05:32Z</time>
      </trkpt>
      <trkpt lat="43.0229890" lon="-2.2310640">
        <ele>120.8</ele>
        <time>2020-09-08T17:05:42Z</time>
      </trkpt>
      <trkpt lat="43.0230520" lon="-2.2306180">
        <ele>121.8</ele>
        <time>2020-09-08T17:05:48Z</time>
      </trkpt>
      <trkpt lat="43.0231860" lon="-2.2301010">
        <ele>123.0</ele>
        <time>2020-09-08T17:05:55Z</time>
      </trkpt>
      <trkpt lat="43.0232520" lon="-2.2297870">
        <ele>124.4</ele>
        <time>2020-09-08T17:05:59Z</time>
      </trkpt>
      <trkpt lat="43.0232800" lon="-2.2295510">
        <ele>125.8</ele>
        <time>2020-09-08T17:06:02Z</time>
      </trkpt>
      <trkpt lat="43.0232970" lon="-2.2292470">
        <ele>127.2</ele>
        <time>2020-09-08T17:06:06Z</time>
      </trkpt>
      <trkpt lat="43.0232900" lon="-2.2290310">
        <ele>128.6</ele>
        <time>2020-09-08T17:06:09Z</time>
      </trkpt>
      <trkpt lat="43.0232780" lon="-2.2288250">
        <ele>129.8</ele>
        <time>2020-09-08T17:06:12Z</time>
      </trkpt>
      <trkpt lat="43.0232640" lon="-2.2286780">
        <ele>131.2</ele>
        <time>2020-09-08T17:06:14Z</time>
      </trkpt>
      <trkpt lat="43.0232420" lon="-2.2284530">
        <ele>132.4</ele>
        <time>2020-09-08T17:06:17Z</time>
      </trkpt>
      <trkpt lat="43.0230830" lon="-2.2282500">
        <ele>132.8</ele>
        <time>2020-09-08T17:06:21Z</time>
      </trkpt>
      <trkpt lat="43.0230300" lon="-2.2282080">
        <ele>132.8</ele>
        <time>2020-09-08T17:06:22Z</time>
      </trkpt>
      <trkpt lat="43.0230630" lon="-2.2277990">
        <ele>132.6</ele>
        <time>2020-09-08T17:06:28Z</time>
      </trkpt>
      <trkpt lat="43.0231480" lon="-2.2276460">
        <ele>132.4</ele>
        <time>2020-09-08T17:06:30Z</time>
      </trkpt>
      <trkpt lat="43.0231810" lon="-2.2272310">
        <ele>131.4</ele>
        <time>2020-09-08T17:06:34Z</time>
      </trkpt>
      <trkpt lat="43.0231750" lon="-2.2271180">
        <ele>131.2</ele>
        <time>2020-09-08T17:06:35Z</time>
      </trkpt>
      <trkpt lat="43.0231600" lon="-2.2267600">
        <ele>130.2</ele>
        <time>2020-09-08T17:06:38Z</time>
      </trkpt>
      <trkpt lat="43.0231500" lon="-2.2263880">
        <ele>128.8</ele>
        <time>2020-09-08T17:06:41Z</time>
      </trkpt>
      <trkpt lat="43.0231540" lon="-2.2262650">
        <ele>128.2</ele>
        <time>2020-09-08T17:06:42Z</time>
      </trkpt>
      <trkpt lat="43.0231980" lon="-2.2260270">
        <ele>127.4</ele>
        <time>2020-09-08T17:06:44Z</time>
      </trkpt>
      <trkpt lat="43.0234090" lon="-2.2256000">
        <ele>126.2</ele>
        <time>2020-09-08T17:06:48Z</time>
      </trkpt>
      <trkpt lat="43.0235340" lon="-2.2253950">
        <ele>125.0</ele>
        <time>2020-09-08T17:06:50Z</time>
      </trkpt>
      <trkpt lat="43.0236590" lon="-2.2251870">
        <ele>124.0</ele>
        <time>2020-09-08T17:06:52Z</time>
      </trkpt>
      <trkpt lat="43.0237830" lon="-2.2249750">
        <ele>122.6</ele>
        <time>2020-09-08T17:06:54Z</time>
      </trkpt>
      <trkpt lat="43.0239050" lon="-2.2247640">
        <ele>121.6</ele>
        <time>2020-09-08T17:06:56Z</time>
      </trkpt>
      <trkpt lat="43.0240890" lon="-2.2244470">
        <ele>120.2</ele>
        <time>2020-09-08T17:06:59Z</time>
      </trkpt>
      <trkpt lat="43.0242680" lon="-2.2241430">
        <ele>118.8</ele>
        <time>2020-09-08T17:07:02Z</time>
      </trkpt>
      <trkpt lat="43.0244880" lon="-2.2237240">
        <ele>117.6</ele>
        <time>2020-09-08T17:07:06Z</time>
      </trkpt>
      <trkpt lat="43.0246620" lon="-2.2231570">
        <ele>116.4</ele>
        <time>2020-09-08T17:07:11Z</time>
      </trkpt>
      <trkpt lat="43.0248130" lon="-2.2226110">
        <ele>115.4</ele>
        <time>2020-09-08T17:07:16Z</time>
      </trkpt>
      <trkpt lat="43.0248970" lon="-2.2224160">
        <ele>114.8</ele>
        <time>2020-09-08T17:07:18Z</time>
      </trkpt>
      <trkpt lat="43.0252810" lon="-2.2217600">
        <ele>114.4</ele>
        <time>2020-09-08T17:07:26Z</time>
      </trkpt>
      <trkpt lat="43.0253290" lon="-2.2216800">
        <ele>114.4</ele>
        <time>2020-09-08T17:07:27Z</time>
      </trkpt>
      <trkpt lat="43.0255250" lon="-2.2212730">
        <ele>114.0</ele>
        <time>2020-09-08T17:07:32Z</time>
      </trkpt>
      <trkpt lat="43.0256050" lon="-2.2209270">
        <ele>114.2</ele>
        <time>2020-09-08T17:07:36Z</time>
      </trkpt>
      <trkpt lat="43.0259930" lon="-2.2206610">
        <ele>114.6</ele>
        <time>2020-09-08T17:07:43Z</time>
      </trkpt>
      <trkpt lat="43.0262210" lon="-2.2206180">
        <ele>114.8</ele>
        <time>2020-09-08T17:07:46Z</time>
      </trkpt>
      <trkpt lat="43.0264990" lon="-2.2204330">
        <ele>114.8</ele>
        <time>2020-09-08T17:07:50Z</time>
      </trkpt>
      <trkpt lat="43.0270010" lon="-2.2200910">
        <ele>114.0</ele>
        <time>2020-09-08T17:07:57Z</time>
      </trkpt>
      <trkpt lat="43.0271550" lon="-2.2200070">
        <ele>113.4</ele>
        <time>2020-09-08T17:07:59Z</time>
      </trkpt>
      <trkpt lat="43.0272280" lon="-2.2199610">
        <ele>113.2</ele>
        <time>2020-09-08T17:08:00Z</time>
      </trkpt>
      <trkpt lat="43.0276560" lon="-2.2197010">
        <ele>112.2</ele>
        <time>2020-09-08T17:08:06Z</time>
      </trkpt>
      <trkpt lat="43.0281680" lon="-2.2193960">
        <ele>111.6</ele>
        <time>2020-09-08T17:08:13Z</time>
      </trkpt>
      <trkpt lat="43.0286860" lon="-2.2191100">
        <ele>111.2</ele>
        <time>2020-09-08T17:08:20Z</time>
      </trkpt>
      <trkpt lat="43.0287610" lon="-2.2190860">
        <ele>111.2</ele>
        <time>2020-09-08T17:08:21Z</time>
      </trkpt>
      <trkpt lat="43.0291410" lon="-2.2189690">
        <ele>110.0</ele>
        <time>2020-09-08T17:08:26Z</time>
      </trkpt>
      <trkpt lat="43.0294400" lon="-2.2188810">
        <ele>109.0</ele>
        <time>2020-09-08T17:08:30Z</time>
      </trkpt>
      <trkpt lat="43.0297450" lon="-2.2187910">
        <ele>108.6</ele>
        <time>2020-09-08T17:08:34Z</time>
      </trkpt>
      <trkpt lat="43.0300430" lon="-2.2189120">
        <ele>108.2</ele>
        <time>2020-09-08T17:08:38Z</time>
      </trkpt>
      <trkpt lat="43.0301100" lon="-2.2189640">
        <ele>108.0</ele>
        <time>2020-09-08T17:08:39Z</time>
      </trkpt>
      <trkpt lat="43.0304850" lon="-2.2192520">
        <ele>107.6</ele>
        <time>2020-09-08T17:08:45Z</time>
      </trkpt>
      <trkpt lat="43.0307510" lon="-2.2192000">
        <ele>107.6</ele>
        <time>2020-09-08T17:08:49Z</time>
      </trkpt>
      <trkpt lat="43.0312920" lon="-2.2190250">
        <ele>107.6</ele>
        <time>2020-09-08T17:08:57Z</time>
      </trkpt>
      <trkpt lat="43.0317730" lon="-2.2188770">
        <ele>106.8</ele>
        <time>2020-09-08T17:09:04Z</time>
      </trkpt>
      <trkpt lat="43.0323110" lon="-2.2187060">
        <ele>106.4</ele>
        <time>2020-09-08T17:09:12Z</time>
      </trkpt>
      <trkpt lat="43.0328620" lon="-2.2185270">
        <ele>106.4</ele>
        <time>2020-09-08T17:09:20Z</time>
      </trkpt>
      <trkpt lat="43.0334180" lon="-2.2183500">
        <ele>106.4</ele>
        <time>2020-09-08T17:09:28Z</time>
      </trkpt>
      <trkpt lat="43.0339630" lon="-2.2181780">
        <ele>105.6</ele>
        <time>2020-09-08T17:09:36Z</time>
      </trkpt>
      <trkpt lat="43.0344980" lon="-2.2180100">
        <ele>104.8</ele>
        <time>2020-09-08T17:09:44Z</time>
      </trkpt>
      <trkpt lat="43.0350820" lon="-2.2178250">
        <ele>105.0</ele>
        <time>2020-09-08T17:09:53Z</time>
      </trkpt>
      <trkpt lat="43.0356090" lon="-2.2176680">
        <ele>105.2</ele>
        <time>2020-09-08T17:10:01Z</time>
      </trkpt>
      <trkpt lat="43.0361350" lon="-2.2174750">
        <ele>105.8</ele>
        <time>2020-09-08T17:10:09Z</time>
      </trkpt>
      <trkpt lat="43.0367090" lon="-2.2172990">
        <ele>106.0</ele>
        <time>2020-09-08T17:10:17Z</time>
      </trkpt>
      <trkpt lat="43.0372790" lon="-2.2170950">
        <ele>104.8</ele>
        <time>2020-09-08T17:10:25Z</time>
      </trkpt>
      <trkpt lat="43.0374940" lon="-2.2170210">
        <ele>104.0</ele>
        <time>2020-09-08T17:10:28Z</time>
      </trkpt>
      <trkpt lat="43.0379770" lon="-2.2167500">
        <ele>103.8</ele>
        <time>2020-09-08T17:10:36Z</time>
      </trkpt>
      <trkpt lat="43.0380830" lon="-2.2164640">
        <ele>104.8</ele>
        <time>2020-09-08T17:10:40Z</time>
      </trkpt>
      <trkpt lat="43.0381040" lon="-2.2163850">
        <ele>105.4</ele>
        <time>2020-09-08T17:10:41Z</time>
      </trkpt>
      <trkpt lat="43.0381890" lon="-2.2162750">
        <ele>106.4</ele>
        <time>2020-09-08T17:10:43Z</time>
      </trkpt>
      <trkpt lat="43.0383050" lon="-2.2162760">
        <ele>107.6</ele>
        <time>2020-09-08T17:10:45Z</time>
      </trkpt>
      <trkpt lat="43.0384390" lon="-2.2165680">
        <ele>108.6</ele>
        <time>2020-09-08T17:10:49Z</time>
      </trkpt>
      <trkpt lat="43.0384660" lon="-2.2166600">
        <ele>108.8</ele>
        <time>2020-09-08T17:10:50Z</time>
      </trkpt>
      <trkpt lat="43.0388520" lon="-2.2171290">
        <ele>108.8</ele>
        <time>2020-09-08T17:10:57Z</time>
      </trkpt>
      <trkpt lat="43.0392260" lon="-2.2170870">
        <ele>107.8</ele>
        <time>2020-09-08T17:11:01Z</time>
      </trkpt>
      <trkpt lat="43.0394340" lon="-2.2170230">
        <ele>107.4</ele>
        <time>2020-09-08T17:11:03Z</time>
      </trkpt>
      <trkpt lat="43.0396450" lon="-2.2169600">
        <ele>105.8</ele>
        <time>2020-09-08T17:11:05Z</time>
      </trkpt>
      <trkpt lat="43.0397480" lon="-2.2169300">
        <ele>104.8</ele>
        <time>2020-09-08T17:11:06Z</time>
      </trkpt>
      <trkpt lat="43.0398500" lon="-2.2169040">
        <ele>103.4</ele>
        <time>2020-09-08T17:11:07Z</time>
      </trkpt>
      <trkpt lat="43.0400510" lon="-2.2168620">
        <ele>102.0</ele>
        <time>2020-09-08T17:11:09Z</time>
      </trkpt>
      <trkpt lat="43.0402440" lon="-2.2168240">
        <ele>99.6</ele>
        <time>2020-09-08T17:11:11Z</time>
      </trkpt>
      <trkpt lat="43.0404310" lon="-2.2167910">
        <ele>98.6</ele>
        <time>2020-09-08T17:11:13Z</time>
      </trkpt>
      <trkpt lat="43.0410500" lon="-2.2166890">
        <ele>97.8</ele>
        <time>2020-09-08T17:11:20Z</time>
      </trkpt>
      <trkpt lat="43.0414560" lon="-2.2166340">
        <ele>97.4</ele>
        <time>2020-09-08T17:11:25Z</time>
      </trkpt>
      <trkpt lat="43.0419040" lon="-2.2165410">
        <ele>96.8</ele>
        <time>2020-09-08T17:11:31Z</time>
      </trkpt>
      <trkpt lat="43.0420710" lon="-2.2163820">
        <ele>96.8</ele>
        <time>2020-09-08T17:11:34Z</time>
      </trkpt>
      <trkpt lat="43.0424030" lon="-2.2164720">
        <ele>96.8</ele>
        <time>2020-09-08T17:11:39Z</time>
      </trkpt>
      <trkpt lat="43.0426870" lon="-2.2164650">
        <ele>96.8</ele>
        <time>2020-09-08T17:11:43Z</time>
      </trkpt>
      <trkpt lat="43.0432250" lon="-2.2163740">
        <ele>96.8</ele>
        <time>2020-09-08T17:11:51Z</time>
      </trkpt>
      <trkpt lat="43.0433450" lon="-2.2163530">
        <ele>97.0</ele>
        <time>2020-09-08T17:11:53Z</time>
      </trkpt>
      <trkpt lat="43.0438190" lon="-2.2162770">
        <ele>99.0</ele>
        <time>2020-09-08T17:12:02Z</time>
      </trkpt>
      <trkpt lat="43.0440760" lon="-2.2162270">
        <ele>100.0</ele>
        <time>2020-09-08T17:12:07Z</time>
      </trkpt>
      <trkpt lat="43.0442750" lon="-2.2161980">
        <ele>101.2</ele>
        <time>2020-09-08T17:12:11Z</time>
      </trkpt>
      <trkpt lat="43.0443640" lon="-2.2161760">
        <ele>101.8</ele>
        <time>2020-09-08T17:12:13Z</time>
      </trkpt>
      <trkpt lat="43.0444580" lon="-2.2161420">
        <ele>102.4</ele>
        <time>2020-09-08T17:12:15Z</time>
      </trkpt>
      <trkpt lat="43.0446840" lon="-2.2161260">
        <ele>103.6</ele>
        <time>2020-09-08T17:12:20Z</time>
      </trkpt>
      <trkpt lat="43.0451020" lon="-2.2160500">
        <ele>104.4</ele>
        <time>2020-09-08T17:12:26Z</time>
      </trkpt>
      <trkpt lat="43.0456640" lon="-2.2157210">
        <ele>103.6</ele>
        <time>2020-09-08T17:12:33Z</time>
      </trkpt>
      <trkpt lat="43.0458370" lon="-2.2156330">
        <ele>102.4</ele>
        <time>2020-09-08T17:12:35Z</time>
      </trkpt>
      <trkpt lat="43.0459960" lon="-2.2155360">
        <ele>100.8</ele>
        <time>2020-09-08T17:12:37Z</time>
      </trkpt>
      <trkpt lat="43.0461870" lon="-2.2154290">
        <ele>99.4</ele>
        <time>2020-09-08T17:12:40Z</time>
      </trkpt>
      <trkpt lat="43.0463050" lon="-2.2154110">
        <ele>98.8</ele>
        <time>2020-09-08T17:12:46Z</time>
      </trkpt>
      <trkpt lat="43.0464240" lon="-2.2155240">
        <ele>98.4</ele>
        <time>2020-09-08T17:12:49Z</time>
      </trkpt>
      <trkpt lat="43.0465080" lon="-2.2157590">
        <ele>97.8</ele>
        <time>2020-09-08T17:12:52Z</time>
      </trkpt>
      <trkpt lat="43.0465340" lon="-2.2158340">
        <ele>97.8</ele>
        <time>2020-09-08T17:12:53Z</time>
      </trkpt>
      <trkpt lat="43.0468500" lon="-2.2165180">
        <ele>97.8</ele>
        <time>2020-09-08T17:13:02Z</time>
      </trkpt>
      <trkpt lat="43.0473070" lon="-2.2170360">
        <ele>98.2</ele>
        <time>2020-09-08T17:13:11Z</time>
      </trkpt>
      <trkpt lat="43.0478600" lon="-2.2173470">
        <ele>98.8</ele>
        <time>2020-09-08T17:13:20Z</time>
      </trkpt>
      <trkpt lat="43.0484520" lon="-2.2174850">
        <ele>99.0</ele>
        <time>2020-09-08T17:13:29Z</time>
      </trkpt>
      <trkpt lat="43.0489760" lon="-2.2176240">
        <ele>99.0</ele>
        <time>2020-09-08T17:13:37Z</time>
      </trkpt>
      <trkpt lat="43.0494940" lon="-2.2179000">
        <ele>99.2</ele>
        <time>2020-09-08T17:13:45Z</time>
      </trkpt>
      <trkpt lat="43.0495570" lon="-2.2179460">
        <ele>99.4</ele>
        <time>2020-09-08T17:13:46Z</time>
      </trkpt>
      <trkpt lat="43.0500250" lon="-2.2183910">
        <ele>99.2</ele>
        <time>2020-09-08T17:13:54Z</time>
      </trkpt>
      <trkpt lat="43.0504310" lon="-2.2189130">
        <ele>99.2</ele>
        <time>2020-09-08T17:14:02Z</time>
      </trkpt>
      <trkpt lat="43.0508140" lon="-2.2194320">
        <ele>99.6</ele>
        <time>2020-09-08T17:14:10Z</time>
      </trkpt>
      <trkpt lat="43.0512590" lon="-2.2198240">
        <ele>100.2</ele>
        <time>2020-09-08T17:14:18Z</time>
      </trkpt>
      <trkpt lat="43.0513900" lon="-2.2198820">
        <ele>100.2</ele>
        <time>2020-09-08T17:14:20Z</time>
      </trkpt>
      <trkpt lat="43.0519310" lon="-2.2200390">
        <ele>101.0</ele>
        <time>2020-09-08T17:14:28Z</time>
      </trkpt>
      <trkpt lat="43.0520630" lon="-2.2200910">
        <ele>101.4</ele>
        <time>2020-09-08T17:14:30Z</time>
      </trkpt>
      <trkpt lat="43.0525110" lon="-2.2204790">
        <ele>102.2</ele>
        <time>2020-09-08T17:14:38Z</time>
      </trkpt>
      <trkpt lat="43.0526390" lon="-2.2206980">
        <ele>102.6</ele>
        <time>2020-09-08T17:14:41Z</time>
      </trkpt>
      <trkpt lat="43.0529380" lon="-2.2213220">
        <ele>103.2</ele>
        <time>2020-09-08T17:14:49Z</time>
      </trkpt>
      <trkpt lat="43.0529960" lon="-2.2214880">
        <ele>103.6</ele>
        <time>2020-09-08T17:14:51Z</time>
      </trkpt>
      <trkpt lat="43.0530190" lon="-2.2215760">
        <ele>103.6</ele>
        <time>2020-09-08T17:14:52Z</time>
      </trkpt>
      <trkpt lat="43.0530910" lon="-2.2223070">
        <ele>104.6</ele>
        <time>2020-09-08T17:15:00Z</time>
      </trkpt>
      <trkpt lat="43.0530860" lon="-2.2223990">
        <ele>104.6</ele>
        <time>2020-09-08T17:15:01Z</time>
      </trkpt>
      <trkpt lat="43.0529430" lon="-2.2231140">
        <ele>105.2</ele>
        <time>2020-09-08T17:15:09Z</time>
      </trkpt>
      <trkpt lat="43.0526580" lon="-2.2237530">
        <ele>105.2</ele>
        <time>2020-09-08T17:15:17Z</time>
      </trkpt>
      <trkpt lat="43.0522920" lon="-2.2243260">
        <ele>105.2</ele>
        <time>2020-09-08T17:15:25Z</time>
      </trkpt>
      <trkpt lat="43.0519030" lon="-2.2248410">
        <ele>104.8</ele>
        <time>2020-09-08T17:15:33Z</time>
      </trkpt>
      <trkpt lat="43.0514810" lon="-2.2252970">
        <ele>105.6</ele>
        <time>2020-09-08T17:15:41Z</time>
      </trkpt>
      <trkpt lat="43.0514270" lon="-2.2253530">
        <ele>105.8</ele>
        <time>2020-09-08T17:15:42Z</time>
      </trkpt>
      <trkpt lat="43.0509630" lon="-2.2258510">
        <ele>106.2</ele>
        <time>2020-09-08T17:15:51Z</time>
      </trkpt>
      <trkpt lat="43.0507920" lon="-2.2261210">
        <ele>106.8</ele>
        <time>2020-09-08T17:15:55Z</time>
      </trkpt>
      <trkpt lat="43.0504770" lon="-2.2267990">
        <ele>107.4</ele>
        <time>2020-09-08T17:16:04Z</time>
      </trkpt>
      <trkpt lat="43.0503130" lon="-2.2271610">
        <ele>108.0</ele>
        <time>2020-09-08T17:16:09Z</time>
      </trkpt>
      <trkpt lat="43.0500890" lon="-2.2276580">
        <ele>109.0</ele>
        <time>2020-09-08T17:16:16Z</time>
      </trkpt>
      <trkpt lat="43.0498090" lon="-2.2283020">
        <ele>109.8</ele>
        <time>2020-09-08T17:16:25Z</time>
      </trkpt>
      <trkpt lat="43.0497830" lon="-2.2283780">
        <ele>110.0</ele>
        <time>2020-09-08T17:16:26Z</time>
      </trkpt>
      <trkpt lat="43.0496140" lon="-2.2291400">
        <ele>110.4</ele>
        <time>2020-09-08T17:16:35Z</time>
      </trkpt>
      <trkpt lat="43.0494990" lon="-2.2298620">
        <ele>110.4</ele>
        <time>2020-09-08T17:16:43Z</time>
      </trkpt>
      <trkpt lat="43.0492530" lon="-2.2305480">
        <ele>110.6</ele>
        <time>2020-09-08T17:16:51Z</time>
      </trkpt>
      <trkpt lat="43.0488900" lon="-2.2311240">
        <ele>110.6</ele>
        <time>2020-09-08T17:16:59Z</time>
      </trkpt>
      <trkpt lat="43.0485160" lon="-2.2316190">
        <ele>110.8</ele>
        <time>2020-09-08T17:17:07Z</time>
      </trkpt>
      <trkpt lat="43.0483320" lon="-2.2317780">
        <ele>111.2</ele>
        <time>2020-09-08T17:17:10Z</time>
      </trkpt>
      <trkpt lat="43.0477840" lon="-2.2321830">
        <ele>111.4</ele>
        <time>2020-09-08T17:17:18Z</time>
      </trkpt>
      <trkpt lat="43.0473380" lon="-2.2326340">
        <ele>111.4</ele>
        <time>2020-09-08T17:17:25Z</time>
      </trkpt>
      <trkpt lat="43.0469100" lon="-2.2330960">
        <ele>111.6</ele>
        <time>2020-09-08T17:17:32Z</time>
      </trkpt>
      <trkpt lat="43.0464310" lon="-2.2336000">
        <ele>111.8</ele>
        <time>2020-09-08T17:17:40Z</time>
      </trkpt>
      <trkpt lat="43.0463240" lon="-2.2337430">
        <ele>112.0</ele>
        <time>2020-09-08T17:17:42Z</time>
      </trkpt>
      <trkpt lat="43.0459690" lon="-2.2342600">
        <ele>113.0</ele>
        <time>2020-09-08T17:17:49Z</time>
      </trkpt>
      <trkpt lat="43.0455960" lon="-2.2348850">
        <ele>113.6</ele>
        <time>2020-09-08T17:17:57Z</time>
      </trkpt>
      <trkpt lat="43.0454560" lon="-2.2351110">
        <ele>114.2</ele>
        <time>2020-09-08T17:18:00Z</time>
      </trkpt>
      <trkpt lat="43.0451020" lon="-2.2357020">
        <ele>114.6</ele>
        <time>2020-09-08T17:18:08Z</time>
      </trkpt>
      <trkpt lat="43.0448300" lon="-2.2363660">
        <ele>115.2</ele>
        <time>2020-09-08T17:18:16Z</time>
      </trkpt>
      <trkpt lat="43.0447940" lon="-2.2371330">
        <ele>115.6</ele>
        <time>2020-09-08T17:18:24Z</time>
      </trkpt>
      <trkpt lat="43.0448610" lon="-2.2378820">
        <ele>115.6</ele>
        <time>2020-09-08T17:18:32Z</time>
      </trkpt>
      <trkpt lat="43.0449160" lon="-2.2385270">
        <ele>116.4</ele>
        <time>2020-09-08T17:18:39Z</time>
      </trkpt>
      <trkpt lat="43.0449780" lon="-2.2393210">
        <ele>117.6</ele>
        <time>2020-09-08T17:18:48Z</time>
      </trkpt>
      <trkpt lat="43.0449520" lon="-2.2396500">
        <ele>118.6</ele>
        <time>2020-09-08T17:18:52Z</time>
      </trkpt>
      <trkpt lat="43.0448070" lon="-2.2404370">
        <ele>118.8</ele>
        <time>2020-09-08T17:19:01Z</time>
      </trkpt>
      <trkpt lat="43.0448010" lon="-2.2405310">
        <ele>118.8</ele>
        <time>2020-09-08T17:19:02Z</time>
      </trkpt>
      <trkpt lat="43.0447010" lon="-2.2412170">
        <ele>118.4</ele>
        <time>2020-09-08T17:19:10Z</time>
      </trkpt>
      <trkpt lat="43.0446560" lon="-2.2412960">
        <ele>118.2</ele>
        <time>2020-09-08T17:19:11Z</time>
      </trkpt>
      <trkpt lat="43.0445520" lon="-2.2416810">
        <ele>118.0</ele>
        <time>2020-09-08T17:19:15Z</time>
      </trkpt>
      <trkpt lat="43.0443930" lon="-2.2424630">
        <ele>117.8</ele>
        <time>2020-09-08T17:19:23Z</time>
      </trkpt>
      <trkpt lat="43.0441700" lon="-2.2430810">
        <ele>118.0</ele>
        <time>2020-09-08T17:19:30Z</time>
      </trkpt>
      <trkpt lat="43.0438710" lon="-2.2435530">
        <ele>119.6</ele>
        <time>2020-09-08T17:19:37Z</time>
      </trkpt>
      <trkpt lat="43.0437510" lon="-2.2437280">
        <ele>120.8</ele>
        <time>2020-09-08T17:19:40Z</time>
      </trkpt>
      <trkpt lat="43.0435970" lon="-2.2439490">
        <ele>122.0</ele>
        <time>2020-09-08T17:19:44Z</time>
      </trkpt>
      <trkpt lat="43.0435240" lon="-2.2440580">
        <ele>123.2</ele>
        <time>2020-09-08T17:19:46Z</time>
      </trkpt>
      <trkpt lat="43.0434150" lon="-2.2442190">
        <ele>124.4</ele>
        <time>2020-09-08T17:19:49Z</time>
      </trkpt>
      <trkpt lat="43.0433070" lon="-2.2443840">
        <ele>125.4</ele>
        <time>2020-09-08T17:19:52Z</time>
      </trkpt>
      <trkpt lat="43.0432340" lon="-2.2444880">
        <ele>126.0</ele>
        <time>2020-09-08T17:19:54Z</time>
      </trkpt>
      <trkpt lat="43.0431580" lon="-2.2445860">
        <ele>126.6</ele>
        <time>2020-09-08T17:19:56Z</time>
      </trkpt>
      <trkpt lat="43.0430520" lon="-2.2447470">
        <ele>127.6</ele>
        <time>2020-09-08T17:19:59Z</time>
      </trkpt>
      <trkpt lat="43.0429270" lon="-2.2449850">
        <ele>128.8</ele>
        <time>2020-09-08T17:20:03Z</time>
      </trkpt>
      <trkpt lat="43.0428460" lon="-2.2451720">
        <ele>130.2</ele>
        <time>2020-09-08T17:20:06Z</time>
      </trkpt>
      <trkpt lat="43.0427720" lon="-2.2453670">
        <ele>131.4</ele>
        <time>2020-09-08T17:20:09Z</time>
      </trkpt>
      <trkpt lat="43.0426930" lon="-2.2456410">
        <ele>132.4</ele>
        <time>2020-09-08T17:20:13Z</time>
      </trkpt>
      <trkpt lat="43.0425700" lon="-2.2460900">
        <ele>133.4</ele>
        <time>2020-09-08T17:20:19Z</time>
      </trkpt>
      <trkpt lat="43.0424810" lon="-2.2464090">
        <ele>134.6</ele>
        <time>2020-09-08T17:20:23Z</time>
      </trkpt>
      <trkpt lat="43.0422770" lon="-2.2471360">
        <ele>135.2</ele>
        <time>2020-09-08T17:20:32Z</time>
      </trkpt>
      <trkpt lat="43.0421200" lon="-2.2477380">
        <ele>135.6</ele>
        <time>2020-09-08T17:20:39Z</time>
      </trkpt>
      <trkpt lat="43.0420040" lon="-2.2484730">
        <ele>136.2</ele>
        <time>2020-09-08T17:20:47Z</time>
      </trkpt>
      <trkpt lat="43.0418980" lon="-2.2492060">
        <ele>136.4</ele>
        <time>2020-09-08T17:20:55Z</time>
      </trkpt>
      <trkpt lat="43.0417900" lon="-2.2500120">
        <ele>136.6</ele>
        <time>2020-09-08T17:21:03Z</time>
      </trkpt>
      <trkpt lat="43.0417490" lon="-2.2505760">
        <ele>135.6</ele>
        <time>2020-09-08T17:21:08Z</time>
      </trkpt>
      <trkpt lat="43.0418900" lon="-2.2511760">
        <ele>133.8</ele>
        <time>2020-09-08T17:21:13Z</time>
      </trkpt>
      <trkpt lat="43.0420130" lon="-2.2513940">
        <ele>132.8</ele>
        <time>2020-09-08T17:21:15Z</time>
      </trkpt>
      <trkpt lat="43.0420810" lon="-2.2514990">
        <ele>132.6</ele>
        <time>2020-09-08T17:21:16Z</time>
      </trkpt>
      <trkpt lat="43.0422960" lon="-2.2518050">
        <ele>131.2</ele>
        <time>2020-09-08T17:21:19Z</time>
      </trkpt>
      <trkpt lat="43.0424400" lon="-2.2520100">
        <ele>129.2</ele>
        <time>2020-09-08T17:21:21Z</time>
      </trkpt>
      <trkpt lat="43.0425120" lon="-2.2521140">
        <ele>128.0</ele>
        <time>2020-09-08T17:21:22Z</time>
      </trkpt>
      <trkpt lat="43.0425800" lon="-2.2522210">
        <ele>126.6</ele>
        <time>2020-09-08T17:21:23Z</time>
      </trkpt>
      <trkpt lat="43.0427020" lon="-2.2524410">
        <ele>125.0</ele>
        <time>2020-09-08T17:21:25Z</time>
      </trkpt>
      <trkpt lat="43.0427950" lon="-2.2526700">
        <ele>123.8</ele>
        <time>2020-09-08T17:21:27Z</time>
      </trkpt>
      <trkpt lat="43.0430090" lon="-2.2534590">
        <ele>123.4</ele>
        <time>2020-09-08T17:21:34Z</time>
      </trkpt>
      <trkpt lat="43.0429990" lon="-2.2542170">
        <ele>123.6</ele>
        <time>2020-09-08T17:21:41Z</time>
      </trkpt>
      <trkpt lat="43.0429090" lon="-2.2547890">
        <ele>125.2</ele>
        <time>2020-09-08T17:21:47Z</time>
      </trkpt>
      <trkpt lat="43.0428900" lon="-2.2549350">
        <ele>125.8</ele>
        <time>2020-09-08T17:21:52Z</time>
      </trkpt>
      <trkpt lat="43.0428870" lon="-2.2549460">
        <ele>127.8</ele>
        <time>2020-09-08T17:22:10Z</time>
      </trkpt>
      <trkpt lat="43.0428200" lon="-2.2554590">
        <ele>127.8</ele>
        <time>2020-09-08T17:22:19Z</time>
      </trkpt>
      <trkpt lat="43.0428090" lon="-2.2556110">
        <ele>127.8</ele>
        <time>2020-09-08T17:22:21Z</time>
      </trkpt>
      <trkpt lat="43.0428400" lon="-2.2561790">
        <ele>127.8</ele>
        <time>2020-09-08T17:22:29Z</time>
      </trkpt>
      <trkpt lat="43.0428180" lon="-2.2563280">
        <ele>128.0</ele>
        <time>2020-09-08T17:22:31Z</time>
      </trkpt>
      <trkpt lat="43.0428260" lon="-2.2568190">
        <ele>128.4</ele>
        <time>2020-09-08T17:22:38Z</time>
      </trkpt>
      <trkpt lat="43.0428760" lon="-2.2569320">
        <ele>128.8</ele>
        <time>2020-09-08T17:22:41Z</time>
      </trkpt>
      <trkpt lat="43.0428870" lon="-2.2569290">
        <ele>129.0</ele>
        <time>2020-09-08T17:22:42Z</time>
      </trkpt>
      <trkpt lat="43.0428890" lon="-2.2569280">
        <ele>129.2</ele>
        <time>2020-09-08T17:22:43Z</time>
      </trkpt>
      <trkpt lat="43.0428900" lon="-2.2569290">
        <ele>129.2</ele>
        <time>2020-09-08T17:22:44Z</time>
      </trkpt>
      <trkpt lat="43.0428900" lon="-2.2569300">
        <ele>129.6</ele>
        <time>2020-09-08T17:22:47Z</time>
      </trkpt>
      <trkpt lat="43.0428940" lon="-2.2569330">
        <ele>131.0</ele>
        <time>2020-09-08T17:23:03Z</time>
      </trkpt>
      <trkpt lat="43.0429040" lon="-2.2569480">
        <ele>131.0</ele>
        <time>2020-09-08T17:23:05Z</time>
      </trkpt>
      <trkpt lat="43.0427970" lon="-2.2572960">
        <ele>130.8</ele>
        <time>2020-09-08T17:23:13Z</time>
      </trkpt>
      <trkpt lat="43.0426650" lon="-2.2580520">
        <ele>131.4</ele>
        <time>2020-09-08T17:23:30Z</time>
      </trkpt>
      <trkpt lat="43.0426510" lon="-2.2581150">
        <ele>131.8</ele>
        <time>2020-09-08T17:23:35Z</time>
      </trkpt>
      <trkpt lat="43.0426410" lon="-2.2581370">
        <ele>132.4</ele>
        <time>2020-09-08T17:23:55Z</time>
      </trkpt>
      <trkpt lat="43.0425440" lon="-2.2585940">
        <ele>132.2</ele>
        <time>2020-09-08T17:24:04Z</time>
      </trkpt>
      <trkpt lat="43.0423040" lon="-2.2592710">
        <ele>132.0</ele>
        <time>2020-09-08T17:24:15Z</time>
      </trkpt>
      <trkpt lat="43.0419960" lon="-2.2599630">
        <ele>133.2</ele>
        <time>2020-09-08T17:24:26Z</time>
      </trkpt>
      <trkpt lat="43.0419400" lon="-2.2600910">
        <ele>133.4</ele>
        <time>2020-09-08T17:24:28Z</time>
      </trkpt>
      <trkpt lat="43.0416680" lon="-2.2607620">
        <ele>134.6</ele>
        <time>2020-09-08T17:24:38Z</time>
      </trkpt>
      <trkpt lat="43.0416110" lon="-2.2608980">
        <ele>134.8</ele>
        <time>2020-09-08T17:24:40Z</time>
      </trkpt>
      <trkpt lat="43.0413810" lon="-2.2614620">
        <ele>135.8</ele>
        <time>2020-09-08T17:24:48Z</time>
      </trkpt>
      <trkpt lat="43.0412210" lon="-2.2619010">
        <ele>137.0</ele>
        <time>2020-09-08T17:24:54Z</time>
      </trkpt>
      <trkpt lat="43.0410950" lon="-2.2622720">
        <ele>138.4</ele>
        <time>2020-09-08T17:24:59Z</time>
      </trkpt>
      <trkpt lat="43.0409890" lon="-2.2625680">
        <ele>139.6</ele>
        <time>2020-09-08T17:25:03Z</time>
      </trkpt>
      <trkpt lat="43.0408640" lon="-2.2629250">
        <ele>140.6</ele>
        <time>2020-09-08T17:25:08Z</time>
      </trkpt>
      <trkpt lat="43.0407150" lon="-2.2632560">
        <ele>141.8</ele>
        <time>2020-09-08T17:25:13Z</time>
      </trkpt>
      <trkpt lat="43.0405520" lon="-2.2634700">
        <ele>143.0</ele>
        <time>2020-09-08T17:25:17Z</time>
      </trkpt>
      <trkpt lat="43.0403190" lon="-2.2637830">
        <ele>144.0</ele>
        <time>2020-09-08T17:25:23Z</time>
      </trkpt>
      <trkpt lat="43.0401690" lon="-2.2639850">
        <ele>145.0</ele>
        <time>2020-09-08T17:25:27Z</time>
      </trkpt>
      <trkpt lat="43.0399690" lon="-2.2642260">
        <ele>146.0</ele>
        <time>2020-09-08T17:25:32Z</time>
      </trkpt>
      <trkpt lat="43.0398890" lon="-2.2643130">
        <ele>146.6</ele>
        <time>2020-09-08T17:25:34Z</time>
      </trkpt>
      <trkpt lat="43.0398070" lon="-2.2643920">
        <ele>147.2</ele>
        <time>2020-09-08T17:25:36Z</time>
      </trkpt>
      <trkpt lat="43.0396400" lon="-2.2645240">
        <ele>148.2</ele>
        <time>2020-09-08T17:25:40Z</time>
      </trkpt>
      <trkpt lat="43.0394730" lon="-2.2646480">
        <ele>149.2</ele>
        <time>2020-09-08T17:25:44Z</time>
      </trkpt>
      <trkpt lat="43.0393330" lon="-2.2648070">
        <ele>150.4</ele>
        <time>2020-09-08T17:25:48Z</time>
      </trkpt>
      <trkpt lat="43.0392810" lon="-2.2648930">
        <ele>151.4</ele>
        <time>2020-09-08T17:25:50Z</time>
      </trkpt>
      <trkpt lat="43.0392460" lon="-2.2649280">
        <ele>151.8</ele>
        <time>2020-09-08T17:25:51Z</time>
      </trkpt>
      <trkpt lat="43.0391340" lon="-2.2650320">
        <ele>217.0</ele>
        <time>2020-09-08T17:25:54Z</time>
      </trkpt>
      <trkpt lat="43.0390080" lon="-2.2651740">
        <ele>154.4</ele>
        <time>2020-09-08T17:25:58Z</time>
      </trkpt>
      <trkpt lat="43.0389300" lon="-2.2652850">
        <ele>155.4</ele>
        <time>2020-09-08T17:26:01Z</time>
      </trkpt>
      <trkpt lat="43.0388700" lon="-2.2654230">
        <ele>156.6</ele>
        <time>2020-09-08T17:26:04Z</time>
      </trkpt>
      <trkpt lat="43.0388290" lon="-2.2655680">
        <ele>157.6</ele>
        <time>2020-09-08T17:26:07Z</time>
      </trkpt>
      <trkpt lat="43.0387910" lon="-2.2657800">
        <ele>158.8</ele>
        <time>2020-09-08T17:26:11Z</time>
      </trkpt>
      <trkpt lat="43.0387770" lon="-2.2659390">
        <ele>160.0</ele>
        <time>2020-09-08T17:26:14Z</time>
      </trkpt>
      <trkpt lat="43.0387690" lon="-2.2661350">
        <ele>161.2</ele>
        <time>2020-09-08T17:26:18Z</time>
      </trkpt>
      <trkpt lat="43.0387550" lon="-2.2662850">
        <ele>162.2</ele>
        <time>2020-09-08T17:26:21Z</time>
      </trkpt>
      <trkpt lat="43.0387530" lon="-2.2664300">
        <ele>163.8</ele>
        <time>2020-09-08T17:26:24Z</time>
      </trkpt>
      <trkpt lat="43.0387450" lon="-2.2666170">
        <ele>165.0</ele>
        <time>2020-09-08T17:26:28Z</time>
      </trkpt>
      <trkpt lat="43.0387340" lon="-2.2668040">
        <ele>166.4</ele>
        <time>2020-09-08T17:26:32Z</time>
      </trkpt>
      <trkpt lat="43.0387200" lon="-2.2670010">
        <ele>167.4</ele>
        <time>2020-09-08T17:26:36Z</time>
      </trkpt>
      <trkpt lat="43.0387160" lon="-2.2672130">
        <ele>168.6</ele>
        <time>2020-09-08T17:26:40Z</time>
      </trkpt>
      <trkpt lat="43.0386960" lon="-2.2674040">
        <ele>169.6</ele>
        <time>2020-09-08T17:26:43Z</time>
      </trkpt>
      <trkpt lat="43.0386960" lon="-2.2674630">
        <ele>169.8</ele>
        <time>2020-09-08T17:26:44Z</time>
      </trkpt>
      <trkpt lat="43.0387070" lon="-2.2676880">
        <ele>171.0</ele>
        <time>2020-09-08T17:26:48Z</time>
      </trkpt>
      <trkpt lat="43.0387180" lon="-2.2677940">
        <ele>171.8</ele>
        <time>2020-09-08T17:26:50Z</time>
      </trkpt>
      <trkpt lat="43.0387230" lon="-2.2678480">
        <ele>172.2</ele>
        <time>2020-09-08T17:26:51Z</time>
      </trkpt>
      <trkpt lat="43.0387790" lon="-2.2680300">
        <ele>173.4</ele>
        <time>2020-09-08T17:26:55Z</time>
      </trkpt>
      <trkpt lat="43.0388210" lon="-2.2681540">
        <ele>175.2</ele>
        <time>2020-09-08T17:26:58Z</time>
      </trkpt>
      <trkpt lat="43.0388730" lon="-2.2682750">
        <ele>176.4</ele>
        <time>2020-09-08T17:27:01Z</time>
      </trkpt>
      <trkpt lat="43.0389360" lon="-2.2683850">
        <ele>177.6</ele>
        <time>2020-09-08T17:27:04Z</time>
      </trkpt>
      <trkpt lat="43.0390140" lon="-2.2685010">
        <ele>179.0</ele>
        <time>2020-09-08T17:27:07Z</time>
      </trkpt>
      <trkpt lat="43.0391110" lon="-2.2685800">
        <ele>180.2</ele>
        <time>2020-09-08T17:27:10Z</time>
      </trkpt>
      <trkpt lat="43.0392180" lon="-2.2686440">
        <ele>181.6</ele>
        <time>2020-09-08T17:27:13Z</time>
      </trkpt>
      <trkpt lat="43.0393280" lon="-2.2687020">
        <ele>182.8</ele>
        <time>2020-09-08T17:27:16Z</time>
      </trkpt>
      <trkpt lat="43.0394050" lon="-2.2687400">
        <ele>183.4</ele>
        <time>2020-09-08T17:27:18Z</time>
      </trkpt>
      <trkpt lat="43.0394780" lon="-2.2687790">
        <ele>184.0</ele>
        <time>2020-09-08T17:27:20Z</time>
      </trkpt>
      <trkpt lat="43.0395770" lon="-2.2688460">
        <ele>185.2</ele>
        <time>2020-09-08T17:27:23Z</time>
      </trkpt>
      <trkpt lat="43.0396820" lon="-2.2689370">
        <ele>186.2</ele>
        <time>2020-09-08T17:27:26Z</time>
      </trkpt>
      <trkpt lat="43.0397160" lon="-2.2689680">
        <ele>186.6</ele>
        <time>2020-09-08T17:27:27Z</time>
      </trkpt>
      <trkpt lat="43.0398350" lon="-2.2691420">
        <ele>187.4</ele>
        <time>2020-09-08T17:27:31Z</time>
      </trkpt>
      <trkpt lat="43.0399250" lon="-2.2693560">
        <ele>188.6</ele>
        <time>2020-09-08T17:27:35Z</time>
      </trkpt>
      <trkpt lat="43.0400100" lon="-2.2696460">
        <ele>189.8</ele>
        <time>2020-09-08T17:27:40Z</time>
      </trkpt>
      <trkpt lat="43.0401500" lon="-2.2699740">
        <ele>191.0</ele>
        <time>2020-09-08T17:27:46Z</time>
      </trkpt>
      <trkpt lat="43.0402590" lon="-2.2701000">
        <ele>191.4</ele>
        <time>2020-09-08T17:27:49Z</time>
      </trkpt>
      <trkpt lat="43.0404280" lon="-2.2702290">
        <ele>192.4</ele>
        <time>2020-09-08T17:27:53Z</time>
      </trkpt>
      <trkpt lat="43.0407330" lon="-2.2704340">
        <ele>193.4</ele>
        <time>2020-09-08T17:28:00Z</time>
      </trkpt>
      <trkpt lat="43.0408120" lon="-2.2705060">
        <ele>193.8</ele>
        <time>2020-09-08T17:28:02Z</time>
      </trkpt>
      <trkpt lat="43.0409540" lon="-2.2706910">
        <ele>194.2</ele>
        <time>2020-09-08T17:28:06Z</time>
      </trkpt>
      <trkpt lat="43.0410070" lon="-2.2708140">
        <ele>194.6</ele>
        <time>2020-09-08T17:28:08Z</time>
      </trkpt>
      <trkpt lat="43.0410470" lon="-2.2709500">
        <ele>195.0</ele>
        <time>2020-09-08T17:28:10Z</time>
      </trkpt>
      <trkpt lat="43.0411490" lon="-2.2712910">
        <ele>195.6</ele>
        <time>2020-09-08T17:28:15Z</time>
      </trkpt>
      <trkpt lat="43.0412950" lon="-2.2720570">
        <ele>196.2</ele>
        <time>2020-09-08T17:28:25Z</time>
      </trkpt>
      <trkpt lat="43.0412860" lon="-2.2728050">
        <ele>196.0</ele>
        <time>2020-09-08T17:28:33Z</time>
      </trkpt>
      <trkpt lat="43.0412520" lon="-2.2735950">
        <ele>195.4</ele>
        <time>2020-09-08T17:28:41Z</time>
      </trkpt>
      <trkpt lat="43.0412430" lon="-2.2738990">
        <ele>194.6</ele>
        <time>2020-09-08T17:28:44Z</time>
      </trkpt>
      <trkpt lat="43.0412660" lon="-2.2742080">
        <ele>194.2</ele>
        <time>2020-09-08T17:28:47Z</time>
      </trkpt>
      <trkpt lat="43.0414150" lon="-2.2745600">
        <ele>193.6</ele>
        <time>2020-09-08T17:28:51Z</time>
      </trkpt>
      <trkpt lat="43.0416370" lon="-2.2748160">
        <ele>193.4</ele>
        <time>2020-09-08T17:28:55Z</time>
      </trkpt>
      <trkpt lat="43.0421390" lon="-2.2752790">
        <ele>193.6</ele>
        <time>2020-09-08T17:29:04Z</time>
      </trkpt>
      <trkpt lat="43.0424260" lon="-2.2755330">
        <ele>194.8</ele>
        <time>2020-09-08T17:29:09Z</time>
      </trkpt>
      <trkpt lat="43.0427090" lon="-2.2758010">
        <ele>195.4</ele>
        <time>2020-09-08T17:29:14Z</time>
      </trkpt>
      <trkpt lat="43.0428070" lon="-2.2759320">
        <ele>195.6</ele>
        <time>2020-09-08T17:29:16Z</time>
      </trkpt>
      <trkpt lat="43.0428490" lon="-2.2760050">
        <ele>196.0</ele>
        <time>2020-09-08T17:29:17Z</time>
      </trkpt>
      <trkpt lat="43.0429120" lon="-2.2762730">
        <ele>197.2</ele>
        <time>2020-09-08T17:29:20Z</time>
      </trkpt>
      <trkpt lat="43.0428500" lon="-2.2766400">
        <ele>198.4</ele>
        <time>2020-09-08T17:29:24Z</time>
      </trkpt>
      <trkpt lat="43.0427060" lon="-2.2768560">
        <ele>199.4</ele>
        <time>2020-09-08T17:29:27Z</time>
      </trkpt>
      <trkpt lat="43.0426460" lon="-2.2769220">
        <ele>199.8</ele>
        <time>2020-09-08T17:29:28Z</time>
      </trkpt>
      <trkpt lat="43.0424690" lon="-2.2771140">
        <ele>200.8</ele>
        <time>2020-09-08T17:29:31Z</time>
      </trkpt>
      <trkpt lat="43.0424160" lon="-2.2771820">
        <ele>201.2</ele>
        <time>2020-09-08T17:29:32Z</time>
      </trkpt>
      <trkpt lat="43.0423340" lon="-2.2773370">
        <ele>202.0</ele>
        <time>2020-09-08T17:29:34Z</time>
      </trkpt>
      <trkpt lat="43.0422820" lon="-2.2777080">
        <ele>203.2</ele>
        <time>2020-09-08T17:29:38Z</time>
      </trkpt>
      <trkpt lat="43.0423450" lon="-2.2779880">
        <ele>204.6</ele>
        <time>2020-09-08T17:29:41Z</time>
      </trkpt>
      <trkpt lat="43.0424200" lon="-2.2781560">
        <ele>205.6</ele>
        <time>2020-09-08T17:29:43Z</time>
      </trkpt>
      <trkpt lat="43.0425370" lon="-2.2784080">
        <ele>207.0</ele>
        <time>2020-09-08T17:29:46Z</time>
      </trkpt>
      <trkpt lat="43.0426210" lon="-2.2786840">
        <ele>208.0</ele>
        <time>2020-09-08T17:29:49Z</time>
      </trkpt>
      <trkpt lat="43.0427060" lon="-2.2794320">
        <ele>208.2</ele>
        <time>2020-09-08T17:29:56Z</time>
      </trkpt>
      <trkpt lat="43.0429410" lon="-2.2798890">
        <ele>207.4</ele>
        <time>2020-09-08T17:30:01Z</time>
      </trkpt>
      <trkpt lat="43.0430540" lon="-2.2800480">
        <ele>206.8</ele>
        <time>2020-09-08T17:30:03Z</time>
      </trkpt>
      <trkpt lat="43.0434640" lon="-2.2806000">
        <ele>206.0</ele>
        <time>2020-09-08T17:30:10Z</time>
      </trkpt>
      <trkpt lat="43.0435950" lon="-2.2807450">
        <ele>205.8</ele>
        <time>2020-09-08T17:30:12Z</time>
      </trkpt>
      <trkpt lat="43.0438180" lon="-2.2809010">
        <ele>205.8</ele>
        <time>2020-09-08T17:30:15Z</time>
      </trkpt>
      <trkpt lat="43.0441810" lon="-2.2811820">
        <ele>204.6</ele>
        <time>2020-09-08T17:30:20Z</time>
      </trkpt>
      <trkpt lat="43.0445370" lon="-2.2818470">
        <ele>204.0</ele>
        <time>2020-09-08T17:30:27Z</time>
      </trkpt>
      <trkpt lat="43.0446730" lon="-2.2821560">
        <ele>203.4</ele>
        <time>2020-09-08T17:30:30Z</time>
      </trkpt>
      <trkpt lat="43.0449490" lon="-2.2828100">
        <ele>202.8</ele>
        <time>2020-09-08T17:30:36Z</time>
      </trkpt>
      <trkpt lat="43.0449960" lon="-2.2829230">
        <ele>202.4</ele>
        <time>2020-09-08T17:30:37Z</time>
      </trkpt>
      <trkpt lat="43.0451480" lon="-2.2832580">
        <ele>201.2</ele>
        <time>2020-09-08T17:30:40Z</time>
      </trkpt>
      <trkpt lat="43.0453280" lon="-2.2835840">
        <ele>199.8</ele>
        <time>2020-09-08T17:30:43Z</time>
      </trkpt>
      <trkpt lat="43.0455660" lon="-2.2838110">
        <ele>198.4</ele>
        <time>2020-09-08T17:30:46Z</time>
      </trkpt>
      <trkpt lat="43.0457320" lon="-2.2839050">
        <ele>197.4</ele>
        <time>2020-09-08T17:30:48Z</time>
      </trkpt>
      <trkpt lat="43.0458180" lon="-2.2839300">
        <ele>197.4</ele>
        <time>2020-09-08T17:30:49Z</time>
      </trkpt>
      <trkpt lat="43.0463480" lon="-2.2837100">
        <ele>197.6</ele>
        <time>2020-09-08T17:30:57Z</time>
      </trkpt>
      <trkpt lat="43.0464880" lon="-2.2835690">
        <ele>199.6</ele>
        <time>2020-09-08T17:31:00Z</time>
      </trkpt>
      <trkpt lat="43.0465370" lon="-2.2835240">
        <ele>200.0</ele>
        <time>2020-09-08T17:31:01Z</time>
      </trkpt>
      <trkpt lat="43.0466240" lon="-2.2834880">
        <ele>201.0</ele>
        <time>2020-09-08T17:31:03Z</time>
      </trkpt>
      <trkpt lat="43.0466710" lon="-2.2835910">
        <ele>202.2</ele>
        <time>2020-09-08T17:31:05Z</time>
      </trkpt>
      <trkpt lat="43.0467760" lon="-2.2838950">
        <ele>203.4</ele>
        <time>2020-09-08T17:31:09Z</time>
      </trkpt>
      <trkpt lat="43.0469500" lon="-2.2840180">
        <ele>204.6</ele>
        <time>2020-09-08T17:31:12Z</time>
      </trkpt>
      <trkpt lat="43.0470890" lon="-2.2840550">
        <ele>205.2</ele>
        <time>2020-09-08T17:31:14Z</time>
      </trkpt>
      <trkpt lat="43.0471520" lon="-2.2840630">
        <ele>205.4</ele>
        <time>2020-09-08T17:31:15Z</time>
      </trkpt>
      <trkpt lat="43.0472770" lon="-2.2840670">
        <ele>205.6</ele>
        <time>2020-09-08T17:31:17Z</time>
      </trkpt>
      <trkpt lat="43.0473400" lon="-2.2840760">
        <ele>206.0</ele>
        <time>2020-09-08T17:31:18Z</time>
      </trkpt>
      <trkpt lat="43.0474740" lon="-2.2841010">
        <ele>207.0</ele>
        <time>2020-09-08T17:31:20Z</time>
      </trkpt>
      <trkpt lat="43.0477830" lon="-2.2841520">
        <ele>208.2</ele>
        <time>2020-09-08T17:31:24Z</time>
      </trkpt>
      <trkpt lat="43.0479790" lon="-2.2842030">
        <ele>209.4</ele>
        <time>2020-09-08T17:31:27Z</time>
      </trkpt>
      <trkpt lat="43.0482550" lon="-2.2842910">
        <ele>211.0</ele>
        <time>2020-09-08T17:31:31Z</time>
      </trkpt>
      <trkpt lat="43.0484550" lon="-2.2843680">
        <ele>212.2</ele>
        <time>2020-09-08T17:31:34Z</time>
      </trkpt>
      <trkpt lat="43.0485090" lon="-2.2844140">
        <ele>212.8</ele>
        <time>2020-09-08T17:31:35Z</time>
      </trkpt>
      <trkpt lat="43.0485830" lon="-2.2845460">
        <ele>213.6</ele>
        <time>2020-09-08T17:31:37Z</time>
      </trkpt>
      <trkpt lat="43.0485330" lon="-2.2848050">
        <ele>215.0</ele>
        <time>2020-09-08T17:31:40Z</time>
      </trkpt>
      <trkpt lat="43.0484950" lon="-2.2848800">
        <ele>215.4</ele>
        <time>2020-09-08T17:31:41Z</time>
      </trkpt>
      <trkpt lat="43.0484060" lon="-2.2850480">
        <ele>216.0</ele>
        <time>2020-09-08T17:31:43Z</time>
      </trkpt>
      <trkpt lat="43.0483380" lon="-2.2852140">
        <ele>216.8</ele>
        <time>2020-09-08T17:31:45Z</time>
      </trkpt>
      <trkpt lat="43.0483160" lon="-2.2852990">
        <ele>217.2</ele>
        <time>2020-09-08T17:31:46Z</time>
      </trkpt>
      <trkpt lat="43.0483570" lon="-2.2856420">
        <ele>218.4</ele>
        <time>2020-09-08T17:31:50Z</time>
      </trkpt>
      <trkpt lat="43.0484400" lon="-2.2857890">
        <ele>218.6</ele>
        <time>2020-09-08T17:31:52Z</time>
      </trkpt>
      <trkpt lat="43.0485100" lon="-2.2859480">
        <ele>219.2</ele>
        <time>2020-09-08T17:31:54Z</time>
      </trkpt>
      <trkpt lat="43.0485380" lon="-2.2860330">
        <ele>219.6</ele>
        <time>2020-09-08T17:31:55Z</time>
      </trkpt>
      <trkpt lat="43.0485710" lon="-2.2863150">
        <ele>221.0</ele>
        <time>2020-09-08T17:31:58Z</time>
      </trkpt>
      <trkpt lat="43.0485260" lon="-2.2865900">
        <ele>221.6</ele>
        <time>2020-09-08T17:32:01Z</time>
      </trkpt>
      <trkpt lat="43.0484850" lon="-2.2867650">
        <ele>222.4</ele>
        <time>2020-09-08T17:32:03Z</time>
      </trkpt>
      <trkpt lat="43.0484720" lon="-2.2868540">
        <ele>222.8</ele>
        <time>2020-09-08T17:32:04Z</time>
      </trkpt>
      <trkpt lat="43.0485820" lon="-2.2872780">
        <ele>224.2</ele>
        <time>2020-09-08T17:32:09Z</time>
      </trkpt>
      <trkpt lat="43.0487840" lon="-2.2875070">
        <ele>225.2</ele>
        <time>2020-09-08T17:32:13Z</time>
      </trkpt>
      <trkpt lat="43.0489270" lon="-2.2876780">
        <ele>226.2</ele>
        <time>2020-09-08T17:32:16Z</time>
      </trkpt>
      <trkpt lat="43.0490130" lon="-2.2879170">
        <ele>227.4</ele>
        <time>2020-09-08T17:32:19Z</time>
      </trkpt>
      <trkpt lat="43.0490310" lon="-2.2881060">
        <ele>228.4</ele>
        <time>2020-09-08T17:32:21Z</time>
      </trkpt>
      <trkpt lat="43.0490440" lon="-2.2882040">
        <ele>228.8</ele>
        <time>2020-09-08T17:32:22Z</time>
      </trkpt>
      <trkpt lat="43.0490670" lon="-2.2883020">
        <ele>229.0</ele>
        <time>2020-09-08T17:32:23Z</time>
      </trkpt>
      <trkpt lat="43.0491440" lon="-2.2884710">
        <ele>229.8</ele>
        <time>2020-09-08T17:32:25Z</time>
      </trkpt>
      <trkpt lat="43.0492560" lon="-2.2886100">
        <ele>230.2</ele>
        <time>2020-09-08T17:32:27Z</time>
      </trkpt>
      <trkpt lat="43.0493060" lon="-2.2886760">
        <ele>230.2</ele>
        <time>2020-09-08T17:32:28Z</time>
      </trkpt>
      <trkpt lat="43.0494540" lon="-2.2889770">
        <ele>230.4</ele>
        <time>2020-09-08T17:32:32Z</time>
      </trkpt>
      <trkpt lat="43.0495560" lon="-2.2892670">
        <ele>231.0</ele>
        <time>2020-09-08T17:32:35Z</time>
      </trkpt>
      <trkpt lat="43.0496280" lon="-2.2894440">
        <ele>231.4</ele>
        <time>2020-09-08T17:32:37Z</time>
      </trkpt>
      <trkpt lat="43.0496730" lon="-2.2896360">
        <ele>232.0</ele>
        <time>2020-09-08T17:32:39Z</time>
      </trkpt>
      <trkpt lat="43.0497450" lon="-2.2899320">
        <ele>233.2</ele>
        <time>2020-09-08T17:32:42Z</time>
      </trkpt>
      <trkpt lat="43.0498900" lon="-2.2901640">
        <ele>234.4</ele>
        <time>2020-09-08T17:32:45Z</time>
      </trkpt>
      <trkpt lat="43.0500540" lon="-2.2903800">
        <ele>235.6</ele>
        <time>2020-09-08T17:32:48Z</time>
      </trkpt>
      <trkpt lat="43.0501100" lon="-2.2904540">
        <ele>235.8</ele>
        <time>2020-09-08T17:32:49Z</time>
      </trkpt>
      <trkpt lat="43.0503260" lon="-2.2907400">
        <ele>237.0</ele>
        <time>2020-09-08T17:32:53Z</time>
      </trkpt>
      <trkpt lat="43.0504930" lon="-2.2909420">
        <ele>238.0</ele>
        <time>2020-09-08T17:32:56Z</time>
      </trkpt>
      <trkpt lat="43.0508180" lon="-2.2913620">
        <ele>239.0</ele>
        <time>2020-09-08T17:33:02Z</time>
      </trkpt>
      <trkpt lat="43.0508610" lon="-2.2914440">
        <ele>239.2</ele>
        <time>2020-09-08T17:33:03Z</time>
      </trkpt>
      <trkpt lat="43.0509290" lon="-2.2916250">
        <ele>240.2</ele>
        <time>2020-09-08T17:33:05Z</time>
      </trkpt>
      <trkpt lat="43.0509550" lon="-2.2917210">
        <ele>240.4</ele>
        <time>2020-09-08T17:33:06Z</time>
      </trkpt>
      <trkpt lat="43.0510030" lon="-2.2919140">
        <ele>241.2</ele>
        <time>2020-09-08T17:33:08Z</time>
      </trkpt>
      <trkpt lat="43.0511230" lon="-2.2922800">
        <ele>242.2</ele>
        <time>2020-09-08T17:33:12Z</time>
      </trkpt>
      <trkpt lat="43.0511640" lon="-2.2923610">
        <ele>242.4</ele>
        <time>2020-09-08T17:33:13Z</time>
      </trkpt>
      <trkpt lat="43.0513580" lon="-2.2926510">
        <ele>243.6</ele>
        <time>2020-09-08T17:33:17Z</time>
      </trkpt>
      <trkpt lat="43.0514600" lon="-2.2927940">
        <ele>244.8</ele>
        <time>2020-09-08T17:33:19Z</time>
      </trkpt>
      <trkpt lat="43.0516640" lon="-2.2930680">
        <ele>245.8</ele>
        <time>2020-09-08T17:33:23Z</time>
      </trkpt>
      <trkpt lat="43.0518240" lon="-2.2934990">
        <ele>247.0</ele>
        <time>2020-09-08T17:33:28Z</time>
      </trkpt>
      <trkpt lat="43.0519140" lon="-2.2938330">
        <ele>248.4</ele>
        <time>2020-09-08T17:33:32Z</time>
      </trkpt>
      <trkpt lat="43.0520040" lon="-2.2941620">
        <ele>249.2</ele>
        <time>2020-09-08T17:33:36Z</time>
      </trkpt>
      <trkpt lat="43.0520360" lon="-2.2943330">
        <ele>250.0</ele>
        <time>2020-09-08T17:33:38Z</time>
      </trkpt>
      <trkpt lat="43.0520420" lon="-2.2944210">
        <ele>250.6</ele>
        <time>2020-09-08T17:33:39Z</time>
      </trkpt>
      <trkpt lat="43.0520560" lon="-2.2948470">
        <ele>252.0</ele>
        <time>2020-09-08T17:33:44Z</time>
      </trkpt>
      <trkpt lat="43.0521620" lon="-2.2951270">
        <ele>253.0</ele>
        <time>2020-09-08T17:33:48Z</time>
      </trkpt>
      <trkpt lat="43.0524300" lon="-2.2952290">
        <ele>254.2</ele>
        <time>2020-09-08T17:33:53Z</time>
      </trkpt>
      <trkpt lat="43.0530240" lon="-2.2952970">
        <ele>255.0</ele>
        <time>2020-09-08T17:34:02Z</time>
      </trkpt>
      <trkpt lat="43.0531670" lon="-2.2953410">
        <ele>255.0</ele>
        <time>2020-09-08T17:34:04Z</time>
      </trkpt>
      <trkpt lat="43.0533430" lon="-2.2959150">
        <ele>254.2</ele>
        <time>2020-09-08T17:34:11Z</time>
      </trkpt>
      <trkpt lat="43.0533170" lon="-2.2967180">
        <ele>255.2</ele>
        <time>2020-09-08T17:34:20Z</time>
      </trkpt>
      <trkpt lat="43.0533090" lon="-2.2968040">
        <ele>255.4</ele>
        <time>2020-09-08T17:34:21Z</time>
      </trkpt>
      <trkpt lat="43.0532560" lon="-2.2970540">
        <ele>256.2</ele>
        <time>2020-09-08T17:34:24Z</time>
      </trkpt>
      <trkpt lat="43.0531850" lon="-2.2973650">
        <ele>257.6</ele>
        <time>2020-09-08T17:34:28Z</time>
      </trkpt>
      <trkpt lat="43.0533050" lon="-2.2976640">
        <ele>258.8</ele>
        <time>2020-09-08T17:34:33Z</time>
      </trkpt>
      <trkpt lat="43.0534070" lon="-2.2976930">
        <ele>259.8</ele>
        <time>2020-09-08T17:34:35Z</time>
      </trkpt>
      <trkpt lat="43.0534590" lon="-2.2977020">
        <ele>260.0</ele>
        <time>2020-09-08T17:34:36Z</time>
      </trkpt>
      <trkpt lat="43.0535130" lon="-2.2977250">
        <ele>260.4</ele>
        <time>2020-09-08T17:34:37Z</time>
      </trkpt>
      <trkpt lat="43.0536590" lon="-2.2978630">
        <ele>261.0</ele>
        <time>2020-09-08T17:34:40Z</time>
      </trkpt>
      <trkpt lat="43.0537760" lon="-2.2981530">
        <ele>261.6</ele>
        <time>2020-09-08T17:34:44Z</time>
      </trkpt>
      <trkpt lat="43.0538540" lon="-2.2983560">
        <ele>262.0</ele>
        <time>2020-09-08T17:34:47Z</time>
      </trkpt>
      <trkpt lat="43.0538900" lon="-2.2984130">
        <ele>262.2</ele>
        <time>2020-09-08T17:34:48Z</time>
      </trkpt>
      <trkpt lat="43.0541330" lon="-2.2985250">
        <ele>263.2</ele>
        <time>2020-09-08T17:34:54Z</time>
      </trkpt>
      <trkpt lat="43.0542700" lon="-2.2984660">
        <ele>264.4</ele>
        <time>2020-09-08T17:34:57Z</time>
      </trkpt>
      <trkpt lat="43.0543660" lon="-2.2984270">
        <ele>265.2</ele>
        <time>2020-09-08T17:34:59Z</time>
      </trkpt>
      <trkpt lat="43.0544200" lon="-2.2984140">
        <ele>265.4</ele>
        <time>2020-09-08T17:35:00Z</time>
      </trkpt>
      <trkpt lat="43.0545350" lon="-2.2984080">
        <ele>266.6</ele>
        <time>2020-09-08T17:35:02Z</time>
      </trkpt>
      <trkpt lat="43.0547690" lon="-2.2984980">
        <ele>267.4</ele>
        <time>2020-09-08T17:35:06Z</time>
      </trkpt>
      <trkpt lat="43.0548290" lon="-2.2985250">
        <ele>267.4</ele>
        <time>2020-09-08T17:35:07Z</time>
      </trkpt>
      <trkpt lat="43.0553570" lon="-2.2986860">
        <ele>268.6</ele>
        <time>2020-09-08T17:35:16Z</time>
      </trkpt>
      <trkpt lat="43.0556470" lon="-2.2986950">
        <ele>269.8</ele>
        <time>2020-09-08T17:35:21Z</time>
      </trkpt>
      <trkpt lat="43.0557050" lon="-2.2986860">
        <ele>270.0</ele>
        <time>2020-09-08T17:35:22Z</time>
      </trkpt>
      <trkpt lat="43.0558660" lon="-2.2986140">
        <ele>270.8</ele>
        <time>2020-09-08T17:35:25Z</time>
      </trkpt>
      <trkpt lat="43.0561100" lon="-2.2984680">
        <ele>272.0</ele>
        <time>2020-09-08T17:35:30Z</time>
      </trkpt>
      <trkpt lat="43.0562690" lon="-2.2983890">
        <ele>272.6</ele>
        <time>2020-09-08T17:35:33Z</time>
      </trkpt>
      <trkpt lat="43.0563780" lon="-2.2983610">
        <ele>273.4</ele>
        <time>2020-09-08T17:35:35Z</time>
      </trkpt>
      <trkpt lat="43.0564890" lon="-2.2983820">
        <ele>274.4</ele>
        <time>2020-09-08T17:35:37Z</time>
      </trkpt>
      <trkpt lat="43.0565770" lon="-2.2984670">
        <ele>274.8</ele>
        <time>2020-09-08T17:35:39Z</time>
      </trkpt>
      <trkpt lat="43.0566150" lon="-2.2985230">
        <ele>275.0</ele>
        <time>2020-09-08T17:35:40Z</time>
      </trkpt>
      <trkpt lat="43.0566970" lon="-2.2987310">
        <ele>275.4</ele>
        <time>2020-09-08T17:35:43Z</time>
      </trkpt>
      <trkpt lat="43.0566560" lon="-2.2990440">
        <ele>276.6</ele>
        <time>2020-09-08T17:35:47Z</time>
      </trkpt>
      <trkpt lat="43.0565400" lon="-2.2992360">
        <ele>277.4</ele>
        <time>2020-09-08T17:35:50Z</time>
      </trkpt>
      <trkpt lat="43.0564960" lon="-2.2992950">
        <ele>277.6</ele>
        <time>2020-09-08T17:35:51Z</time>
      </trkpt>
      <trkpt lat="43.0562290" lon="-2.2996470">
        <ele>278.8</ele>
        <time>2020-09-08T17:35:57Z</time>
      </trkpt>
      <trkpt lat="43.0561080" lon="-2.2998350">
        <ele>280.0</ele>
        <time>2020-09-08T17:36:00Z</time>
      </trkpt>
      <trkpt lat="43.0559970" lon="-2.3000330">
        <ele>280.6</ele>
        <time>2020-09-08T17:36:03Z</time>
      </trkpt>
      <trkpt lat="43.0559480" lon="-2.3001860">
        <ele>281.0</ele>
        <time>2020-09-08T17:36:05Z</time>
      </trkpt>
      <trkpt lat="43.0558520" lon="-2.3005830">
        <ele>282.4</ele>
        <time>2020-09-08T17:36:10Z</time>
      </trkpt>
      <trkpt lat="43.0557940" lon="-2.3007300">
        <ele>282.8</ele>
        <time>2020-09-08T17:36:12Z</time>
      </trkpt>
      <trkpt lat="43.0556300" lon="-2.3009690">
        <ele>283.4</ele>
        <time>2020-09-08T17:36:16Z</time>
      </trkpt>
      <trkpt lat="43.0555800" lon="-2.3010150">
        <ele>283.6</ele>
        <time>2020-09-08T17:36:17Z</time>
      </trkpt>
      <trkpt lat="43.0554330" lon="-2.3011520">
        <ele>284.4</ele>
        <time>2020-09-08T17:36:20Z</time>
      </trkpt>
      <trkpt lat="43.0553930" lon="-2.3012110">
        <ele>284.6</ele>
        <time>2020-09-08T17:36:21Z</time>
      </trkpt>
      <trkpt lat="43.0553700" lon="-2.3016790">
        <ele>285.6</ele>
        <time>2020-09-08T17:36:27Z</time>
      </trkpt>
      <trkpt lat="43.0555020" lon="-2.3019420">
        <ele>286.8</ele>
        <time>2020-09-08T17:36:31Z</time>
      </trkpt>
      <trkpt lat="43.0555430" lon="-2.3020020">
        <ele>287.0</ele>
        <time>2020-09-08T17:36:32Z</time>
      </trkpt>
      <trkpt lat="43.0556280" lon="-2.3021170">
        <ele>287.4</ele>
        <time>2020-09-08T17:36:34Z</time>
      </trkpt>
      <trkpt lat="43.0557170" lon="-2.3022280">
        <ele>287.6</ele>
        <time>2020-09-08T17:36:36Z</time>
      </trkpt>
      <trkpt lat="43.0559160" lon="-2.3024120">
        <ele>288.8</ele>
        <time>2020-09-08T17:36:40Z</time>
      </trkpt>
      <trkpt lat="43.0561130" lon="-2.3025940">
        <ele>290.4</ele>
        <time>2020-09-08T17:36:44Z</time>
      </trkpt>
      <trkpt lat="43.0561660" lon="-2.3026340">
        <ele>290.8</ele>
        <time>2020-09-08T17:36:45Z</time>
      </trkpt>
      <trkpt lat="43.0563350" lon="-2.3027120">
        <ele>291.6</ele>
        <time>2020-09-08T17:36:48Z</time>
      </trkpt>
      <trkpt lat="43.0566140" lon="-2.3027930">
        <ele>292.6</ele>
        <time>2020-09-08T17:36:53Z</time>
      </trkpt>
      <trkpt lat="43.0568400" lon="-2.3028700">
        <ele>293.6</ele>
        <time>2020-09-08T17:36:57Z</time>
      </trkpt>
      <trkpt lat="43.0569540" lon="-2.3029070">
        <ele>294.2</ele>
        <time>2020-09-08T17:36:59Z</time>
      </trkpt>
      <trkpt lat="43.0571210" lon="-2.3029390">
        <ele>294.8</ele>
        <time>2020-09-08T17:37:02Z</time>
      </trkpt>
      <trkpt lat="43.0573010" lon="-2.3029380">
        <ele>295.0</ele>
        <time>2020-09-08T17:37:05Z</time>
      </trkpt>
      <trkpt lat="43.0574790" lon="-2.3029040">
        <ele>295.8</ele>
        <time>2020-09-08T17:37:08Z</time>
      </trkpt>
      <trkpt lat="43.0577230" lon="-2.3028350">
        <ele>296.4</ele>
        <time>2020-09-08T17:37:12Z</time>
      </trkpt>
      <trkpt lat="43.0578360" lon="-2.3027810">
        <ele>296.8</ele>
        <time>2020-09-08T17:37:14Z</time>
      </trkpt>
      <trkpt lat="43.0581020" lon="-2.3025890">
        <ele>298.0</ele>
        <time>2020-09-08T17:37:19Z</time>
      </trkpt>
      <trkpt lat="43.0582840" lon="-2.3024010">
        <ele>299.0</ele>
        <time>2020-09-08T17:37:23Z</time>
      </trkpt>
      <trkpt lat="43.0584680" lon="-2.3022280">
        <ele>299.8</ele>
        <time>2020-09-08T17:37:27Z</time>
      </trkpt>
      <trkpt lat="43.0585150" lon="-2.3021980">
        <ele>300.2</ele>
        <time>2020-09-08T17:37:28Z</time>
      </trkpt>
      <trkpt lat="43.0587610" lon="-2.3022110">
        <ele>301.2</ele>
        <time>2020-09-08T17:37:32Z</time>
      </trkpt>
      <trkpt lat="43.0588840" lon="-2.3022880">
        <ele>301.6</ele>
        <time>2020-09-08T17:37:34Z</time>
      </trkpt>
      <trkpt lat="43.0590570" lon="-2.3024140">
        <ele>302.2</ele>
        <time>2020-09-08T17:37:37Z</time>
      </trkpt>
      <trkpt lat="43.0591110" lon="-2.3024580">
        <ele>302.4</ele>
        <time>2020-09-08T17:37:38Z</time>
      </trkpt>
      <trkpt lat="43.0591600" lon="-2.3025080">
        <ele>302.6</ele>
        <time>2020-09-08T17:37:39Z</time>
      </trkpt>
      <trkpt lat="43.0592470" lon="-2.3026230">
        <ele>303.2</ele>
        <time>2020-09-08T17:37:41Z</time>
      </trkpt>
      <trkpt lat="43.0593240" lon="-2.3027600">
        <ele>303.4</ele>
        <time>2020-09-08T17:37:43Z</time>
      </trkpt>
      <trkpt lat="43.0593560" lon="-2.3028350">
        <ele>303.8</ele>
        <time>2020-09-08T17:37:44Z</time>
      </trkpt>
      <trkpt lat="43.0594100" lon="-2.3030850">
        <ele>304.6</ele>
        <time>2020-09-08T17:37:47Z</time>
      </trkpt>
      <trkpt lat="43.0594170" lon="-2.3033330">
        <ele>305.2</ele>
        <time>2020-09-08T17:37:50Z</time>
      </trkpt>
      <trkpt lat="43.0594200" lon="-2.3034930">
        <ele>305.6</ele>
        <time>2020-09-08T17:37:52Z</time>
      </trkpt>
      <trkpt lat="43.0594270" lon="-2.3035750">
        <ele>305.8</ele>
        <time>2020-09-08T17:37:53Z</time>
      </trkpt>
      <trkpt lat="43.0595220" lon="-2.3038810">
        <ele>306.8</ele>
        <time>2020-09-08T17:37:57Z</time>
      </trkpt>
      <trkpt lat="43.0597570" lon="-2.3041530">
        <ele>307.8</ele>
        <time>2020-09-08T17:38:02Z</time>
      </trkpt>
      <trkpt lat="43.0600270" lon="-2.3043430">
        <ele>308.8</ele>
        <time>2020-09-08T17:38:07Z</time>
      </trkpt>
      <trkpt lat="43.0602920" lon="-2.3045330">
        <ele>310.0</ele>
        <time>2020-09-08T17:38:12Z</time>
      </trkpt>
      <trkpt lat="43.0603490" lon="-2.3045590">
        <ele>310.4</ele>
        <time>2020-09-08T17:38:13Z</time>
      </trkpt>
      <trkpt lat="43.0604670" lon="-2.3045890">
        <ele>311.2</ele>
        <time>2020-09-08T17:38:15Z</time>
      </trkpt>
      <trkpt lat="43.0605850" lon="-2.3046000">
        <ele>312.0</ele>
        <time>2020-09-08T17:38:17Z</time>
      </trkpt>
      <trkpt lat="43.0606440" lon="-2.3045980">
        <ele>312.4</ele>
        <time>2020-09-08T17:38:18Z</time>
      </trkpt>
      <trkpt lat="43.0609220" lon="-2.3046130">
        <ele>313.6</ele>
        <time>2020-09-08T17:38:23Z</time>
      </trkpt>
      <trkpt lat="43.0610760" lon="-2.3046430">
        <ele>314.6</ele>
        <time>2020-09-08T17:38:26Z</time>
      </trkpt>
      <trkpt lat="43.0612640" lon="-2.3046680">
        <ele>315.6</ele>
        <time>2020-09-08T17:38:30Z</time>
      </trkpt>
      <trkpt lat="43.0614090" lon="-2.3047490">
        <ele>316.8</ele>
        <time>2020-09-08T17:38:34Z</time>
      </trkpt>
      <trkpt lat="43.0615180" lon="-2.3048110">
        <ele>318.0</ele>
        <time>2020-09-08T17:38:37Z</time>
      </trkpt>
      <trkpt lat="43.0615590" lon="-2.3047130">
        <ele>319.2</ele>
        <time>2020-09-08T17:38:41Z</time>
      </trkpt>
      <trkpt lat="43.0614840" lon="-2.3046200">
        <ele>320.2</ele>
        <time>2020-09-08T17:38:46Z</time>
      </trkpt>
      <trkpt lat="43.0614130" lon="-2.3045920">
        <ele>321.6</ele>
        <time>2020-09-08T17:38:49Z</time>
      </trkpt>
      <trkpt lat="43.0613670" lon="-2.3045590">
        <ele>322.6</ele>
        <time>2020-09-08T17:38:51Z</time>
      </trkpt>
      <trkpt lat="43.0612910" lon="-2.3045230">
        <ele>324.0</ele>
        <time>2020-09-08T17:38:54Z</time>
      </trkpt>
      <trkpt lat="43.0612150" lon="-2.3044820">
        <ele>324.8</ele>
        <time>2020-09-08T17:38:57Z</time>
      </trkpt>
      <trkpt lat="43.0611390" lon="-2.3044470">
        <ele>326.0</ele>
        <time>2020-09-08T17:39:00Z</time>
      </trkpt>
      <trkpt lat="43.0610570" lon="-2.3043980">
        <ele>327.0</ele>
        <time>2020-09-08T17:39:03Z</time>
      </trkpt>
      <trkpt lat="43.0609500" lon="-2.3042960">
        <ele>328.0</ele>
        <time>2020-09-08T17:39:07Z</time>
      </trkpt>
      <trkpt lat="43.0608300" lon="-2.3042350">
        <ele>329.0</ele>
        <time>2020-09-08T17:39:11Z</time>
      </trkpt>
      <trkpt lat="43.0606580" lon="-2.3041750">
        <ele>330.0</ele>
        <time>2020-09-08T17:39:17Z</time>
      </trkpt>
      <trkpt lat="43.0605850" lon="-2.3041490">
        <ele>331.2</ele>
        <time>2020-09-08T17:39:20Z</time>
      </trkpt>
      <trkpt lat="43.0605270" lon="-2.3041130">
        <ele>332.4</ele>
        <time>2020-09-08T17:39:23Z</time>
      </trkpt>
      <trkpt lat="43.0604830" lon="-2.3040660">
        <ele>333.6</ele>
        <time>2020-09-08T17:39:26Z</time>
      </trkpt>
      <trkpt lat="43.0604430" lon="-2.3040060">
        <ele>334.8</ele>
        <time>2020-09-08T17:39:29Z</time>
      </trkpt>
      <trkpt lat="43.0604290" lon="-2.3039800">
        <ele>335.2</ele>
        <time>2020-09-08T17:39:30Z</time>
      </trkpt>
      <trkpt lat="43.0603950" lon="-2.3039080">
        <ele>336.0</ele>
        <time>2020-09-08T17:39:32Z</time>
      </trkpt>
      <trkpt lat="43.0603330" lon="-2.3037730">
        <ele>337.4</ele>
        <time>2020-09-08T17:39:35Z</time>
      </trkpt>
      <trkpt lat="43.0603030" lon="-2.3036680">
        <ele>338.6</ele>
        <time>2020-09-08T17:39:38Z</time>
      </trkpt>
      <trkpt lat="43.0602300" lon="-2.3034590">
        <ele>339.8</ele>
        <time>2020-09-08T17:39:44Z</time>
      </trkpt>
      <trkpt lat="43.0601790" lon="-2.3033190">
        <ele>340.8</ele>
        <time>2020-09-08T17:39:48Z</time>
      </trkpt>
      <trkpt lat="43.0601390" lon="-2.3031840">
        <ele>342.2</ele>
        <time>2020-09-08T17:39:52Z</time>
      </trkpt>
      <trkpt lat="43.0601100" lon="-2.3030310">
        <ele>343.4</ele>
        <time>2020-09-08T17:39:56Z</time>
      </trkpt>
      <trkpt lat="43.0601150" lon="-2.3028850">
        <ele>344.6</ele>
        <time>2020-09-08T17:40:00Z</time>
      </trkpt>
      <trkpt lat="43.0602010" lon="-2.3027350">
        <ele>345.8</ele>
        <time>2020-09-08T17:40:05Z</time>
      </trkpt>
      <trkpt lat="43.0603090" lon="-2.3026740">
        <ele>347.0</ele>
        <time>2020-09-08T17:40:09Z</time>
      </trkpt>
      <trkpt lat="43.0604040" lon="-2.3026580">
        <ele>348.4</ele>
        <time>2020-09-08T17:40:12Z</time>
      </trkpt>
      <trkpt lat="43.0605680" lon="-2.3025960">
        <ele>349.6</ele>
        <time>2020-09-08T17:40:18Z</time>
      </trkpt>
      <trkpt lat="43.0606260" lon="-2.3024540">
        <ele>350.4</ele>
        <time>2020-09-08T17:40:23Z</time>
      </trkpt>
      <trkpt lat="43.0605990" lon="-2.3023090">
        <ele>351.6</ele>
        <time>2020-09-08T17:40:27Z</time>
      </trkpt>
      <trkpt lat="43.0605730" lon="-2.3022270">
        <ele>352.6</ele>
        <time>2020-09-08T17:40:30Z</time>
      </trkpt>
      <trkpt lat="43.0605080" lon="-2.3021340">
        <ele>353.6</ele>
        <time>2020-09-08T17:40:34Z</time>
      </trkpt>
      <trkpt lat="43.0604640" lon="-2.3019970">
        <ele>355.0</ele>
        <time>2020-09-08T17:40:38Z</time>
      </trkpt>
      <trkpt lat="43.0604180" lon="-2.3018620">
        <ele>356.2</ele>
        <time>2020-09-08T17:40:42Z</time>
      </trkpt>
      <trkpt lat="43.0603820" lon="-2.3017680">
        <ele>357.4</ele>
        <time>2020-09-08T17:40:45Z</time>
      </trkpt>
      <trkpt lat="43.0603670" lon="-2.3017060">
        <ele>358.4</ele>
        <time>2020-09-08T17:40:47Z</time>
      </trkpt>
      <trkpt lat="43.0603330" lon="-2.3016030">
        <ele>359.8</ele>
        <time>2020-09-08T17:40:51Z</time>
      </trkpt>
      <trkpt lat="43.0602830" lon="-2.3014770">
        <ele>361.0</ele>
        <time>2020-09-08T17:40:55Z</time>
      </trkpt>
      <trkpt lat="43.0602650" lon="-2.3013270">
        <ele>362.0</ele>
        <time>2020-09-08T17:40:59Z</time>
      </trkpt>
      <trkpt lat="43.0601570" lon="-2.3007550">
        <ele>362.8</ele>
        <time>2020-09-08T17:41:09Z</time>
      </trkpt>
      <trkpt lat="43.0600600" lon="-2.3002150">
        <ele>364.2</ele>
        <time>2020-09-08T17:41:21Z</time>
      </trkpt>
      <trkpt lat="43.0600720" lon="-2.3000910">
        <ele>365.8</ele>
        <time>2020-09-08T17:41:24Z</time>
      </trkpt>
      <trkpt lat="43.0600900" lon="-2.3000120">
        <ele>366.8</ele>
        <time>2020-09-08T17:41:26Z</time>
      </trkpt>
      <trkpt lat="43.0601010" lon="-2.2999310">
        <ele>367.8</ele>
        <time>2020-09-08T17:41:28Z</time>
      </trkpt>
      <trkpt lat="43.0601240" lon="-2.2998530">
        <ele>368.8</ele>
        <time>2020-09-08T17:41:30Z</time>
      </trkpt>
      <trkpt lat="43.0601500" lon="-2.2997280">
        <ele>370.0</ele>
        <time>2020-09-08T17:41:33Z</time>
      </trkpt>
      <trkpt lat="43.0601840" lon="-2.2996010">
        <ele>371.2</ele>
        <time>2020-09-08T17:41:36Z</time>
      </trkpt>
      <trkpt lat="43.0602260" lon="-2.2994280">
        <ele>372.4</ele>
        <time>2020-09-08T17:41:40Z</time>
      </trkpt>
      <trkpt lat="43.0602800" lon="-2.2992610">
        <ele>373.4</ele>
        <time>2020-09-08T17:41:44Z</time>
      </trkpt>
      <trkpt lat="43.0603490" lon="-2.2991140">
        <ele>374.2</ele>
        <time>2020-09-08T17:41:48Z</time>
      </trkpt>
      <trkpt lat="43.0603940" lon="-2.2989850">
        <ele>375.0</ele>
        <time>2020-09-08T17:41:51Z</time>
      </trkpt>
      <trkpt lat="43.0604040" lon="-2.2989300">
        <ele>375.4</ele>
        <time>2020-09-08T17:41:52Z</time>
      </trkpt>
      <trkpt lat="43.0603900" lon="-2.2987200">
        <ele>375.8</ele>
        <time>2020-09-08T17:41:55Z</time>
      </trkpt>
      <trkpt lat="43.0603640" lon="-2.2979800">
        <ele>375.6</ele>
        <time>2020-09-08T17:42:03Z</time>
      </trkpt>
      <trkpt lat="43.0604090" lon="-2.2975470">
        <ele>374.0</ele>
        <time>2020-09-08T17:42:08Z</time>
      </trkpt>
      <trkpt lat="43.0601860" lon="-2.2971990">
        <ele>374.0</ele>
        <time>2020-09-08T17:42:16Z</time>
      </trkpt>
      <trkpt lat="43.0600780" lon="-2.2971300">
        <ele>375.2</ele>
        <time>2020-09-08T17:42:21Z</time>
      </trkpt>
      <trkpt lat="43.0600070" lon="-2.2970890">
        <ele>376.6</ele>
        <time>2020-09-08T17:42:24Z</time>
      </trkpt>
      <trkpt lat="43.0599020" lon="-2.2970230">
        <ele>378.0</ele>
        <time>2020-09-08T17:42:27Z</time>
      </trkpt>
      <trkpt lat="43.0597860" lon="-2.2969610">
        <ele>379.4</ele>
        <time>2020-09-08T17:42:30Z</time>
      </trkpt>
      <trkpt lat="43.0596520" lon="-2.2968640">
        <ele>380.6</ele>
        <time>2020-09-08T17:42:34Z</time>
      </trkpt>
      <trkpt lat="43.0595710" lon="-2.2966950">
        <ele>381.8</ele>
        <time>2020-09-08T17:42:38Z</time>
      </trkpt>
      <trkpt lat="43.0595220" lon="-2.2965320">
        <ele>382.8</ele>
        <time>2020-09-08T17:42:42Z</time>
      </trkpt>
      <trkpt lat="43.0595070" lon="-2.2964620">
        <ele>383.4</ele>
        <time>2020-09-08T17:42:44Z</time>
      </trkpt>
      <trkpt lat="43.0594910" lon="-2.2964170">
        <ele>384.0</ele>
        <time>2020-09-08T17:42:46Z</time>
      </trkpt>
      <trkpt lat="43.0594930" lon="-2.2964010">
        <ele>384.4</ele>
        <time>2020-09-08T17:42:47Z</time>
      </trkpt>
      <trkpt lat="43.0594990" lon="-2.2963780">
        <ele>385.0</ele>
        <time>2020-09-08T17:42:49Z</time>
      </trkpt>
      <trkpt lat="43.0594910" lon="-2.2963290">
        <ele>386.4</ele>
        <time>2020-09-08T17:42:52Z</time>
      </trkpt>
      <trkpt lat="43.0594720" lon="-2.2962800">
        <ele>386.8</ele>
        <time>2020-09-08T17:42:54Z</time>
      </trkpt>
      <trkpt lat="43.0595070" lon="-2.2954800">
        <ele>387.4</ele>
        <time>2020-09-08T17:43:08Z</time>
      </trkpt>
      <trkpt lat="43.0595290" lon="-2.2952290">
        <ele>387.2</ele>
        <time>2020-09-08T17:43:11Z</time>
      </trkpt>
      <trkpt lat="43.0592700" lon="-2.2947740">
        <ele>385.4</ele>
        <time>2020-09-08T17:43:18Z</time>
      </trkpt>
      <trkpt lat="43.0590740" lon="-2.2946500">
        <ele>385.2</ele>
        <time>2020-09-08T17:43:22Z</time>
      </trkpt>
      <trkpt lat="43.0589340" lon="-2.2945510">
        <ele>385.2</ele>
        <time>2020-09-08T17:43:25Z</time>
      </trkpt>
      <trkpt lat="43.0583810" lon="-2.2943000">
        <ele>385.6</ele>
        <time>2020-09-08T17:43:34Z</time>
      </trkpt>
      <trkpt lat="43.0579790" lon="-2.2942090">
        <ele>385.8</ele>
        <time>2020-09-08T17:43:41Z</time>
      </trkpt>
      <trkpt lat="43.0576460" lon="-2.2938410">
        <ele>385.6</ele>
        <time>2020-09-08T17:43:49Z</time>
      </trkpt>
      <trkpt lat="43.0576080" lon="-2.2937260">
        <ele>385.6</ele>
        <time>2020-09-08T17:43:50Z</time>
      </trkpt>
      <trkpt lat="43.0574660" lon="-2.2932140">
        <ele>385.2</ele>
        <time>2020-09-08T17:43:54Z</time>
      </trkpt>
      <trkpt lat="43.0573390" lon="-2.2929430">
        <ele>383.8</ele>
        <time>2020-09-08T17:43:56Z</time>
      </trkpt>
      <trkpt lat="43.0572150" lon="-2.2926680">
        <ele>382.4</ele>
        <time>2020-09-08T17:43:58Z</time>
      </trkpt>
      <trkpt lat="43.0571750" lon="-2.2925140">
        <ele>381.2</ele>
        <time>2020-09-08T17:43:59Z</time>
      </trkpt>
      <trkpt lat="43.0571460" lon="-2.2923580">
        <ele>380.2</ele>
        <time>2020-09-08T17:44:00Z</time>
      </trkpt>
      <trkpt lat="43.0571040" lon="-2.2920460">
        <ele>378.4</ele>
        <time>2020-09-08T17:44:02Z</time>
      </trkpt>
      <trkpt lat="43.0570460" lon="-2.2917590">
        <ele>376.6</ele>
        <time>2020-09-08T17:44:04Z</time>
      </trkpt>
      <trkpt lat="43.0569340" lon="-2.2914920">
        <ele>375.2</ele>
        <time>2020-09-08T17:44:06Z</time>
      </trkpt>
      <trkpt lat="43.0568340" lon="-2.2913760">
        <ele>374.2</ele>
        <time>2020-09-08T17:44:08Z</time>
      </trkpt>
      <trkpt lat="43.0567820" lon="-2.2913560">
        <ele>372.4</ele>
        <time>2020-09-08T17:44:10Z</time>
      </trkpt>
      <trkpt lat="43.0567610" lon="-2.2913890">
        <ele>371.8</ele>
        <time>2020-09-08T17:44:12Z</time>
      </trkpt>
      <trkpt lat="43.0564240" lon="-2.2912760">
        <ele>373.6</ele>
        <time>2020-09-08T17:44:46Z</time>
      </trkpt>
      <trkpt lat="43.0562290" lon="-2.2911030">
        <ele>373.8</ele>
        <time>2020-09-08T17:45:01Z</time>
      </trkpt>
      <trkpt lat="43.0561410" lon="-2.2910000">
        <ele>373.2</ele>
        <time>2020-09-08T17:45:07Z</time>
      </trkpt>
      <trkpt lat="43.0560710" lon="-2.2909610">
        <ele>372.8</ele>
        <time>2020-09-08T17:45:12Z</time>
      </trkpt>
      <trkpt lat="43.0559410" lon="-2.2909480">
        <ele>372.4</ele>
        <time>2020-09-08T17:45:22Z</time>
      </trkpt>
      <trkpt lat="43.0558010" lon="-2.2909270">
        <ele>371.4</ele>
        <time>2020-09-08T17:45:34Z</time>
      </trkpt>
      <trkpt lat="43.0555960" lon="-2.2908780">
        <ele>370.4</ele>
        <time>2020-09-08T17:45:49Z</time>
      </trkpt>
      <trkpt lat="43.0554290" lon="-2.2908090">
        <ele>369.6</ele>
        <time>2020-09-08T17:46:01Z</time>
      </trkpt>
      <trkpt lat="43.0553830" lon="-2.2907930">
        <ele>369.4</ele>
        <time>2020-09-08T17:46:05Z</time>
      </trkpt>
      <trkpt lat="43.0552170" lon="-2.2907520">
        <ele>368.2</ele>
        <time>2020-09-08T17:46:20Z</time>
      </trkpt>
      <trkpt lat="43.0549980" lon="-2.2906400">
        <ele>367.0</ele>
        <time>2020-09-08T17:46:34Z</time>
      </trkpt>
      <trkpt lat="43.0549600" lon="-2.2906110">
        <ele>366.8</ele>
        <time>2020-09-08T17:46:37Z</time>
      </trkpt>
      <trkpt lat="43.0549420" lon="-2.2905770">
        <ele>366.8</ele>
        <time>2020-09-08T17:46:39Z</time>
      </trkpt>
      <trkpt lat="43.0548030" lon="-2.2904990">
        <ele>366.6</ele>
        <time>2020-09-08T17:46:53Z</time>
      </trkpt>
      <trkpt lat="43.0546810" lon="-2.2904350">
        <ele>366.0</ele>
        <time>2020-09-08T17:47:03Z</time>
      </trkpt>
      <trkpt lat="43.0546070" lon="-2.2903760">
        <ele>365.0</ele>
        <time>2020-09-08T17:47:10Z</time>
      </trkpt>
      <trkpt lat="43.0545350" lon="-2.2903230">
        <ele>363.8</ele>
        <time>2020-09-08T17:47:17Z</time>
      </trkpt>
      <trkpt lat="43.0544110" lon="-2.2901990">
        <ele>362.8</ele>
        <time>2020-09-08T17:47:29Z</time>
      </trkpt>
      <trkpt lat="43.0541430" lon="-2.2897640">
        <ele>361.6</ele>
        <time>2020-09-08T17:48:01Z</time>
      </trkpt>
      <trkpt lat="43.0541290" lon="-2.2897340">
        <ele>361.2</ele>
        <time>2020-09-08T17:48:03Z</time>
      </trkpt>
    </trkseg>
  </trk>
</gpx>
